[[{"header":{"parameterUnit":"m.s-1","parameterCategory":1,"la1":30.6,"la2":29.2853,"lo1":-89.7004,"lo2":-87.6739,"dy":0.0162,"dx":0.0183,"nx":112,"ny":82,"refTime":"2023-07-15T00:00:00:Z","depth":0,"parameterNumber":2,"parameterNumberName":"U-component_of_WINDS"},"data":[0.0,0.0,0.0,0.0,0.0,0.0,0.0,0.0,0.0,0.0,0.0,0.0,0.0,0.0,0.0,0.0,0.0,0.0,0.0,0.0,0.0,0.0,0.0,0.0,0.0,0.0,0.0,0.0,0.0,0.0,0.0,0.0,0.0,0.0,0.0,0.0,0.0,0.0,0.0,0.0,0.0,0.0,0.0,0.0,0.0,0.0,0.0,0.0,0.0,0.0,0.0,0.0,0.0,0.0,0.0,0.0,0.0,0.0,0.0,0.0,0.0,0.0,0.0,0.0,0.0,0.0,0.0,0.0,0.0,0.0,0.0,0.0,0.0,0.0,0.0,0.0,0.0,0.0,0.0,0.0,0.0,0.0,0.0,0.0,0.0,0.0,0.0,0.0,0.0,0.0,-1.6088,-1.8991,-2.1776,-2.3798,-2.4803,-2.4778,-2.4532,-2.4139,0.0,0.0,0.0,0.0,0.0,0.0,0.0,0.0,0.0,0.0,0.0,0.0,0.0,0.0,0.0,0.0,0.0,0.0,0.0,0.0,0.0,0.0,0.0,0.0,0.0,0.0,0.0,0.0,0.0,0.0,0.0,0.0,0.0,0.0,0.0,0.0,0.0,0.0,0.0,0.0,0.0,0.0,0.0,0.0,0.0,0.0,0.0,0.0,0.0,0.0,0.0,0.0,0.0,0.0,0.0,0.0,0.0,0.0,0.0,0.0,0.0,0.0,0.0,0.0,0.0,0.0,0.0,0.0,0.0,0.0,0.0,0.0,0.0,0.0,0.0,0.0,0.0,0.0,0.0,0.0,0.0,0.0,0.0,0.0,0.0,0.0,0.0,0.0,0.0,0.0,0.0,0.0,0.0,0.0,0.0,0.0,0.0,0.0,0.0,0.0,0.0,0.0,0.0,0.0,-1.7496,-2.1167,-2.3023,-2.4243,-2.4837,-2.5097,-2.5037,-2.439,0.0,0.0,0.0,0.0,0.0,0.0,0.0,0.0,0.0,0.0,0.0,0.0,0.0,0.0,0.0,0.0,0.0,0.0,0.0,0.0,0.0,0.0,0.0,0.0,0.0,0.0,0.0,0.0,0.0,0.0,0.0,0.0,0.0,0.0,0.0,0.0,0.0,0.0,0.0,0.0,0.0,0.0,0.0,0.0,0.0,0.0,0.0,0.0,0.0,0.0,0.0,0.0,0.0,0.0,0.0,0.0,0.0,0.0,0.0,0.0,0.0,0.0,0.0,0.0,0.0,0.0,0.0,0.0,0.0,0.0,0.0,0.0,0.0,0.0,0.0,0.0,0.0,0.0,0.0,0.0,0.0,0.0,0.0,0.0,0.0,0.0,0.0,0.0,0.0,0.0,0.0,0.0,0.0,0.0,0.0,0.0,0.0,0.0,0.0,0.0,0.0,0.0,0.0,-1.6956,-1.9393,-2.2103,-2.3597,-2.4774,-2.5704,-2.5667,-2.5395,-2.4905,-2.3794,0.0,0.0,0.0,0.0,0.0,0.0,0.0,0.0,0.0,0.0,0.0,0.0,0.0,0.0,0.0,0.0,0.0,0.0,0.0,0.0,0.0,0.0,0.0,0.0,0.0,0.0,0.0,0.0,0.0,0.0,0.0,0.0,0.0,0.0,0.0,0.0,0.0,0.0,0.0,0.0,0.0,0.0,0.0,0.0,0.0,0.0,0.0,0.0,0.0,0.0,0.0,0.0,0.0,0.0,0.0,0.0,0.0,0.0,0.0,0.0,0.0,0.0,0.0,0.0,0.0,0.0,0.0,0.0,0.0,0.0,0.0,0.0,0.0,0.0,0.0,0.0,0.0,0.0,0.0,0.0,0.0,0.0,0.0,0.0,0.0,0.0,0.0,0.0,0.0,0.0,0.0,0.0,0.0,0.0,0.0,0.0,0.0,0.0,0.0,0.0,0.0,0.0,-1.9049,-2.099,-2.2981,-2.4209,-2.5333,-2.6393,-2.6165,-2.5665,-2.5256,-2.4148,0.0,0.0,0.0,0.0,0.0,0.0,0.0,0.0,0.0,0.0,0.0,0.0,0.0,0.0,0.0,0.0,0.0,0.0,0.0,0.0,0.0,0.0,0.0,0.0,0.0,0.0,0.0,0.0,0.0,0.0,0.0,0.0,0.0,0.0,0.0,0.0,0.0,0.0,0.0,0.0,0.0,0.0,0.0,0.0,0.0,0.0,0.0,0.0,0.0,0.0,0.0,0.0,0.0,0.0,0.0,0.0,0.0,0.0,0.0,0.0,0.0,0.0,0.0,0.0,0.0,0.0,0.0,0.0,0.0,0.0,0.0,0.0,0.0,0.0,0.0,0.0,0.0,0.0,0.0,0.0,0.0,0.0,0.0,0.0,0.0,0.0,0.0,0.0,0.0,0.0,0.0,0.0,0.0,0.0,0.0,0.0,0.0,0.0,0.0,0.0,0.0,0.0,-1.9792,-2.1691,-2.4024,-2.4966,-2.5643,-2.6416,-2.6307,-2.5891,-2.5231,-2.4307,0.0,0.0,0.0,0.0,0.0,0.0,0.0,0.0,0.0,0.0,0.0,0.0,0.0,0.0,0.0,0.0,0.0,0.0,0.0,0.0,0.0,0.0,0.0,0.0,0.0,0.0,0.0,0.0,0.0,0.0,0.0,0.0,0.0,0.0,0.0,0.0,0.0,0.0,0.0,0.0,0.0,0.0,0.0,0.0,0.0,0.0,0.0,0.0,0.0,0.0,0.0,0.0,0.0,0.0,0.0,0.0,0.0,0.0,0.0,0.0,0.0,0.0,0.0,0.0,0.0,0.0,0.0,0.0,0.0,0.0,0.0,0.0,0.0,0.0,0.0,0.0,0.0,0.0,0.0,0.0,0.0,0.0,0.0,0.0,0.0,0.0,0.0,0.0,0.0,0.0,0.0,0.0,0.0,0.0,0.0,0.0,0.0,0.0,0.0,0.0,0.0,0.0,-2.0441,-2.2466,-2.4448,-2.5475,-2.636,-2.7099,-2.6814,-2.6441,-2.6062,0.0,0.0,0.0,0.0,0.0,0.0,0.0,0.0,0.0,0.0,0.0,0.0,0.0,0.0,0.0,0.0,0.0,0.0,0.0,0.0,0.0,0.0,0.0,0.0,0.0,0.0,0.0,0.0,0.0,0.0,0.0,0.0,0.0,0.0,0.0,0.0,0.0,0.0,0.0,0.0,0.0,0.0,0.0,0.0,0.0,0.0,0.0,0.0,0.0,0.0,0.0,0.0,0.0,0.0,0.0,0.0,0.0,0.0,0.0,0.0,0.0,0.0,0.0,0.0,0.0,0.0,0.0,0.0,0.0,0.0,0.0,0.0,0.0,0.0,0.0,0.0,0.0,0.0,0.0,0.0,0.0,0.0,0.0,0.0,0.0,0.0,0.0,0.0,0.0,0.0,0.0,0.0,0.0,0.0,0.0,0.0,0.0,0.0,0.0,0.0,0.0,0.0,-1.9154,-2.1186,-2.3229,-2.526,-2.6166,-2.686,-2.7617,-2.717,-2.6605,-2.6135,0.0,0.0,0.0,0.0,0.0,0.0,0.0,0.0,0.0,0.0,0.0,0.0,0.0,0.0,0.0,0.0,0.0,0.0,0.0,0.0,0.0,0.0,0.0,0.0,0.0,0.0,0.0,0.0,0.0,0.0,0.0,0.0,0.0,0.0,0.0,0.0,0.0,0.0,0.0,0.0,0.0,0.0,0.0,0.0,0.0,0.0,0.0,0.0,0.0,0.0,0.0,0.0,0.0,0.0,0.0,0.0,0.0,0.0,0.0,0.0,0.0,0.0,0.0,0.0,0.0,0.0,0.0,0.0,0.0,0.0,0.0,0.0,0.0,0.0,0.0,0.0,0.0,0.0,0.0,0.0,0.0,0.0,0.0,0.0,0.0,0.0,0.0,0.0,0.0,0.0,0.0,0.0,0.0,0.0,0.0,0.0,0.0,0.0,0.0,0.0,0.0,0.0,-2.0411,-2.2092,-2.4111,-2.6651,-2.6798,-2.711,-2.7928,-2.7149,-2.6177,0.0,0.0,0.0,0.0,0.0,0.0,0.0,0.0,0.0,0.0,0.0,0.0,0.0,0.0,0.0,0.0,0.0,0.0,0.0,0.0,0.0,0.0,0.0,0.0,0.0,0.0,0.0,0.0,0.0,0.0,0.0,0.0,0.0,0.0,0.0,0.0,0.0,0.0,0.0,0.0,0.0,0.0,0.0,0.0,0.0,0.0,0.0,0.0,0.0,0.0,0.0,0.0,0.0,0.0,0.0,0.0,0.0,0.0,0.0,0.0,0.0,0.0,0.0,0.0,0.0,0.0,0.0,0.0,0.0,0.0,0.0,0.0,0.0,0.0,0.0,0.0,0.0,0.0,0.0,0.0,0.0,0.0,0.0,0.0,0.0,0.0,0.0,0.0,0.0,0.0,0.0,0.0,0.0,0.0,0.0,0.0,0.0,0.0,0.0,0.0,0.0,0.0,0.0,-2.0207,-2.2766,-2.4826,-2.6102,-2.6923,-2.7578,-2.7953,-2.7275,-2.6506,-2.5884,0.0,0.0,0.0,0.0,0.0,0.0,0.0,0.0,0.0,0.0,0.0,0.0,0.0,0.0,0.0,0.0,0.0,0.0,0.0,0.0,0.0,0.0,0.0,0.0,0.0,0.0,0.0,0.0,0.0,0.0,0.0,0.0,0.0,0.0,0.0,0.0,0.0,0.0,0.0,0.0,0.0,0.0,0.0,0.0,0.0,0.0,0.0,0.0,0.0,0.0,0.0,0.0,0.0,0.0,0.0,0.0,0.0,0.0,0.0,0.0,0.0,0.0,0.0,0.0,0.0,0.0,0.0,0.0,0.0,0.0,0.0,0.0,0.0,0.0,0.0,0.0,0.0,0.0,0.0,0.0,0.0,0.0,0.0,0.0,0.0,0.0,0.0,0.0,0.0,0.0,0.0,0.0,0.0,0.0,0.0,0.0,0.0,0.0,0.0,0.0,0.0,0.0,-2.0952,-2.3062,-2.4961,-2.6419,-2.7176,-2.7688,-2.7988,-2.7461,-2.6707,-2.6003,0.0,0.0,0.0,0.0,0.0,0.0,0.0,0.0,0.0,0.0,0.0,0.0,0.0,0.0,0.0,0.0,0.0,0.0,0.0,0.0,0.0,0.0,0.0,0.0,0.0,0.0,0.0,0.0,0.0,0.0,0.0,0.0,0.0,0.0,0.0,0.0,0.0,0.0,0.0,0.0,0.0,0.0,0.0,0.0,0.0,0.0,0.0,0.0,0.0,0.0,0.0,0.0,0.0,0.0,0.0,0.0,0.0,0.0,0.0,0.0,0.0,0.0,0.0,0.0,0.0,0.0,0.0,0.0,0.0,0.0,0.0,0.0,0.0,0.0,0.0,0.0,0.0,0.0,0.0,0.0,0.0,0.0,0.0,0.0,0.0,0.0,0.0,0.0,0.0,0.0,0.0,0.0,0.0,0.0,0.0,0.0,0.0,0.0,0.0,0.0,0.0,0.0,-2.2199,-2.3271,-2.4834,-2.7044,-2.7398,-2.761,-2.7985,-2.754,-2.6827,-2.572,0.0,0.0,0.0,0.0,0.0,0.0,0.0,0.0,0.0,0.0,0.0,0.0,0.0,0.0,0.0,0.0,0.0,0.0,0.0,0.0,0.0,0.0,0.0,0.0,0.0,0.0,0.0,0.0,0.0,0.0,0.0,0.0,0.0,0.0,0.0,0.0,0.0,0.0,0.0,0.0,0.0,0.0,0.0,0.0,0.0,0.0,0.0,0.0,0.0,0.0,0.0,0.0,0.0,0.0,0.0,0.0,0.0,0.0,0.0,0.0,-1.3945,-1.369,0.0,0.0,0.0,0.0,0.0,0.0,0.0,0.0,0.0,0.0,0.0,0.0,0.0,0.0,0.0,0.0,0.0,0.0,0.0,0.0,0.0,0.0,0.0,0.0,0.0,0.0,0.0,0.0,0.0,0.0,0.0,0.0,0.0,0.0,0.0,0.0,0.0,0.0,0.0,0.0,-2.1579,-2.3664,-2.5264,-2.5925,-2.6794,-2.7431,-2.7525,-2.7064,-2.634,-2.5183,-2.4317,0.0,0.0,0.0,0.0,0.0,0.0,0.0,0.0,0.0,0.0,0.0,0.0,0.0,0.0,0.0,0.0,0.0,0.0,0.0,0.0,0.0,0.0,0.0,0.0,0.0,0.0,0.0,0.0,0.0,0.0,0.0,0.0,0.0,0.0,0.0,0.0,0.0,0.0,0.0,0.0,0.0,0.0,0.0,0.0,0.0,0.0,0.0,0.0,0.0,0.0,0.0,0.0,0.0,0.0,0.0,0.0,0.0,0.0,0.0,-1.5656,-1.522,0.0,0.0,0.0,0.0,0.0,0.0,0.0,0.0,0.0,0.0,0.0,0.0,0.0,0.0,0.0,0.0,0.0,0.0,0.0,0.0,0.0,0.0,0.0,0.0,0.0,0.0,0.0,0.0,0.0,0.0,0.0,0.0,0.0,0.0,0.0,0.0,0.0,0.0,0.0,0.0,-2.1698,-2.3305,-2.4721,-2.5722,-2.6171,-2.657,-2.7066,-2.6692,-2.6029,-2.5035,-2.424,0.0,0.0,0.0,0.0,0.0,0.0,0.0,0.0,0.0,0.0,0.0,0.0,0.0,0.0,0.0,0.0,0.0,0.0,0.0,0.0,0.0,0.0,0.0,0.0,0.0,0.0,0.0,0.0,0.0,0.0,0.0,0.0,0.0,0.0,0.0,0.0,0.0,0.0,0.0,0.0,0.0,0.0,0.0,0.0,0.0,0.0,0.0,0.0,0.0,0.0,0.0,0.0,0.0,-1.6762,-1.7323,-1.7659,-1.814,-1.8457,-1.8411,-1.7362,-1.6927,-1.6914,-1.7,0.0,0.0,0.0,0.0,0.0,0.0,0.0,0.0,0.0,0.0,0.0,0.0,0.0,0.0,0.0,0.0,0.0,0.0,0.0,0.0,0.0,0.0,-1.838,-1.8995,-1.9143,-1.9122,-1.8955,0.0,0.0,0.0,0.0,0.0,0.0,0.0,0.0,0.0,0.0,0.0,-2.1948,-2.284,-2.398,-2.5432,-2.548,-2.5691,-2.6414,-2.6235,-2.5645,-2.4716,-2.4126,-2.3384,0.0,0.0,0.0,0.0,0.0,0.0,0.0,0.0,0.0,0.0,0.0,0.0,0.0,0.0,0.0,0.0,0.0,0.0,0.0,0.0,0.0,0.0,0.0,0.0,0.0,0.0,0.0,0.0,0.0,0.0,0.0,0.0,-0.5474,-0.5421,0.0,0.0,0.0,0.0,0.0,0.0,0.0,0.0,0.0,0.0,0.0,0.0,0.0,-1.5053,-1.5861,-1.6584,-1.7271,-1.7938,-1.8233,-1.8621,-1.8903,-1.9233,-1.9353,-1.9346,-1.939,0.0,-1.824,-1.843,0.0,0.0,0.0,0.0,0.0,0.0,0.0,0.0,0.0,0.0,0.0,0.0,0.0,0.0,0.0,0.0,0.0,0.0,0.0,0.0,0.0,0.0,-1.8393,-1.8977,-1.9067,-1.9302,-2.0101,-1.9714,-1.9272,-1.943,-1.9399,-1.9491,0.0,0.0,0.0,0.0,0.0,0.0,-2.1845,-2.279,-2.3528,-2.4089,-2.4524,-2.4986,-2.5185,-2.5218,-2.4739,-2.3777,-2.3407,-2.2546,-2.0946,-2.0187,0.0,0.0,0.0,0.0,0.0,0.0,0.0,0.0,0.0,0.0,0.0,0.0,0.0,0.0,0.0,0.0,0.0,0.0,0.0,0.0,0.0,0.0,0.0,0.0,0.0,0.0,0.0,0.0,0.0,-0.5981,-0.6261,-0.6503,-0.6897,-0.7354,0.0,0.0,0.0,0.0,0.0,0.0,0.0,0.0,0.0,-1.5156,-1.6134,-1.6921,-1.7384,-1.8048,-1.8674,-1.9253,-1.956,-2.0031,-2.0358,-2.0751,-2.0941,-2.0941,-2.1044,-2.0861,-2.0419,-1.9733,-1.932,-1.9177,0.0,0.0,0.0,0.0,-1.8769,-1.8769,-1.8683,-1.8683,-1.8683,-1.8683,0.0,0.0,0.0,0.0,0.0,0.0,0.0,-1.7202,-1.768,-1.7914,-1.8252,-1.8844,-1.9063,-1.9355,-1.9736,-1.9713,-1.9736,-2.0024,-1.9805,-1.9703,-2.0033,-1.9975,0.0,0.0,0.0,-2.1158,-2.1439,-2.227,-2.3196,-2.3886,-2.4221,-2.4564,-2.4922,-2.482,-2.4444,-2.3561,-2.3141,-2.2355,-2.1088,-2.0152,-1.9309,0.0,0.0,0.0,0.0,0.0,0.0,0.0,0.0,0.0,0.0,0.0,0.0,0.0,0.0,0.0,0.0,0.0,0.0,0.0,0.0,0.0,0.0,0.0,0.0,0.0,0.0,0.0,0.0,-0.6648,-0.7046,-0.745,-0.7944,-0.8449,0.0,0.0,0.0,0.0,0.0,0.0,-1.3854,-1.4969,-1.6026,-1.675,-1.7772,-1.8506,-1.8874,-1.9315,-1.9853,-2.0389,-2.0662,-2.0919,-2.1372,-2.1624,-2.1742,-2.1742,-2.1742,-2.1742,-2.1663,-2.0829,-2.0345,-2.0265,-2.0174,-2.0063,-1.9913,-1.9712,-1.9589,-1.9429,-1.933,-1.9261,-1.9162,-1.9055,-1.8755,-1.8447,-1.8354,0.0,0.0,0.0,0.0,-1.6834,-1.7258,-1.7589,-1.7963,-1.8655,-1.9013,-1.9284,-1.9443,-1.9656,-1.9932,-2.0434,-2.0204,-2.0033,-2.023,-2.0165,0.0,-2.0234,-2.0712,-2.1026,-2.1307,-2.1975,-2.2754,-2.3695,-2.3821,-2.3936,-2.4438,-2.4201,-2.3811,-2.3289,-2.2688,-2.2012,-2.1291,-2.0361,-1.9317,-1.8435,0.0,0.0,0.0,0.0,0.0,0.0,0.0,0.0,0.0,0.0,0.0,0.0,0.0,0.0,0.0,0.0,0.0,0.0,0.0,0.0,0.0,0.0,0.0,0.0,0.0,0.0,0.0,0.0,0.0,-0.8053,-0.8813,0.0,0.0,0.0,0.0,-1.2342,-1.3597,-1.4615,-1.5475,-1.6546,-1.7433,-1.8218,-1.907,-1.9821,-2.0451,-2.0794,-2.1121,-2.1448,-2.114,-2.1055,-2.1078,-2.1086,-2.1101,-2.1101,-2.1101,-2.1101,-2.1202,-2.1663,-2.1663,-2.1265,-2.1063,-2.056,-2.0015,-1.9933,-1.9747,-1.952,-1.9538,-1.9546,-1.9443,-1.8909,-1.838,-1.7857,-1.766,-1.7529,0.0,0.0,-1.6844,-1.7049,-1.708,-1.7086,-1.7447,-1.8577,-1.8822,-1.9096,-1.9887,-1.9912,-1.976,-2.0102,-2.0452,-2.0635,-2.0581,0.0,-2.049,-2.0541,-2.0478,-2.094,-2.1888,-2.1991,-2.2249,-2.2951,-2.2993,-2.3007,-2.3159,-2.3028,-2.2897,-2.2504,-2.2096,-2.1569,-2.0526,-2.0234,-1.9328,-1.7811,-1.7417,0.0,0.0,0.0,0.0,0.0,0.0,0.0,0.0,0.0,0.0,0.0,0.0,0.0,0.0,0.0,0.0,0.0,0.0,0.0,0.0,0.0,0.0,0.0,0.0,0.0,0.0,0.0,0.0,-0.8845,-0.9452,0.0,-1.1035,-1.1817,-1.2707,-1.3626,-1.4555,-1.5506,-1.6484,-1.7472,-1.8404,-1.9227,-1.9859,-2.0408,-2.0963,-2.0972,-2.1202,-2.1532,-2.1421,-2.1536,-2.175,-2.175,-2.175,-2.175,-2.175,-2.175,-2.175,-2.1973,-2.1751,-2.1248,-2.114,-2.0773,-2.0363,-2.0163,-1.9927,-1.9626,-1.9413,-1.9456,-1.9348,-1.8699,-1.8265,-1.7823,-1.7174,-1.6913,-1.6765,-1.6216,-1.6057,-1.628,-1.6445,-1.673,-1.7175,-1.7766,-1.8344,-1.8759,-1.9082,-1.9401,-1.973,-1.9883,-1.9765,-1.985,-2.0217,-2.0302,-2.0333,-2.067,-2.0734,-2.0942,-2.1274,-2.1463,-2.1746,-2.2251,-2.2432,-2.2539,-2.2539,-2.2539,-2.241,-2.2004,-2.1693,-2.1206,-2.041,-1.9961,-1.9172,-1.7913,-1.7404,-1.6664,0.0,0.0,0.0,0.0,0.0,0.0,0.0,0.0,0.0,0.0,0.0,0.0,0.0,0.0,0.0,0.0,0.0,0.0,0.0,0.0,0.0,0.0,0.0,0.0,0.0,-0.8338,-0.8917,-0.9411,-1.0159,-1.0938,-1.1693,-1.2666,-1.3699,-1.4564,-1.5419,-1.6406,-1.7306,-1.8206,-1.895,-1.9692,-2.0214,-2.0604,-2.094,-2.0935,-2.11,-2.1317,-2.1204,-2.1323,-2.1539,-2.1539,-2.1539,-2.1539,-2.1539,-2.1539,-2.1539,-2.1539,-2.1279,-2.0885,-2.0995,-2.0818,-2.0398,-2.0294,-1.9932,-1.9521,-1.9284,-1.9095,-1.8982,-1.8546,-1.8094,-1.7748,-1.7067,-1.6732,-1.6515,-1.6039,-1.5946,-1.6003,-1.6245,-1.6669,-1.6983,-1.7358,-1.7913,-1.8309,-1.8392,-1.8937,-1.9354,-1.9447,-1.9556,-1.9669,-2.0055,-2.02,-2.0285,-2.0609,-2.0753,-2.0847,-2.1069,-2.132,-2.1634,-2.2048,-2.2354,-2.2425,-2.2322,-2.2315,-2.2138,-2.1772,-2.1451,-2.0915,-2.0281,-1.97,-1.8912,-1.7787,-1.7075,-1.6039,-1.4943,0.0,0.0,0.0,0.0,0.0,0.0,0.0,0.0,0.0,0.0,0.0,0.0,0.0,0.0,0.0,0.0,0.0,0.0,0.0,0.0,0.0,0.0,0.0,-0.8658,-0.9061,-0.9442,-0.9917,-1.1114,-1.1986,-1.2001,-1.3407,-1.4508,-1.5029,-1.6215,-1.712,-1.7925,-1.8538,-1.9168,-1.9697,-1.9989,-2.0377,-2.0623,-2.0687,-2.0601,-2.0601,-2.0385,-2.027,-2.027,-2.027,-2.027,-2.027,-2.027,-2.0277,-2.0284,-2.0284,-2.0291,-2.0298,-2.0996,-2.0793,-2.0195,-2.0301,-1.988,-1.9219,-1.9041,-1.8674,-1.8447,-1.8447,-1.7978,-1.7509,-1.7509,-1.7032,-1.6493,-1.6381,-1.6447,-1.6503,-1.6736,-1.6802,-1.6869,-1.7479,-1.7547,-1.7615,-1.7982,-1.8308,-1.8659,-1.8906,-1.975,-2.0415,-2.003,-2.0247,-2.0386,-2.0397,-2.0521,0.0,-2.1451,-2.187,-2.2188,-2.2475,-2.2618,-2.2504,-2.2217,-2.2186,-2.2065,-2.1798,-2.1358,-2.0829,-1.9881,-1.9596,-1.8691,-1.754,-1.6045,-1.4958,-1.401,0.0,0.0,0.0,0.0,0.0,0.0,0.0,0.0,0.0,0.0,0.0,0.0,0.0,0.0,0.0,0.0,0.0,0.0,0.0,0.0,0.0,-0.8865,-0.9042,-0.8948,-0.9468,-1.0075,-1.0614,-1.1482,-1.2205,-1.2633,-1.4019,-1.5153,-1.5674,-1.6528,-1.738,-1.823,-1.8628,-1.9159,-1.9794,-1.987,-1.9915,-2.0037,-1.9754,-1.9673,-1.9673,-1.9557,-1.9564,-1.9564,-1.9564,-1.9564,-1.9564,-1.9564,-1.9692,-1.9902,-1.9902,-1.9912,-1.9854,-2.0344,-2.0199,-1.9814,-1.988,-1.9574,-1.927,-1.9107,-1.8778,-1.8307,-1.8307,-1.7821,-1.7335,-1.7085,-1.6836,-1.6608,-1.644,-1.6339,-1.6231,-1.6161,-1.6175,-1.6313,-1.6503,-1.6908,-1.7312,-1.7512,-1.8063,-1.8478,-1.8547,-1.9119,-1.9646,-2.019,-2.0257,-2.0458,-2.0774,-2.0907,-2.1193,-2.1466,-2.1576,-2.1618,-2.1762,-2.1606,-2.1282,-2.1204,-2.074,-2.0462,-2.0392,-2.0204,-1.9731,-1.909,-1.853,-1.763,-1.6504,-1.5302,-1.475,0.0,0.0,0.0,0.0,0.0,0.0,0.0,0.0,0.0,0.0,0.0,0.0,0.0,0.0,0.0,0.0,0.0,0.0,0.0,0.0,0.0,0.0,-0.9175,-0.9588,-0.9578,-1.0126,-1.0642,-1.0974,-1.173,-1.2439,-1.3105,-1.4218,-1.5132,-1.5769,-1.6507,-1.7185,-1.7972,-1.8372,-1.8744,-1.9199,-1.9259,-1.9113,-1.8991,-1.8861,-1.8687,-1.8692,-1.8692,-1.8756,-1.8877,-1.8877,-1.8877,-1.8877,-1.8877,-1.8973,-1.9013,-1.9013,-1.9114,-1.912,0.0,0.0,0.0,0.0,-1.8888,-1.8759,-1.8515,-1.8159,-1.7796,-1.7796,-1.7543,-1.705,-1.692,-1.6673,-1.6577,-1.63,-1.6202,-1.6097,-1.5944,-1.5936,-1.6028,-1.6028,-1.6389,-1.6618,-1.7017,-1.7598,-1.8066,-1.8299,-1.8766,0.0,-1.9863,-2.0024,-2.016,-2.0574,-2.0728,-2.0893,-2.1159,-2.1295,-2.1366,-2.1366,-2.1067,-2.0868,-2.0904,-2.037,0.0,0.0,0.0,-1.9042,-1.8143,-1.7395,0.0,0.0,0.0,-1.4354,-1.3974,-1.3151,0.0,0.0,-1.1959,-1.178,0.0,0.0,0.0,0.0,0.0,0.0,0.0,0.0,0.0,0.0,0.0,0.0,0.0,0.0,0.0,0.0,-0.9458,-1.0082,-1.0479,-1.0816,-1.1033,-1.1307,-1.2132,-1.2797,-1.3335,-1.413,-1.4809,-1.5569,-1.6191,-1.6762,-1.7334,-1.7703,0.0,0.0,0.0,-1.8058,-1.7812,-1.7726,-1.7748,-1.7625,-1.7655,-1.7798,-1.7913,-1.7913,-1.7913,-1.7913,-1.7913,-1.7931,-1.8077,-1.8077,-1.8101,-1.8119,-1.9195,-1.9318,-1.8969,-1.8366,-1.8125,-1.8125,-1.7506,0.0,0.0,-1.7264,-1.7134,-1.6874,-1.6874,-1.6637,-1.6311,-1.6123,-1.6175,-1.61,-1.5918,-1.5974,-1.5974,-1.5974,-1.5974,-1.6104,-1.6369,-1.6965,-1.7475,-1.7943,-1.8614,-1.9146,-1.9362,-1.9541,-1.9632,-1.9889,-2.014,-2.0392,-2.0637,-2.09,-2.1066,-2.1066,-2.0915,0.0,-2.0541,-2.0151,-1.9904,-1.9661,-1.9071,-1.8291,-1.7188,-1.6338,-1.5583,-1.48,-1.4613,-1.401,-1.3113,-1.2825,-1.2623,-1.2238,-1.2324,-1.2308,0.0,0.0,0.0,0.0,0.0,0.0,0.0,0.0,0.0,0.0,0.0,0.0,0.0,0.0,0.0,-0.921,-0.9709,-1.0158,-1.0574,-1.1041,-1.15,-1.1873,-1.2423,-1.2905,-1.3221,-1.4174,-1.4782,-1.494,-1.5693,-1.6289,-1.6692,-1.7043,-1.7301,-1.7713,-1.7355,-1.7232,-1.7226,-1.6856,-1.6622,-1.6678,-1.6508,0.0,-1.6555,-1.6555,-1.6555,-1.6555,-1.6555,-1.6664,-1.6965,-1.6965,-1.7075,-1.7357,-1.804,-1.8339,-1.8273,-1.8146,-1.8018,-1.8018,-1.7891,-1.7646,-1.7524,-1.7524,-1.7257,-1.6995,-1.6995,-1.6744,0.0,-1.6421,-1.6167,-1.5918,-1.5714,-1.5593,-1.5593,-1.5593,-1.5593,-1.5724,-1.5974,-1.642,-1.6856,-1.6897,-1.7649,-1.8089,-1.7861,-1.8843,-1.9632,-1.9889,-2.014,-2.0392,-2.0637,-2.09,-2.091,-2.0592,-2.0296,-1.9892,-1.9351,-1.8686,-1.8316,-1.8083,-1.7503,-1.6858,-1.636,-1.5546,-1.4931,-1.4534,-1.3979,-1.3574,-1.3316,-1.2751,-1.2342,-1.2334,-1.231,-1.2308,0.0,0.0,0.0,0.0,0.0,0.0,0.0,0.0,0.0,0.0,0.0,-0.609,-0.6707,0.0,-0.8074,-0.8873,-0.9406,-0.9892,-1.0317,-1.0843,-1.13,-1.1783,-1.2234,-1.2608,-1.3041,-1.349,-1.401,-1.4478,-1.5048,-1.5461,-1.5822,-1.6177,-1.6419,-1.6537,-1.6419,-1.6239,-1.6242,-1.6008,-1.5948,-1.6058,-1.5925,-1.5913,-1.6149,-1.6149,-1.6149,-1.6149,-1.6149,-1.6217,-1.6321,-1.6321,-1.6384,-1.6473,-1.6872,-1.7284,-1.7781,-1.7781,-1.7781,-1.7781,-1.7523,-1.7394,-1.7271,-1.7271,-1.7012,-1.6753,-1.6753,-1.6494,-1.6234,-1.6114,-1.5849,-1.5719,-1.5328,-1.5202,-1.5202,-1.5202,-1.5202,-1.5328,-1.5719,-1.6057,-1.6365,-1.6636,-1.7138,-1.7585,-1.7308,-1.8007,-1.8503,-1.8745,-1.888,-1.9042,-1.9284,-1.9526,-1.9671,-1.9361,-1.9211,-1.887,-1.8602,-1.8001,-1.738,-1.69,-1.6196,-1.5638,-1.5129,-1.4695,-1.4277,-1.3888,-1.363,-1.3235,-1.284,-1.2441,-1.2177,-1.2041,-1.2003,-1.2185,0.0,0.0,0.0,0.0,0.0,0.0,0.0,-0.3048,-0.3503,-0.3759,-0.4639,-0.5543,-0.596,-0.6738,-0.7508,-0.8285,-0.8838,-0.9353,-0.9906,-1.0391,-1.0708,-1.1214,-1.1667,-1.2147,-1.2547,-1.2713,-1.3036,-1.3799,-1.4157,-1.4391,-1.4753,-1.4997,-1.524,-1.524,-1.524,-1.523,-1.5095,-1.5146,-1.5122,-1.5263,-1.5302,-1.5411,-1.5578,-1.5578,-1.5578,-1.5578,-1.5578,-1.5578,-1.5578,-1.5578,-1.5578,-1.5578,-1.5709,-1.6229,-1.6882,-1.7141,-1.7271,-1.7141,-1.6877,-1.6748,-1.6748,-1.6748,-1.6623,-1.6369,-1.6369,-1.6109,-1.5844,-1.5463,-1.5332,-1.5202,-1.48,-1.467,-1.467,-1.467,-1.467,-1.48,-1.5071,-1.5495,-1.5769,-1.6084,-1.6545,-1.6831,-1.6875,-1.6885,-1.7086,-1.7546,-1.7607,-1.7703,-1.789,-1.8102,-1.809,-1.809,-1.7941,-1.7922,-1.7729,-1.7083,-1.6411,-1.5746,-1.5252,-1.4643,-1.4182,-1.3985,-1.3621,-1.3371,-1.3367,-1.2972,-1.2309,-1.2177,-1.2045,-1.1648,-1.1648,-1.178,-0.0476,-0.0095,0.0096,-0.0,-0.0595,-0.121,0.0,-0.1876,-0.2535,-0.2965,-0.3713,-0.4587,-0.5204,-0.5943,-0.6811,-0.8036,-0.841,-0.8743,-0.9327,-0.9824,-1.0155,-1.0119,-1.0969,-1.1472,-1.161,-1.1992,-1.2333,-1.2475,-1.296,-1.3324,-1.3444,-1.3684,-1.3928,-1.3928,-1.3928,-1.3903,-1.4104,-1.4051,-1.414,-1.4244,-1.4155,-1.4119,-1.4137,-1.4137,-1.4137,-1.4137,-1.4137,-1.4137,-1.4137,-1.4137,-1.4137,-1.4137,-1.4403,-1.4665,-1.4796,-1.5839,-1.6234,-1.6104,-1.6099,-1.6104,-1.6104,-1.6104,-1.6104,-1.6104,-1.6104,-1.5849,-1.5463,-1.5066,-1.48,-1.4403,-1.4141,-1.401,-1.401,-1.401,-1.401,-1.401,-1.401,-1.4183,-1.4526,-1.4697,-1.5178,-1.5528,-1.5301,-1.5607,-1.6178,-1.7203,-1.7511,-1.7647,-1.7672,-1.7573,-1.7419,-1.6987,-1.6688,-1.6319,-1.5704,-1.5489,-1.5128,-1.4906,-1.4702,-1.4507,-1.4182,-1.3729,-1.3498,-1.3371,-1.3104,-1.2704,-1.2309,-1.2045,-1.1648,-1.1247,-1.0986,-1.1251,0.207,0.2267,0.1976,0.1692,0.091,0.0205,0.0207,-0.0742,-0.1623,-0.1947,-0.2616,-0.3417,-0.437,-0.4974,-0.5707,-0.6955,-0.7304,-0.7735,-0.8446,-0.8919,-0.9125,-0.9372,-0.9734,-1.0212,-1.0928,-1.123,-1.1514,-1.1635,-1.1997,-1.2238,-1.2359,-1.2483,-1.2599,-1.2599,-1.2599,-1.2743,-1.2919,-1.2879,-1.3199,-1.3631,-1.3574,-1.3744,-1.3875,-1.3875,-1.3875,-1.3875,-1.3875,-1.3875,-1.3875,-1.3875,-1.3875,-1.3875,-1.401,-1.4141,-1.4272,-1.5318,-1.5709,-1.5709,-1.5969,-1.5974,-1.5974,-1.5974,-1.5844,-1.5724,-1.5724,-1.5328,-1.48,-1.467,-1.4403,-1.4137,-1.3875,-1.3875,-1.3875,-1.3875,-1.3875,-1.3875,-1.3875,-1.4033,-1.42,-1.4279,-1.4583,-1.4876,-1.4688,-1.484,-1.5117,-1.5667,-1.5953,-1.6163,-1.6163,-1.6197,-1.6181,-1.6036,-1.589,-1.5668,-1.5184,-1.4845,-1.4513,-1.4324,-1.3853,-1.3667,-1.3352,-1.3141,-1.3104,-1.3104,-1.2704,-1.2309,-1.2045,-1.1648,-1.1247,-1.0853,-1.0721,-1.0853,0.3836,0.3736,0.333,0.2725,0.2054,0.1567,0.1358,0.0322,-0.0661,-0.0881,-0.1667,-0.2474,-0.33,-0.4006,-0.4726,-0.5828,-0.6296,-0.6739,-0.7454,-0.7917,-0.8238,-0.8607,-0.8729,-0.9214,-1.0186,-1.0304,-1.0547,-1.0789,-1.091,-1.1152,-1.1394,-1.1514,-1.1514,-1.1514,-1.1514,-1.1658,-1.1964,-1.1964,-1.2246,-1.2808,-1.2808,-1.2942,-1.3202,-1.3202,-1.3202,-1.3202,-1.3202,-1.3227,-1.3274,-1.3274,-1.3303,-1.3354,-1.3354,-1.3354,-1.3486,-1.4268,-1.4791,-1.5052,-1.5313,-1.5448,-1.5448,-1.5448,-1.5323,-1.5066,-1.5066,-1.467,-1.4272,-1.4146,-1.4015,-1.3752,-1.3617,-1.3617,-1.3617,-1.3617,-1.3617,-1.3617,-1.3617,-1.3729,-1.3845,-1.3897,-1.4013,-1.4121,-1.4173,-1.4186,-1.4186,-1.4186,-1.4427,-1.4625,-1.496,-1.5136,-1.511,-1.4962,-1.4962,-1.4888,-1.4703,-1.4276,-1.3955,-1.3721,-1.3304,-1.3015,-1.2844,-1.2836,-1.2704,-1.2704,-1.2441,-1.2045,-1.1648,-1.1383,-1.0982,-1.0721,-1.0588,-1.0588,0.4336,0.4236,0.3833,0.333,0.3008,0.2555,0.1809,0.1203,0.0672,0.0112,-0.1009,-0.1795,-0.1908,-0.2843,-0.3908,-0.4598,-0.5311,-0.59,-0.6255,-0.695,-0.7508,-0.7872,-0.8236,-0.8601,-0.8976,-0.9217,-0.9335,-0.9335,-0.9943,-1.0304,-1.0304,-1.0668,-1.0789,-1.0789,-1.0789,-1.0871,-1.117,-1.1174,-1.126,-1.1307,-1.1307,-1.1307,-1.1434,-1.1434,-1.1434,-1.1434,-1.1434,-1.152,-1.1664,-1.1664,-1.1762,-1.1912,-1.1912,-1.1912,-1.1912,-1.2309,-1.3091,-1.4006,-1.401,-1.4006,-1.4006,-1.4006,-1.401,-1.4006,-1.4006,-1.3875,-1.3879,-1.3498,-1.3367,-1.3367,-1.2968,-1.2836,-1.2836,-1.2836,-1.2836,-1.2836,-1.2836,-1.284,-1.2893,-1.3059,-1.3096,-1.3161,-1.334,-1.3372,-1.3372,-1.3372,-1.338,-1.3725,-1.474,-1.4651,-1.434,-1.4051,-1.3908,-1.3839,-1.3669,-1.3648,-1.349,-1.3124,-1.3096,-1.3015,-1.2844,-1.2836,-1.2704,-1.2309,-1.2309,-1.1909,-1.1247,-1.1247,-1.0982,-1.0721,-1.0323,-1.0193,0.5236,0.4834,0.4435,0.4137,0.3598,0.2932,0.2408,0.1829,0.1323,0.0441,-0.0445,-0.1351,-0.1708,-0.252,-0.3344,-0.3965,-0.4475,-0.5097,-0.5806,-0.6072,-0.6448,-0.6924,-0.7161,-0.7277,-0.7633,-0.8503,-0.8976,-0.8976,-0.9217,-0.9339,-0.9339,-0.97,-0.9822,-0.9822,-1.0065,-1.026,-1.0418,-1.0422,-1.0628,-1.0915,-1.1165,-1.1292,-1.1292,-1.1292,-1.1292,-1.1292,-1.1292,-1.1322,-1.1381,-1.1486,-1.1694,-1.1624,-1.1735,-1.178,-1.178,-1.1912,-1.2173,-1.2568,-1.335,-1.3744,-1.3875,-1.3875,-1.3875,-1.3875,-1.3875,-1.3752,-1.3494,-1.3371,-1.3235,-1.2968,-1.2836,-1.2836,-1.2836,-1.2836,-1.2836,-1.2704,-1.2572,-1.2441,-1.2456,-1.225,-1.2257,-1.2277,-1.2335,-1.2346,-1.2385,-1.2489,-1.2741,-1.3157,-1.3616,-1.3412,-1.3208,-1.317,-1.3086,-1.3001,-1.2947,-1.2727,-1.2543,-1.2427,-1.2319,-1.2234,-1.2177,-1.2177,-1.2045,-1.1912,-1.1648,-1.1512,-1.1247,-1.0982,-1.0721,-1.0323,-1.019,-1.006,0.5927,0.5534,0.4935,0.4539,0.399,0.3424,0.2696,0.2335,0.1842,0.0867,-0.0109,-0.1108,-0.169,-0.2259,-0.2725,-0.3349,-0.3837,-0.4317,-0.5017,-0.5393,-0.5762,-0.623,-0.635,-0.6581,-0.693,-0.7773,-0.8368,-0.8415,-0.8584,-0.8735,-0.8735,-0.8973,-0.9217,-0.9335,-0.9457,-0.9747,-0.9968,-0.9968,-1.0139,-1.0492,-1.0614,-1.0739,-1.0739,-1.0739,-1.0739,-1.0739,-1.0739,-1.0771,-1.071,-1.0806,-1.0877,-1.0812,-1.0974,-1.1034,-1.1041,-1.0965,-1.1251,-1.1512,-1.2565,-1.3091,-1.3354,-1.3354,-1.3354,-1.3486,-1.3486,-1.3363,-1.3235,-1.3235,-1.2972,-1.2704,-1.2704,-1.2572,-1.2572,-1.2441,-1.2441,-1.2441,-1.2177,-1.2177,-1.2045,-1.178,-1.178,-1.178,-1.178,-1.178,-1.1814,-1.1914,-1.2157,-1.2331,-1.2765,-1.2659,-1.2578,-1.2734,-1.2611,-1.2492,-1.2432,-1.2171,-1.1989,-1.1933,-1.1836,-1.178,-1.178,-1.178,-1.178,-1.1648,-1.1383,-1.1115,-1.0986,-1.0721,-1.0455,-1.019,-0.9921,-0.9655,0.6495,0.6032,0.5436,0.4638,0.4293,0.383,0.2693,0.2522,0.2235,0.1065,-0.0,-0.0965,-0.1633,-0.1966,-0.2306,-0.2679,-0.3291,-0.3783,-0.413,-0.4768,-0.5284,-0.5631,-0.5866,-0.6219,-0.6565,-0.68,-0.7202,-0.7554,-0.8038,-0.8349,-0.8349,-0.872,-0.8964,-0.9204,-0.9332,-0.9457,-0.9822,-0.9822,-0.9822,-0.9822,-0.9822,-0.9822,-0.9822,-0.9822,-0.9822,-0.9822,-0.9819,-0.9661,-0.9545,-0.9555,-0.9506,-0.9255,-0.9392,-0.9444,-0.9462,-0.9594,-1.0038,-1.0697,-1.149,-1.1897,-1.2309,-1.2309,-1.2441,-1.2704,-1.2704,-1.2704,-1.2704,-1.2704,-1.2704,-1.2704,-1.2309,-1.2309,-1.2177,-1.1912,-1.178,-1.178,-1.178,-1.178,-1.178,-1.178,-1.178,-1.178,-1.178,-1.178,-1.178,-1.178,-1.1383,-1.1418,-1.2304,-1.2503,-1.2563,-1.2723,-1.26,-1.2436,-1.2268,-1.2097,-1.1937,-1.1791,-1.178,-1.178,-1.178,-1.178,-1.1516,-1.1115,-1.1118,-1.0986,-1.0721,-1.0323,-1.019,-1.019,-0.9386,-0.9117,0.6591,0.6072,0.5436,0.4834,0.4248,0.3452,0.2642,0.2476,0.1987,0.0523,-0.0317,-0.0961,-0.161,-0.1932,-0.2256,-0.259,-0.296,-0.3436,-0.3877,-0.438,-0.4766,-0.5106,-0.5334,-0.5675,-0.601,-0.6191,-0.6362,-0.6731,-0.7306,-0.7729,-0.7729,-0.8173,-0.8465,-0.8462,-0.9039,-0.9335,-0.9457,-0.97,-0.9822,-0.9822,-0.9822,-0.9822,-0.9822,-0.9822,-0.9822,-0.9822,-0.9579,-0.9358,-0.9403,-0.9265,-0.9206,-0.9123,-0.9252,-0.9304,-0.9307,-0.9343,-0.9484,-0.9742,-0.9867,-1.0791,-1.1912,-1.1912,-1.2177,-1.2441,-1.2441,-1.2441,-1.2441,-1.2441,-1.2309,-1.2045,-1.1912,-1.1912,-1.1912,-1.178,-1.178,-1.178,-1.138,-1.138,-1.1251,-1.0986,-1.0986,-1.0986,-1.0986,-1.0986,-1.0853,-1.0588,-1.0455,-1.0843,-1.1731,-1.1635,-1.1559,-1.1712,-1.1591,-1.1438,-1.1288,-1.1132,-1.1024,-1.0986,-1.0986,-1.0986,-1.0986,-1.0986,-1.0986,-1.085,-1.085,-1.0721,-1.0323,-1.019,-0.9924,-0.9383,-0.925,-0.8984,0.6745,0.6136,0.5305,0.4818,0.4157,0.3388,0.2693,0.2431,0.1951,0.0308,-0.0621,-0.1254,-0.158,-0.1898,-0.2113,-0.2554,-0.2795,-0.3029,-0.3569,-0.4032,-0.4395,-0.4652,-0.4989,-0.5224,-0.5596,-0.5762,-0.6016,-0.6129,-0.6842,-0.7282,-0.7282,-0.7699,-0.7974,-0.8089,-0.8515,-0.8941,-0.9242,-0.9667,-0.9822,-0.9822,-0.9822,-0.9822,-0.9822,-0.9822,-0.97,-0.9579,-0.9335,-0.9095,-0.8861,-0.8817,-0.86,-0.8364,-0.8486,-0.8405,-0.8408,-0.8591,-0.8742,-0.8872,-0.8997,-0.9739,-1.0791,-1.1123,-1.1537,-1.1945,-1.2022,-1.2045,-1.2045,-1.2045,-1.1912,-1.178,-1.1516,-1.1512,-1.1516,-1.1118,-1.1118,-1.0986,-1.0588,-1.0588,-1.0455,-1.0323,-1.0326,-1.0326,-1.0326,-1.0326,-1.0193,-1.006,-0.9927,-1.027,-1.0896,-1.0789,-1.0708,-1.0855,-1.0741,-1.062,-1.0406,-1.0404,-1.0326,-1.0326,-1.0326,-1.0326,-1.0326,-1.0326,-1.0326,-1.0326,-1.0326,-1.0193,-0.9927,-0.9788,-0.9519,-0.9117,-0.8984,-0.8717,0.6689,0.6072,0.514,0.4761,0.4053,0.3325,0.274,0.238,0.1805,0.0401,-0.0802,-0.1614,-0.1645,-0.165,-0.1867,-0.2427,-0.2544,-0.2762,-0.3295,-0.3723,-0.3962,-0.4351,-0.4573,-0.4931,-0.5242,-0.5582,-0.5697,-0.571,-0.6434,-0.7,-0.7,-0.7251,-0.7619,-0.7982,-0.7982,-0.8392,-0.9238,-0.9607,-0.9802,-0.9822,-0.9822,-0.9822,-0.9822,-0.9822,-0.9579,-0.9335,-0.9217,-0.8973,-0.8369,-0.8369,-0.8,-0.7396,-0.7495,-0.7406,-0.7166,-0.7509,-0.7803,-0.8187,-0.8568,-0.8819,-0.9351,-1.0151,-1.0862,-1.1427,-1.1702,-1.1762,-1.1648,-1.1648,-1.1648,-1.1516,-1.1115,-1.0982,-1.0853,-1.0326,-1.019,-1.006,-0.9794,-0.9661,-0.9661,-0.9661,-0.9661,-0.9661,-0.9661,-0.9661,-0.9661,-0.9661,-0.9661,-0.9701,-0.9676,-0.9841,-0.9899,-1.0019,-0.9924,-0.9847,-0.9829,-0.9725,-0.9661,-0.9661,-0.9661,-0.9661,-0.9661,-0.9661,-0.9661,-0.9661,-0.9661,-0.9661,-0.9661,-0.9253,-0.9117,-0.8984,-0.872,-0.8587,0.6397,0.5823,0.514,0.4761,0.382,0.297,0.2494,0.1731,0.0963,0.0482,-0.0578,-0.1551,-0.1581,-0.1588,-0.1796,-0.2336,-0.2477,-0.2711,-0.3232,-0.3695,-0.3945,-0.3956,-0.4383,-0.4734,-0.4928,-0.5156,-0.5298,-0.5487,-0.5855,-0.621,-0.6771,-0.6863,-0.73,-0.7976,-0.7982,-0.8392,-0.9238,-0.9268,-0.9456,-0.9822,-0.9822,-0.9822,-0.9822,-0.9822,-0.9579,-0.9335,-0.9095,-0.8732,-0.8369,-0.8119,-0.7752,-0.7388,-0.7408,-0.717,-0.6929,-0.7069,-0.72,-0.7567,-0.7567,-0.806,-0.872,-0.9586,-1.026,-1.0757,-1.1044,-1.1275,-1.1247,-1.0986,-1.0721,-1.0455,-1.006,-0.9927,-0.9927,-0.9794,-0.9794,-0.9797,-0.9664,-0.9661,-0.9661,-0.9661,-0.9661,-0.9661,-0.9661,-0.9661,-0.9528,-0.9253,-0.9253,-0.9125,-0.8884,-0.9514,-0.9863,-0.9887,-0.9866,-0.9811,-0.9704,-0.9676,-0.9661,-0.9661,-0.9661,-0.9661,-0.9661,-0.9661,-0.9661,-0.9661,-0.9661,-0.9525,-0.9253,-0.9117,-0.8984,-0.872,-0.8587,-0.8587,0.6175,0.5673,0.5071,0.4708,0.3908,0.3003,0.2254,0.1609,0.0954,0.0286,-0.0286,-0.0861,-0.1449,-0.1548,-0.1747,-0.2056,-0.2273,-0.2593,-0.3021,-0.3251,-0.36,-0.3771,-0.4093,-0.4332,-0.4732,-0.4847,-0.4994,-0.5304,-0.5418,-0.5658,-0.6154,-0.6542,-0.7045,-0.7553,-0.7732,-0.8141,-0.8674,-0.8981,-0.9206,-0.971,-0.971,-0.9747,-0.9822,-0.9822,-0.9579,-0.9335,-0.8976,-0.8735,-0.8369,-0.7997,-0.775,-0.7385,-0.7266,-0.6898,-0.6653,-0.6778,-0.7023,-0.7143,-0.7508,-0.7875,-0.8261,-0.8877,-0.939,-0.9784,-1.0187,-1.0283,-1.0356,-1.017,-1.006,-0.9927,-0.9794,-0.9661,-0.9661,-0.9389,-0.9256,-0.9125,-0.9125,-0.9125,-0.9125,-0.9125,-0.9125,-0.9125,-0.9125,-0.8992,-0.8859,-0.8587,-0.8454,-0.8189,-0.8056,-0.837,-0.8677,-0.8943,-0.8808,-0.8655,-0.8598,-0.8595,-0.8592,-0.8862,-0.8859,-0.8992,-0.9123,-0.9125,-0.9125,-0.9125,-0.9125,-0.8989,-0.8851,-0.8851,-0.872,-0.8587,-0.8587,-0.8587,0.5994,0.5547,0.5013,0.4748,0.3993,0.3124,0.2298,0.1768,0.1224,0.0282,-0.0,-0.0283,-0.1041,-0.1421,-0.1614,-0.1811,-0.2004,-0.2302,-0.2723,-0.2935,-0.3174,-0.3574,-0.3701,-0.3943,-0.4434,-0.4654,-0.4796,-0.51,-0.5124,-0.5393,-0.5931,-0.6381,-0.6824,-0.7154,-0.7469,-0.7876,-0.8253,-0.859,-0.9062,-0.9561,-0.9595,-0.9666,-0.9778,-0.9805,-0.9579,-0.9335,-0.9098,-0.8854,-0.8491,-0.8119,-0.775,-0.7508,-0.7143,-0.6775,-0.6528,-0.6775,-0.69,-0.7021,-0.763,-0.7872,-0.7994,-0.8244,-0.8576,-0.9096,-0.9307,-0.941,-0.9481,-0.9456,-0.9504,-0.9395,-0.9262,-0.9262,-0.9125,-0.8853,-0.8587,-0.8323,-0.8323,-0.8323,-0.8323,-0.8323,-0.8323,-0.8323,-0.8323,-0.8192,-0.7925,-0.7925,-0.766,-0.7526,-0.7526,-0.7393,-0.7524,-0.7791,-0.7658,-0.7526,-0.7526,-0.7526,-0.766,-0.7925,-0.7925,-0.8058,-0.8323,-0.8456,-0.8454,-0.8454,-0.8587,-0.8587,-0.8587,-0.8587,-0.8587,-0.8587,-0.8587,-0.8587,0.5733,0.5552,0.5282,0.4839,0.4129,0.3417,0.2966,0.2071,0.1263,0.0722,0.0271,-0.0,-0.0092,-0.0835,-0.1401,-0.1521,-0.1717,-0.2099,-0.2674,-0.2813,-0.2947,-0.3154,-0.3406,-0.367,-0.3836,-0.4366,-0.4607,-0.4686,-0.498,-0.5503,-0.627,-0.6495,-0.6824,-0.7154,-0.7276,-0.7561,-0.8253,-0.8379,-0.8682,-0.9405,-0.9544,-0.9615,-0.9635,-0.9764,-0.9579,-0.9335,-0.9217,-0.9095,-0.8854,-0.8488,-0.8119,-0.7872,-0.7508,-0.7143,-0.69,-0.69,-0.7143,-0.7385,-0.7385,-0.7627,-0.7872,-0.7994,-0.8324,-0.8679,-0.9077,-0.9258,-0.9329,-0.8682,-0.8635,-0.859,-0.7925,-0.766,-0.766,-0.7658,-0.766,-0.766,-0.766,-0.766,-0.766,-0.766,-0.766,-0.766,-0.766,-0.7526,-0.7526,-0.7526,-0.7526,-0.7526,-0.7526,-0.7254,-0.7118,-0.7118,-0.739,-0.7526,-0.7526,-0.7526,-0.7526,-0.7526,-0.7526,-0.7526,-0.766,-0.7925,-0.8192,-0.8192,-0.8456,-0.8587,-0.8587,-0.8587,-0.8587,-0.8587,-0.8587,-0.8587,0.5537,0.5499,0.5282,0.4924,0.4478,0.3853,0.3226,0.2511,0.1794,0.1256,0.0538,-0.0,-0.0,-0.0272,-0.0728,0.0,0.0,-0.1755,-0.2337,-0.2547,-0.276,-0.308,-0.3237,-0.3384,-0.3609,-0.3952,-0.4417,-0.481,-0.5216,-0.5609,-0.6082,-0.6313,-0.6715,-0.7154,-0.7379,-0.7627,-0.8127,-0.8351,-0.8758,-0.9245,-0.9306,-0.9384,-0.9473,-0.953,-0.9489,-0.9453,-0.921,-0.9134,-0.9095,-0.8854,-0.861,-0.8485,-0.7872,-0.763,-0.7508,-0.7263,-0.7263,-0.7385,-0.7627,-0.775,-0.7872,-0.7872,-0.8027,-0.8203,-0.8403,-0.8425,-0.832,-0.8128,-0.7969,-0.7925,-0.7526,-0.7526,-0.7526,-0.7526,-0.7526,-0.7526,-0.7526,-0.7526,-0.7526,-0.7526,-0.7526,-0.7526,-0.7526,-0.739,-0.7254,-0.7254,-0.6989,-0.6855,-0.6855,-0.6585,-0.6313,-0.6313,-0.6719,-0.6855,-0.6855,-0.6855,-0.6989,-0.7121,-0.7254,-0.7257,-0.7526,-0.7658,-0.7791,-0.7791,-0.7925,-0.7925,-0.7925,-0.7925,-0.7925,-0.7925,-0.7925,-0.7925,0.5326,0.5383,0.5359,0.5007,0.459,0.417,0.3462,0.2946,0.2333,0.1705,0.0987,0.0359,0.009,-0.0,-0.0269,0.0,0.0,-0.1623,-0.2106,-0.2398,-0.2605,-0.3018,-0.3172,-0.3309,-0.3406,-0.3859,-0.4332,-0.5026,-0.5331,-0.5702,-0.6118,-0.6298,-0.6743,-0.7213,-0.7546,-0.7784,-0.8156,-0.8374,-0.8759,-0.9089,-0.9133,-0.9322,-0.9428,-0.9473,-0.9672,-0.9776,-0.9581,-0.954,-0.9519,-0.9201,-0.9095,-0.8976,-0.836,-0.8238,-0.8119,-0.7875,-0.7875,-0.7875,-0.8119,-0.8238,-0.8238,-0.8116,-0.7997,-0.8011,-0.8099,-0.7859,-0.7742,-0.7687,-0.7417,-0.7259,-0.7259,-0.7259,-0.7259,-0.7259,-0.7259,-0.7259,-0.7259,-0.7259,-0.7259,-0.7259,-0.7259,-0.7259,-0.7259,-0.6989,-0.6853,-0.6853,-0.6587,-0.6453,-0.6317,-0.6048,-0.5912,-0.578,-0.6049,-0.6185,-0.6185,-0.6185,-0.6319,-0.6449,-0.6583,-0.6717,-0.6989,-0.7257,-0.739,-0.739,-0.7393,-0.7526,-0.7526,-0.7526,-0.7526,-0.7526,-0.7526,-0.7526,0.5116,0.5285,0.529,0.4789,0.4612,0.434,0.3648,0.3178,0.2689,0.2063,0.1615,0.1076,0.0179,-0.0,-0.0179,-0.0628,-0.1076,-0.1615,-0.2155,-0.2194,-0.2406,-0.2959,-0.3202,-0.3433,-0.3433,-0.3976,-0.4546,-0.5133,-0.5335,-0.57,-0.6519,-0.6738,-0.6965,-0.7411,-0.7627,-0.8016,-0.8481,-0.8484,-0.8598,-0.8944,-0.9086,-0.9377,-0.9606,-0.9767,-0.9957,-1.0312,-1.048,-1.0317,-0.9975,-0.9882,-0.9579,-0.9217,-0.8973,-0.8854,-0.8854,-0.8854,-0.8854,-0.8854,-0.8854,-0.8854,-0.8854,-0.8491,-0.8369,-0.8369,-0.7997,-0.7793,-0.7599,-0.7338,-0.6839,-0.6453,-0.6453,-0.6453,-0.6453,-0.6453,-0.6453,-0.6453,-0.6453,-0.6453,-0.6453,-0.6453,-0.6453,-0.6453,-0.6453,-0.6453,-0.6453,-0.6453,-0.6453,-0.6317,-0.5912,-0.5912,-0.578,-0.5381,-0.5381,-0.5381,-0.5381,-0.5381,-0.5381,-0.5381,-0.578,-0.5912,-0.5912,-0.6583,-0.6985,-0.6985,-0.739,-0.7526,-0.7526,-0.7526,-0.7526,-0.7526,-0.7526,-0.7526,0.4673,0.4811,0.4868,0.4532,0.4473,0.4242,0.3565,0.3074,0.2587,0.2101,0.167,0.1236,0.0626,-0.0269,-0.0897,-0.0718,-0.1256,-0.1884,-0.2154,-0.2347,-0.2628,-0.3079,-0.3413,-0.3755,-0.4091,-0.4363,-0.4816,-0.5337,-0.5829,-0.6194,-0.6494,-0.7244,-0.7576,-0.749,-0.7815,-0.8198,-0.8669,-0.8886,-0.9159,-0.9489,-0.9536,-0.9669,-0.978,-0.9835,-0.992,-1.0144,-1.0196,-1.0229,-1.0321,-1.0249,-1.0212,-0.994,-0.9579,-0.9335,-0.9095,-0.8976,-0.8854,-0.8854,-0.8854,-0.8854,-0.8854,-0.8732,-0.8613,-0.8369,-0.8244,-0.7793,-0.7241,-0.6859,-0.6674,-0.6453,-0.6453,-0.6453,-0.6453,-0.6453,-0.6453,-0.6453,-0.6453,-0.6453,-0.6453,-0.6453,-0.6453,-0.6453,-0.6453,-0.6453,-0.6453,-0.6453,-0.6317,-0.6048,-0.5912,-0.551,-0.5109,-0.4975,-0.4842,-0.4844,-0.5381,-0.5381,-0.5381,-0.5381,-0.5513,-0.5647,-0.5912,-0.618,-0.6315,-0.6587,-0.6721,-0.6855,-0.6855,-0.6855,-0.6855,-0.6855,-0.6855,-0.6855,0.0,0.429,0.4338,0.4091,0.4035,0.3896,0.3235,0.0,0.0,0.0,0.0,0.0,0.0612,-0.0526,-0.1315,-0.1138,-0.1489,-0.1932,-0.2392,-0.2572,-0.2846,-0.3491,-0.3899,-0.433,-0.4793,-0.4984,-0.5345,-0.5871,-0.6372,-0.6836,-0.7039,-0.7736,-0.8123,-0.8104,-0.8267,-0.8577,-0.8945,-0.9215,-0.9403,-0.9719,-0.9783,-0.9816,-1.0036,-1.0036,-1.0094,-1.0308,-1.0374,-1.041,0.0,-1.062,-1.061,-1.0346,-1.0283,-0.9943,-0.97,-0.9457,-0.9339,-0.9217,-0.9217,-0.9217,-0.9217,-0.9095,-0.8766,-0.8447,-0.8248,-0.7738,-0.7121,-0.6799,-0.6587,-0.6453,-0.6453,-0.6453,-0.6453,-0.6453,-0.6453,-0.6453,-0.6453,-0.6453,-0.6453,-0.6453,-0.6453,-0.6453,-0.6453,-0.6453,-0.6453,-0.6317,-0.6048,-0.5778,-0.551,-0.5108,-0.4707,-0.4574,-0.4441,-0.4441,-0.4978,-0.4978,-0.4978,-0.4978,-0.5111,-0.5243,-0.551,-0.5646,-0.5915,-0.6317,-0.6317,-0.6317,-0.6453,-0.6453,-0.6453,-0.6453,-0.6453,-0.6453,0.0,0.3448,0.3684,0.337,0.3427,0.3403,0.2756,0.0,0.0,0.0,0.0,0.0,0.0337,-0.0674,-0.1432,-0.1769,-0.1769,-0.2038,-0.2781,-0.2876,-0.3335,-0.42,-0.4569,-0.4966,-0.5519,-0.5727,-0.6029,-0.6625,-0.7057,-0.7537,-0.8038,-0.8333,-0.863,-0.8924,-0.9078,-0.9244,-0.9309,-0.9466,-0.9552,-0.9563,-0.9734,-1.0036,-1.0366,-1.0366,-1.0472,-1.0704,-1.0875,-1.0843,-1.0545,-1.0872,-1.0779,-1.0569,-1.0726,-1.0668,-1.0304,-1.0304,-1.0065,-0.9819,-0.9819,-0.9822,-0.97,-0.9457,-0.894,-0.8449,-0.7944,-0.7473,-0.726,-0.7064,-0.6719,-0.6587,-0.6453,-0.6453,-0.6453,-0.6453,-0.6453,-0.6453,-0.6453,-0.6453,-0.6453,-0.6453,-0.6453,-0.6453,-0.6453,-0.6453,-0.6317,-0.5912,-0.5912,-0.551,-0.4839,-0.4839,-0.4707,-0.4307,-0.4308,-0.4308,-0.4308,-0.4308,-0.4308,-0.4308,-0.4574,-0.4839,-0.4839,-0.5111,-0.5513,-0.5912,-0.5912,-0.6048,-0.6453,-0.6453,-0.6453,-0.6453,-0.6453,-0.6453,0.1099,0.0,0.2824,0.2744,0.2915,0.3007,0.0,0.0,0.0,0.0,0.0,0.0,0.0,0.0,-0.1776,-0.241,-0.2502,-0.2782,-0.3374,-0.4001,-0.4539,-0.4828,-0.5188,-0.5644,-0.612,-0.6415,-0.6841,-0.7348,-0.7979,-0.8528,-0.8627,-0.9225,-0.962,-0.9723,-0.9962,-0.987,-0.9442,-0.9615,-0.9871,-1.0218,-1.0393,-1.0582,-1.0582,-1.0582,-1.0692,-1.0692,-1.0741,-1.0838,-1.0872,-1.1085,-1.102,-1.0925,-1.1086,-1.1031,-1.0668,-1.0668,-1.0425,-1.0183,-1.0183,-1.0065,-0.97,-0.9457,-0.9066,-0.883,-0.8577,-0.8167,-0.7614,-0.7082,-0.6985,-0.6853,-0.6587,-0.6453,-0.6453,-0.6453,-0.6453,-0.6453,-0.6453,-0.6453,-0.6453,-0.6453,-0.6453,-0.6453,-0.6453,-0.6183,-0.6048,-0.5912,-0.5376,-0.4973,-0.4839,-0.4574,-0.4441,-0.4308,-0.4308,-0.4308,-0.4308,-0.4308,-0.4308,-0.4308,-0.4307,-0.4574,-0.4839,-0.4841,-0.5109,-0.5513,-0.578,-0.6048,-0.6453,-0.6183,-0.6048,-0.6048,-0.5781,-0.5649,-0.0706,0.0471,0.1649,0.1649,0.1727,0.1805,0.0,0.0,0.0,0.0,0.0,0.0,0.0,0.0,-0.2658,-0.2944,-0.3147,-0.345,-0.4136,-0.5068,-0.563,-0.563,-0.6074,-0.6517,-0.6962,-0.7407,-0.7771,-0.8236,-0.8929,-0.9324,-0.9324,-0.9916,-1.0216,-1.0216,-1.0314,-1.0263,-0.9967,-1.0232,-1.0418,-1.0628,-1.1,-1.1131,-1.1131,-1.0911,-1.0907,-1.0911,-1.0802,-1.0749,-1.0863,-1.1118,-1.1165,-1.1164,-1.1423,-1.1277,-1.1031,-1.1031,-1.0668,-1.0304,-1.0304,-1.0061,-0.97,-0.9217,-0.911,-0.9034,-0.8594,-0.8353,-0.8109,-0.7372,-0.7121,-0.6987,-0.6587,-0.6453,-0.6453,-0.6453,-0.6453,-0.6453,-0.6453,-0.6453,-0.6453,-0.6453,-0.6453,-0.6453,-0.6317,-0.6048,-0.5778,-0.551,-0.5108,-0.4707,-0.4574,-0.4441,-0.4308,-0.4308,-0.4308,-0.4308,-0.4308,-0.4308,-0.4308,-0.4308,-0.4308,-0.4441,-0.4574,-0.4574,-0.4708,-0.5111,-0.5512,-0.5781,-0.6051,-0.5781,-0.5647,-0.5647,-0.5513,-0.5381,-0.2354,-0.1098,0.0078,0.0314,0.0393,0.0314,0.0079,0.0,0.0,0.0,0.0,0.0,0.0,-0.3205,-0.366,-0.3522,-0.3928,-0.4437,-0.5122,-0.6005,-0.6609,-0.6697,-0.7051,-0.7503,-0.8059,-0.8436,-0.8816,-0.9303,-0.9917,-1.0216,-1.0216,-1.0511,-1.0623,-1.0654,-1.0654,-1.0668,-1.0699,-1.0928,-1.1006,-1.1041,-1.1397,-1.1568,-1.1568,-1.135,-1.1126,-1.1126,-1.0911,-1.0692,-1.072,-1.1074,-1.1224,-1.1256,-1.163,-1.1647,-1.1398,-1.1273,-1.091,-1.0304,-1.0304,-1.0061,-0.97,-0.9095,-0.9035,-0.9121,-0.8489,-0.8399,-0.8456,-0.7791,-0.7388,-0.6985,-0.6721,-0.6587,-0.6453,-0.6453,-0.6453,-0.6453,-0.6453,-0.6453,-0.6453,-0.6319,-0.6319,-0.6185,-0.5914,-0.578,-0.551,-0.4839,-0.4707,-0.4574,-0.4307,-0.4308,-0.4308,-0.4308,-0.4308,-0.4308,-0.4308,-0.4308,-0.4308,-0.4308,-0.4308,-0.4308,-0.4308,-0.4308,-0.4441,-0.4839,-0.5111,-0.5381,-0.5381,-0.5381,-0.5247,-0.5247,-0.5247,-0.5247,-0.3072,-0.274,-0.2271,-0.1019,-0.0628,-0.0707,-0.1019,0.0,0.0,0.0,0.0,0.0,0.0,-0.3561,-0.4104,-0.4603,-0.5412,-0.6198,-0.6662,-0.7214,-0.7672,-0.7933,-0.8197,-0.8609,-0.9298,-0.9518,-0.9899,-1.0622,-1.1057,-1.1389,-1.1389,-1.159,-1.187,-1.1964,-1.1768,-1.1755,-1.2035,-1.1376,-1.1076,-1.1248,-1.1463,-1.1568,-1.1568,-1.1568,-1.135,-1.1126,-1.1017,-1.0911,-1.072,-1.1074,-1.1224,-1.1256,-1.163,-1.1776,-1.1651,-1.1398,-1.1031,-1.0668,-1.0065,-0.9822,-0.97,-0.9335,-0.928,-0.9121,-0.8742,-0.866,-0.8456,-0.8056,-0.7791,-0.739,-0.6987,-0.6719,-0.6453,-0.6453,-0.6453,-0.6453,-0.6048,-0.6048,-0.5914,-0.5647,-0.5515,-0.5515,-0.5513,-0.5243,-0.4973,-0.4839,-0.4574,-0.4307,-0.4308,-0.4308,-0.4308,-0.4308,-0.4308,-0.4308,-0.4308,-0.4308,-0.4308,-0.4308,-0.4308,-0.4308,-0.4308,-0.4308,-0.4441,-0.4839,-0.4841,-0.5109,-0.5381,-0.5109,-0.4841,-0.4841,-0.4575,-0.4441,-0.4334,-0.4146,-0.3895,-0.3141,-0.2506,-0.2116,-0.2271,0.0,0.0,0.0,0.0,0.0,0.0,-0.4794,-0.5515,-0.6213,-0.6741,-0.7316,-0.7669,-0.8201,-0.8677,-0.8949,-0.9313,-0.9745,-1.0318,-1.0524,-1.0872,-1.1257,-1.1661,-1.1835,-1.1959,-1.2068,-1.2269,-1.2491,-1.2297,-1.2196,-1.2416,-1.1887,-1.1622,-1.1718,-1.1914,-1.2005,-1.2005,-1.1896,-1.1678,-1.135,-1.1126,-1.0911,-1.0712,-1.0976,-1.1139,-1.1248,-1.152,-1.1563,-1.1522,-1.091,-1.0668,-1.0425,-0.9943,-0.97,-0.9457,-0.9217,-0.9032,-0.8869,-0.8486,-0.853,-0.8587,-0.8189,-0.7791,-0.739,-0.7118,-0.6719,-0.6453,-0.6453,-0.6453,-0.6453,-0.6048,-0.5912,-0.578,-0.5515,-0.5381,-0.5381,-0.5111,-0.4975,-0.4707,-0.4574,-0.4441,-0.4308,-0.4308,-0.4308,-0.4308,-0.4308,-0.4308,-0.4308,-0.4308,-0.4308,-0.4308,-0.4308,-0.4308,-0.4308,-0.4308,-0.4308,-0.4307,-0.4574,-0.4574,-0.4574,-0.4844,-0.444,-0.4304,-0.4304,-0.3902,-0.3768,-0.5589,-0.547,-0.5278,-0.5159,0.0,-0.3444,-0.3446,-0.3602,0.0,0.0,0.0,0.0,-0.5173,-0.603,-0.6917,-0.7735,-0.8025,-0.8288,-0.8552,-0.9205,-0.9734,-0.9885,-1.0301,-1.0773,-1.1271,-1.1442,-1.1777,-1.2188,-1.2252,-1.2449,-1.2687,-1.2602,-1.2705,-1.2925,-1.262,-1.2521,-1.2748,-1.2321,-1.2209,-1.2214,-1.2365,-1.2441,-1.2436,-1.2219,-1.1896,-1.1568,-1.1345,-1.1017,-1.0708,-1.0936,-1.1106,-1.1244,-1.1354,-1.128,-1.1031,-1.0547,-1.0304,-1.0183,-0.9822,-0.9457,-0.9214,-0.8854,-0.8786,-0.8614,-0.8361,-0.8269,-0.8454,-0.8192,-0.7791,-0.739,-0.7118,-0.6719,-0.6453,-0.6453,-0.6453,-0.6319,-0.5914,-0.578,-0.5646,-0.5247,-0.5112,-0.5111,-0.4707,-0.4707,-0.4574,-0.4307,-0.4308,-0.4308,-0.4308,-0.4308,-0.4307,-0.4172,-0.4172,-0.4172,-0.4038,-0.4038,-0.4038,-0.4038,-0.4172,-0.4308,-0.4308,-0.4172,-0.4172,-0.4172,-0.4038,-0.4038,-0.4038,-0.3768,-0.3632,-0.3632,-0.3363,-0.3228,-0.6642,-0.6685,-0.6647,-0.6414,-0.5323,0.0,-0.4543,-0.4621,0.0,-0.4991,0.0,-0.5906,-0.615,-0.7014,-0.7925,-0.8644,-0.8995,-0.9345,-0.9777,-1.0298,-1.0706,-1.0895,-1.1167,-1.1559,-1.225,-1.2283,-1.2672,-1.3622,-1.3474,-1.3485,-1.3727,-1.355,-1.3561,-1.3682,-1.3262,-1.3057,-1.329,-1.2639,-1.2417,-1.2417,-1.2432,-1.2441,-1.2441,-1.2327,-1.2114,-1.1568,-1.1568,-1.124,-1.072,-1.1062,-1.1212,-1.1256,-1.1244,-1.0899,-1.0425,-1.0304,-1.0061,-0.9822,-0.9457,-0.9339,-0.9217,-0.861,-0.8539,-0.8614,-0.8361,-0.8141,-0.8189,-0.8058,-0.7522,-0.6985,-0.6985,-0.6719,-0.6453,-0.6453,-0.6453,-0.6319,-0.5649,-0.5381,-0.5247,-0.4575,-0.4441,-0.4307,-0.4307,-0.4307,-0.4307,-0.4308,-0.4308,-0.4308,-0.4308,-0.4308,-0.4172,-0.3902,-0.3902,-0.3633,-0.3362,-0.3228,-0.3228,-0.3228,-0.3902,-0.4308,-0.4308,-0.4038,-0.3902,-0.3902,-0.3498,-0.3228,-0.3228,-0.3228,-0.3228,-0.3228,-0.3228,-0.3228,-0.7303,-0.7256,-0.722,-0.7065,-0.6654,0.0,0.0,-0.5692,-0.5927,-0.6144,-0.6542,-0.6982,-0.762,-0.8241,-0.8907,-0.9519,-0.9777,-1.0086,-1.0573,-1.1018,-1.1446,-1.1815,-1.221,-1.2642,-1.3076,-1.3238,-1.3406,-1.3596,-1.3746,-1.3733,-1.3877,-1.3794,-1.3803,-1.4046,-1.351,-1.3229,-1.3315,-1.2659,-1.2441,-1.2441,-1.2441,-1.2441,-1.2441,-1.2441,-1.2114,-1.1568,-1.1568,-1.124,-1.0712,-1.096,-1.1012,-1.091,-1.0782,-1.0547,-1.0304,-1.0065,-0.9819,-0.9457,-0.9335,-0.9095,-0.8732,-0.8491,-0.829,-0.8108,-0.798,-0.7752,-0.7658,-0.7522,-0.7252,-0.6985,-0.6985,-0.6719,-0.6453,-0.6453,-0.6317,-0.6049,-0.5515,-0.5245,-0.4842,-0.4441,-0.4308,-0.4308,-0.4308,-0.4308,-0.4308,-0.4308,-0.4172,-0.4038,-0.4038,-0.3768,-0.3632,-0.3498,-0.3363,-0.3363,-0.3228,-0.3228,-0.3228,-0.3228,-0.3498,-0.3632,-0.3632,-0.3498,-0.3363,-0.3363,-0.3228,-0.3228,-0.3228,-0.2961,-0.2814,-0.279,-0.2656,-0.2511,-0.7974,-0.8025,-0.7982,-0.7899,0.0,0.0,-0.716,-0.6867,-0.6884,-0.7097,-0.7491,-0.8064,-0.8873,-0.934,-0.9694,-1.0207,-1.0467,-1.0809,-1.1311,-1.1763,-1.2229,-1.2626,-1.3031,-1.3345,-1.3619,-1.3866,-1.3945,-1.3919,-1.4055,-1.4095,-1.4022,-1.3938,-1.3907,-1.4078,-1.3537,-1.3207,-1.3207,-1.2659,-1.2441,-1.2441,-1.2441,-1.2441,-1.2441,-1.2327,-1.2005,-1.1568,-1.1459,-1.1164,-1.0794,-1.086,-1.0724,-1.0593,-1.0343,-1.0183,-0.9943,-0.97,-0.9457,-0.9217,-0.9095,-0.8732,-0.8369,-0.8122,-0.7892,-0.7681,-0.7586,-0.7466,-0.7218,-0.7111,-0.6987,-0.6851,-0.6717,-0.6585,-0.6453,-0.6317,-0.6048,-0.578,-0.5245,-0.4975,-0.4707,-0.4307,-0.4308,-0.4308,-0.4308,-0.4172,-0.4172,-0.4172,-0.3902,-0.3632,-0.3632,-0.3363,-0.3095,-0.3095,-0.296,-0.2826,-0.2826,-0.2826,-0.2826,-0.2826,-0.2826,-0.296,-0.3228,-0.3095,-0.3095,-0.3095,-0.296,-0.2826,-0.2826,-0.2693,-0.2541,-0.2505,-0.2241,-0.2093,-0.8736,-0.8911,-0.8952,0.0,0.0,0.0,-0.873,-0.8028,-0.7496,-0.7909,-0.8517,-0.9174,-0.9864,-1.0038,-1.0207,-1.0895,-1.1154,-1.15,-1.2026,-1.2536,-1.2871,-1.3122,-1.3379,-1.3636,-1.3835,-1.4166,-1.4419,-1.4677,-1.4625,-1.4562,-1.4595,-1.4293,-1.4083,-1.3753,-1.3428,-1.3207,-1.2881,-1.255,-1.2441,-1.2441,-1.2441,-1.2441,-1.2436,-1.2114,-1.1896,-1.1568,-1.124,-1.1019,-1.0984,-1.0811,-1.0494,-1.0304,-1.0304,-0.994,-0.9335,-0.9335,-0.9095,-0.8854,-0.8491,-0.8369,-0.8247,-0.7633,-0.7464,-0.7577,-0.7304,-0.7027,-0.6867,-0.6958,-0.6719,-0.6453,-0.6048,-0.6183,-0.6453,-0.6048,-0.5912,-0.5644,-0.4975,-0.4839,-0.4707,-0.4307,-0.4308,-0.4308,-0.4308,-0.4038,-0.3768,-0.3768,-0.3498,-0.3228,-0.3228,-0.3228,-0.3095,-0.2694,-0.2424,-0.2155,-0.2155,-0.2155,-0.2155,-0.2155,-0.2155,-0.2558,-0.3228,-0.2827,-0.2694,-0.2694,-0.2424,-0.2155,-0.2155,-0.2155,-0.2139,-0.2241,-0.2241,-0.2093,-0.9087,-0.9174,0.0,-0.9187,0.0,0.0,0.0,-0.8811,0.0,-0.8871,-0.93,-0.9777,-0.9951,-1.0467,-1.0982,-1.1154,-1.1505,-1.2006,-1.2524,-1.2831,-1.3222,-1.3666,-1.3872,-1.4106,-1.4208,-1.4252,-1.4313,-1.4361,-1.4418,-1.4356,-1.4283,-1.397,-1.3753,-1.3753,-1.3207,-1.2989,-1.2881,-1.255,-1.2327,-1.2114,-1.2114,-1.2114,-1.2114,-1.2005,-1.1782,-1.1244,-1.127,-1.1027,-1.0654,-1.0364,-1.0242,-1.0304,-0.9819,-0.9457,-0.9339,-0.9095,-0.8854,-0.8491,-0.8491,-0.8122,-0.763,-0.7508,-0.7091,-0.682,-0.6796,-0.6636,-0.6469,-0.6289,-0.618,-0.6048,-0.5647,-0.5647,-0.5649,-0.5513,-0.5377,-0.5108,-0.4841,-0.4574,-0.4441,-0.4308,-0.4308,-0.4172,-0.4038,-0.3902,-0.3768,-0.3363,-0.3096,-0.2828,-0.2558,-0.2558,-0.2424,-0.2424,-0.2289,-0.2155,-0.2155,-0.2155,-0.2155,-0.2155,-0.2155,-0.2289,-0.2423,-0.2424,-0.2289,-0.2289,-0.2289,-0.2155,-0.2155,-0.2155,-0.2261,-0.2207,-0.1688,-0.1409,-0.9345,-0.9432,0.0,-0.9519,-0.9607,-0.9689,-0.9864,-0.9506,-0.9284,-0.9492,-0.9864,-1.0212,-1.0391,-1.0901,-1.1327,-1.1591,-1.194,-1.2383,-1.2983,-1.3241,-1.3528,-1.3957,-1.4208,-1.4298,-1.4112,-1.4258,-1.4173,-1.3914,-1.4059,-1.4102,-1.3923,-1.3719,-1.3547,-1.3423,-1.3098,-1.2881,-1.2659,-1.2441,-1.2114,-1.2005,-1.1896,-1.1782,-1.1673,-1.1673,-1.1455,-1.1143,-1.1072,-1.0768,-1.0278,-1.0184,-0.9981,-0.9822,-0.9457,-0.9095,-0.8973,-0.8732,-0.8366,-0.8,-0.8,-0.7633,-0.7143,-0.7018,-0.6692,-0.627,-0.6275,-0.6092,-0.5896,-0.5748,-0.5646,-0.5646,-0.5245,-0.5111,-0.5111,-0.5111,-0.4975,-0.4707,-0.4572,-0.4441,-0.4307,-0.4172,-0.4038,-0.4038,-0.3632,-0.3499,-0.323,-0.3096,-0.2693,-0.2424,-0.2289,-0.2155,-0.2155,-0.2155,-0.2155,-0.2155,-0.2155,-0.2155,-0.2155,-0.2155,-0.1885,-0.175,-0.175,-0.202,-0.202,-0.175,-0.175,-0.175,-0.175,-0.175,-0.1863,-0.2212,-0.1682,-0.1147,-0.9602,-0.9689,-0.9689,-0.9951,-1.0207,-1.0381,-1.0641,-1.0207,-0.9777,-1.0038,-1.0207,-1.0472,-1.0921,-1.117,-1.1505,-1.1952,-1.2203,-1.2713,-1.3405,-1.3501,-1.3701,-1.4201,-1.4286,-1.4202,-1.3931,-1.4143,-1.3987,-1.3502,-1.3707,-1.3632,-1.3351,-1.3388,-1.3179,-1.2847,-1.2871,-1.2659,-1.2332,-1.2114,-1.2005,-1.1896,-1.1678,-1.135,-1.1021,-1.1017,-1.1029,-1.0953,-1.0713,-1.0371,-0.9951,-1.0102,-0.9802,-0.9198,-0.9211,-0.8851,-0.8369,-0.8369,-0.7877,-0.7385,-0.7385,-0.7143,-0.6775,-0.6405,-0.616,-0.5826,-0.5612,-0.5406,-0.5183,-0.533,-0.5376,-0.5245,-0.4841,-0.4707,-0.4707,-0.4707,-0.4707,-0.4707,-0.4307,-0.4307,-0.4172,-0.3768,-0.3768,-0.3632,-0.3229,-0.2961,-0.2694,-0.2694,-0.2424,-0.2155,-0.2155,-0.2155,-0.2155,-0.2155,-0.2155,-0.2155,-0.2155,-0.2155,-0.2155,-0.2155,-0.1616,-0.1212,-0.1077,-0.175,-0.1885,-0.1212,-0.1077,-0.0942,-0.0942,-0.0942,-0.1337,-0.1977,-0.195,-0.1282,-0.9864,-1.0033,0.0,-1.0207,-1.0467,-1.0641,-1.0727,-1.0554,-1.0467,-1.0559,-1.0738,-1.0921,-1.1008,-1.1435,-1.1866,-1.1952,-1.2369,-1.2733,-1.3157,-1.3387,-1.3634,-1.3954,-1.4171,-1.4202,-1.3931,-1.3785,-1.3601,-1.3496,-1.3152,-1.2983,-1.3122,-1.2895,-1.2694,-1.2636,-1.2577,-1.2332,-1.2114,-1.2005,-1.1782,-1.1236,-1.1236,-1.0911,-1.0476,-1.0692,-1.0655,-1.0339,-0.996,-0.9745,-0.9555,-0.9347,-0.9168,-0.8821,-0.8693,-0.8363,-0.7997,-0.7752,-0.7388,-0.7023,-0.7023,-0.6775,-0.6405,-0.616,-0.5792,-0.544,-0.5288,-0.5234,-0.5173,-0.5006,-0.4936,-0.4841,-0.444,-0.4441,-0.4307,-0.4037,-0.4171,-0.4307,-0.4037,-0.3902,-0.3768,-0.3363,-0.3363,-0.3229,-0.2828,-0.2694,-0.2559,-0.2289,-0.2289,-0.2155,-0.2155,-0.2155,-0.2155,-0.2155,-0.2155,-0.2155,-0.2155,-0.2155,-0.2155,-0.2155,-0.202,-0.175,-0.1077,-0.175,-0.2155,-0.202,-0.0808,-0.0269,-0.0269,-0.0269,-0.0267,-0.0527,-0.052,-0.0256,-1.012,0.0,0.0,-1.0646,0.0,-1.0911,-1.0997,-1.0997,-1.0997,-1.0997,-1.1003,-1.1008,-1.1094,-1.1607,-1.2043,-1.2043,-1.2369,-1.2801,-1.3085,-1.3242,-1.3381,-1.3671,-1.3832,-1.3778,-1.3528,-1.3346,-1.3202,-1.303,-1.2745,-1.2547,-1.2481,-1.2402,-1.22,-1.1987,-1.1981,-1.187,-1.1648,-1.1544,-1.1263,-1.0911,-1.0802,-1.0476,-0.9926,-1.0147,-1.0124,-0.9825,-0.949,-0.9353,-0.9155,-0.8873,-0.8549,-0.8207,-0.8039,-0.7741,-0.7304,-0.7185,-0.6974,-0.665,-0.6532,-0.616,-0.5912,-0.5548,-0.5177,-0.4943,-0.4893,-0.469,-0.4613,-0.4584,-0.4371,-0.4267,-0.4164,-0.3902,-0.3768,-0.3498,-0.3768,-0.3902,-0.3632,-0.3498,-0.3363,-0.3096,-0.2961,-0.2827,-0.2558,-0.2425,-0.2424,-0.2289,-0.2155,-0.2155,-0.2155,-0.2155,-0.2155,-0.2155,-0.2155,-0.2155,-0.2155,-0.2155,-0.1885,-0.1212,-0.175,-0.175,-0.0673,-0.0942,-0.1212,-0.1212,-0.0404,-0.0,-0.0,-0.0,-0.0,-0.0,-0.0,-0.0,-1.0381,0.0,-1.0819,-1.1094,-1.1094,-1.1094,-1.1354,-1.1348,-1.1262,-1.1262,-1.1181,-1.1094,-1.1267,-1.1699,-1.1957,-1.1957,-1.2369,-1.2697,-1.2931,-1.3003,-1.3106,-1.3251,-1.338,-1.3331,-1.2973,-1.3028,-1.2856,-1.237,-1.2273,-1.2061,-1.1754,-1.1697,-1.1595,-1.1245,-1.1286,-1.1172,-1.1133,-1.0814,-1.0675,-1.0494,-1.0194,-0.9786,-0.9268,-0.9375,-0.9443,-0.9448,-0.9113,-0.8847,-0.8615,-0.8402,-0.7948,-0.7491,-0.7397,-0.711,-0.6717,-0.6614,-0.6431,-0.6137,-0.5788,-0.5548,-0.53,-0.4933,-0.4685,-0.445,-0.4382,-0.4154,-0.3929,-0.4027,-0.3807,-0.3567,-0.3744,-0.3492,-0.3228,-0.3094,-0.3365,-0.3499,-0.3229,-0.3095,-0.296,-0.2694,-0.2559,-0.2559,-0.2289,-0.2155,-0.2155,-0.2155,-0.2155,-0.2155,-0.2155,-0.2155,-0.2155,-0.2155,-0.2155,-0.2155,-0.2155,-0.2155,-0.1616,-0.0135,-0.1212,-0.121,-0.0,-0.0,-0.0,-0.0,-0.0,-0.0,-0.0,-0.0,-0.0,-0.0,-0.0,-0.0,-1.0554,0.0,-1.1094,0.0,-1.144,-1.1354,-1.1613,-1.144,-1.1262,-1.1262,-1.1267,-1.1267,-1.1262,-1.1527,-1.1785,-1.1957,-1.2289,-1.246,-1.2496,-1.2709,-1.2798,-1.2589,-1.298,-1.3074,-1.2552,-1.2742,-1.2662,-1.2078,-1.1585,-1.1306,-1.1334,-1.1016,-1.0826,-1.0747,-1.0699,-1.0589,-1.0305,-1.0096,-0.9793,-0.961,-0.9108,-0.8804,-0.8598,-0.8377,-0.8387,-0.8624,-0.8295,-0.7973,-0.7777,-0.7545,-0.7247,-0.7034,-0.6781,-0.6476,-0.6147,-0.5992,-0.5786,-0.5445,-0.5154,-0.5058,-0.4933,-0.4562,-0.4439,-0.4318,-0.3834,-0.3623,-0.3538,-0.3297,-0.3234,-0.3299,-0.3305,-0.3201,-0.3094,-0.2828,-0.2828,-0.2828,-0.2828,-0.2828,-0.2693,-0.2289,-0.2289,-0.2289,-0.2155,-0.2155,-0.2155,-0.2155,-0.2155,-0.2155,-0.2155,-0.2155,-0.2155,-0.2155,-0.2155,-0.2155,-0.2155,-0.2155,-0.1616,-0.0135,-0.0135,-0.0268,-0.0,-0.0,-0.0,-0.0,-0.0,-0.0,-0.0,-0.0,-0.0,-0.0,-0.0,-0.0,-1.117,-1.1348,-1.144,0.0,-1.1785,-1.1699,-1.1699,-1.1613,-1.144,-1.1348,-1.1262,-1.1262,-1.1262,-1.1527,-1.1699,-1.1785,-1.2037,-1.2203,-1.2203,-1.2308,-1.226,-1.2043,-1.2243,-1.2242,-1.1915,-1.1952,-1.1798,-1.1414,-1.1132,-1.0801,-1.0507,-1.0397,-1.0146,-0.985,-0.9823,-0.9709,-0.9393,-0.9293,-0.9027,-0.8699,-0.8345,-0.7977,-0.7819,-0.7495,-0.7683,-0.8156,-0.7712,-0.749,-0.7385,-0.6881,-0.6564,-0.6231,-0.6162,-0.5871,-0.5584,-0.544,-0.5262,-0.495,-0.4661,-0.4562,-0.4564,-0.407,-0.3948,-0.3824,-0.3331,-0.3223,-0.3247,-0.3148,-0.293,-0.2837,-0.286,-0.2748,-0.2498,-0.2367,-0.2367,-0.2367,-0.2367,-0.2397,-0.2424,-0.2289,-0.2155,-0.2155,-0.2155,-0.2155,-0.2155,-0.2155,-0.2155,-0.2155,-0.2155,-0.2155,-0.2155,-0.2155,-0.2155,-0.2155,-0.2155,-0.1481,-0.0671,-0.0,-0.0,-0.0,-0.0,-0.0,-0.0,-0.0,-0.0,-0.0,-0.0,-0.0,-0.0,-0.0,-0.0793,-0.1182,-1.1527,0.0,-1.1871,-1.2037,-1.2037,-1.1957,-1.1785,-1.1649,-1.1519,-1.1257,-1.1257,-1.1257,-1.1257,-1.1397,-1.1613,-1.1699,-1.178,-1.178,-1.178,-1.1774,-1.1668,-1.1409,-1.1394,-1.132,-1.1029,-1.0968,-1.0834,-1.06,-1.0448,-1.016,-0.9719,-0.9624,-0.9426,-0.8935,-0.8836,-0.8592,-0.8306,-0.8204,-0.7975,-0.7596,-0.7389,-0.7194,-0.7009,-0.6695,-0.6899,-0.7506,-0.7097,-0.6908,-0.6935,-0.6383,-0.5935,-0.5708,-0.5599,-0.5304,-0.492,-0.4886,-0.4847,-0.4563,-0.439,-0.418,-0.407,-0.3702,-0.3455,-0.3332,-0.2961,-0.2838,-0.2845,-0.2878,-0.2642,-0.2404,-0.2431,-0.2315,-0.2064,-0.2064,-0.2064,-0.2064,-0.2064,-0.2099,-0.2131,-0.2131,-0.2138,-0.2143,-0.2143,-0.2149,-0.2155,-0.2155,-0.2155,-0.2155,-0.2155,-0.202,-0.202,-0.2155,-0.2155,-0.202,-0.1616,-0.0671,-0.0,-0.0,-0.0,-0.0,-0.0,-0.0,-0.0,-0.0,-0.0,-0.0,-0.0,-0.0,-0.013,-0.0524,-0.1711,-0.2236,-1.1699,-1.1871,0.0,-1.2283,-1.2203,-1.2043,-1.1957,-1.168,-1.1249,-1.1088,-1.1004,-1.1004,-1.1004,-1.1192,-1.1435,-1.1699,-1.151,-1.1327,-1.1327,-1.1154,-1.0901,-1.0396,-1.0588,-1.0542,-0.9998,-1.0007,-0.9925,-0.9814,-0.9364,-0.9053,-0.8916,-0.863,-0.8336,-0.8041,-0.7832,-0.7537,-0.7247,-0.6745,-0.6406,-0.6326,-0.6326,-0.6172,-0.6061,-0.6061,-0.6068,-0.6083,-0.6187,-0.6182,-0.6274,-0.5935,-0.5708,-0.5371,-0.5041,-0.4819,-0.4496,-0.4233,-0.4185,-0.4249,-0.3962,-0.3779,-0.3579,-0.3455,-0.3332,-0.2961,-0.259,-0.2467,-0.2468,-0.2102,-0.1998,-0.2019,-0.202,-0.2042,-0.2064,-0.2064,-0.2064,-0.2064,-0.2064,-0.2066,-0.2069,-0.2198,-0.2223,-0.2244,-0.2244,-0.2136,-0.2155,-0.2155,-0.2155,-0.2155,-0.2155,-0.1616,-0.1481,-0.2155,-0.2155,-0.1616,-0.0269,-0.0,-0.0,-0.0,-0.0,-0.0,-0.0,-0.0,-0.0,-0.0,-0.0,-0.0,-0.0,-0.0,-0.0646,-0.1941,-0.2097,-0.2225,-1.2032,-1.2198,-1.2283,-1.2534,-1.2534,-1.2375,-1.2037,-1.1884,-1.1645,-1.1305,-1.1219,-1.1219,-1.1219,-1.1289,-1.1267,-1.1267,-1.1176,-1.0992,-1.0727,-1.0636,-1.0381,-0.9946,-0.9846,-0.9628,-0.927,-0.8989,-0.8754,-0.8721,-0.8363,-0.8016,-0.7684,-0.7596,-0.74,-0.6911,-0.681,-0.6577,-0.6021,-0.5598,-0.5257,-0.5196,-0.526,-0.5209,-0.4937,-0.4937,-0.4967,-0.4814,-0.4845,-0.5155,-0.5513,-0.5074,-0.4882,-0.4814,-0.4704,-0.4482,-0.4156,-0.4114,-0.4038,-0.384,-0.3705,-0.351,-0.341,-0.2952,-0.2837,-0.259,-0.2222,-0.2222,-0.2099,-0.1976,-0.1984,-0.1992,-0.1992,-0.2,-0.2008,-0.2008,-0.1757,-0.1506,-0.1883,-0.1782,-0.1419,-0.1548,-0.1554,-0.143,-0.143,-0.1436,-0.1441,-0.1441,-0.1441,-0.1704,-0.2099,-0.1982,-0.1594,-0.0797,-0.0803,-0.0538,-0.0,-0.0,-0.0,-0.0,-0.0,-0.0,-0.0,-0.0,-0.0,-0.0,-0.0,-0.0,-0.0,-0.0879,-0.1514,-0.2038,-0.2047,-0.2066,-1.2283,-1.2448,-1.2534,-1.2705,-1.2705,-1.2619,-1.2123,-1.1975,-1.1742,-1.1315,-1.1225,-1.1139,-1.1054,-1.1123,-1.1181,-1.1008,-1.0835,-1.0564,-1.0212,-0.9946,-0.9689,-0.934,-0.8995,-0.8732,-0.8464,-0.7945,-0.767,-0.7629,-0.7362,-0.7014,-0.6576,-0.6489,-0.6296,-0.5812,-0.5617,-0.5298,-0.4853,-0.4434,-0.4171,-0.4171,-0.4254,-0.4194,-0.3999,-0.4024,-0.3962,-0.3904,-0.3802,-0.4194,-0.4878,-0.458,-0.4402,-0.4335,-0.436,-0.4147,-0.3818,-0.386,-0.3889,-0.3689,-0.3417,-0.3215,-0.3115,-0.2664,-0.2439,-0.2205,-0.2084,-0.1969,-0.1977,-0.1977,-0.1977,-0.1977,-0.1977,-0.1977,-0.1977,-0.1977,-0.1606,-0.1482,-0.1853,-0.1631,-0.1271,-0.0763,-0.0766,-0.0769,-0.0769,-0.0772,-0.0774,-0.0774,-0.0774,-0.0903,-0.1421,-0.1432,-0.1047,-0.0131,-0.0,-0.0,-0.0,-0.0,-0.0,-0.0,-0.0,-0.0,-0.0,-0.0,-0.0,-0.0,-0.0,-0.0247,-0.0617,-0.1606,-0.1987,-0.2007,-0.2015,-0.2051,0.0,0.0,0.0,-1.2705,-1.2705,-1.2619,-1.2123,-1.1849,-1.1583,-1.1077,-1.0993,-1.091,-1.0658,-1.0851,-1.1008,-1.1008,-1.0391,-1.0038,-0.9951,-0.9345,-0.8819,-0.8636,-0.8113,-0.7672,-0.7489,-0.7054,-0.6761,-0.6621,-0.6453,-0.5956,-0.5414,-0.5325,-0.5138,-0.4664,-0.4182,-0.3894,-0.3894,-0.333,-0.3046,-0.3048,-0.3109,-0.3139,-0.3142,-0.3202,-0.3128,-0.313,-0.2927,-0.3296,-0.4259,-0.4337,-0.4152,-0.3941,-0.4007,-0.3811,-0.3587,-0.3587,-0.3625,-0.3676,-0.3332,-0.3018,-0.2706,-0.2474,-0.2144,-0.193,-0.193,-0.195,-0.1974,-0.1975,-0.1975,-0.1975,-0.1976,-0.1977,-0.1977,-0.1977,-0.1977,-0.1977,-0.1977,-0.1977,-0.1606,-0.0247,-0.0,-0.0,-0.0,-0.0,-0.0,-0.0,-0.0,-0.0,-0.0,-0.0,-0.0,-0.0,-0.0,-0.0,-0.0,-0.0,-0.0,-0.0,-0.0,-0.0,-0.0,-0.0,-0.0,-0.0,-0.0,-0.0741,-0.1977,-0.1977,-0.1977,-0.1977,-0.2005,-0.2179,-1.2619,0.0,0.0,0.0,0.0,0.0,-1.2123,-1.1986,-1.1764,-1.1332,-1.1252,-1.1166,-1.0909,-1.0869,-1.0733,-1.0559,-1.0212,-0.9864,-0.9519,-0.899,-0.8552,-0.8113,-0.7584,-0.7139,-0.6782,-0.6251,-0.5913,-0.5773,-0.542,-0.5015,-0.4652,-0.4194,-0.3821,-0.3449,-0.3126,-0.3012,-0.3194,-0.2872,-0.2614,-0.2427,-0.2477,-0.2616,-0.2653,-0.2568,-0.2493,-0.2522,-0.2522,-0.2639,-0.2975,-0.3239,-0.342,-0.3608,-0.3626,-0.366,-0.3587,-0.3587,-0.3598,-0.3619,-0.3318,-0.2997,-0.2669,-0.2466,-0.2128,-0.1898,-0.1898,-0.1904,-0.1915,-0.1937,-0.1944,-0.1949,-0.1971,-0.1977,-0.1977,-0.1977,-0.1977,-0.1729,-0.0741,-0.0494,-0.0494,-0.0123,-0.0,-0.0,-0.0,-0.0,-0.0,-0.0,-0.0,-0.0,-0.0,-0.0,-0.0,-0.0,-0.0,-0.0,-0.0,-0.0,-0.0,-0.0,-0.0,-0.0,-0.0,-0.0,-0.0,-0.0,-0.0988,-0.1606,-0.1977,-0.1482,-0.1482,-0.1977,-0.2257,-0.2676,-1.2705,-1.2705,-1.2705,-1.2705,0.0,0.0,-1.2123,-1.2043,-1.1871,-1.1435,-1.1262,-1.1176,-1.0916,-1.0819,-1.0554,-1.012,-0.9864,-0.9607,-0.9174,-0.864,-0.8113,-0.7584,-0.7051,-0.6609,-0.6163,-0.5811,-0.5369,-0.5013,-0.4659,-0.4322,-0.3828,-0.3287,-0.2922,-0.274,-0.2528,-0.2424,-0.2604,-0.1998,-0.1645,-0.1553,-0.1586,-0.1611,-0.1726,-0.1658,-0.1778,-0.1996,-0.2012,-0.2019,-0.2122,-0.235,-0.2817,-0.3214,-0.3261,-0.3409,-0.3552,-0.3578,-0.3587,-0.3591,-0.3286,-0.3071,-0.2849,-0.2418,-0.2205,-0.1984,-0.1867,-0.1876,-0.1889,-0.1907,-0.1922,-0.1814,-0.1587,-0.1844,-0.1853,-0.1359,-0.1112,-0.0988,-0.0123,-0.0,-0.0,-0.0,-0.0,-0.0,-0.0,-0.0,-0.0,-0.0,-0.0,-0.0,-0.0,-0.0,-0.0,-0.0,-0.0,-0.0,-0.0,-0.0,-0.0,-0.0,-0.0,-0.0,-0.0,-0.0494,-0.0864,-0.0864,-0.1606,-0.1977,-0.1977,-0.1606,-0.1729,-0.2223,-0.2632,-0.3169,-1.2705,-1.2705,-1.2705,-1.2705,-1.2705,0.0,-1.2123,-1.2043,-1.1871,-1.1435,-1.1348,-1.1176,-1.0727,-1.0727,-1.0467,-0.9777,-0.9432,-0.917,-0.8911,-0.8296,-0.7676,-0.7143,-0.6697,-0.6163,-0.563,-0.5458,-0.5015,-0.43,-0.421,-0.3762,-0.2868,-0.2512,-0.2334,-0.2243,-0.2064,-0.1974,-0.1974,-0.1076,-0.0628,-0.0538,-0.0548,-0.0554,-0.0648,-0.0672,-0.0978,-0.1474,-0.15,-0.1613,-0.1617,-0.1819,-0.2349,-0.2914,-0.3009,-0.3266,-0.3493,-0.3548,-0.3568,-0.3567,-0.3232,-0.3125,-0.3018,-0.2462,-0.2264,-0.2295,-0.195,-0.1854,-0.1877,-0.188,-0.1902,-0.1806,-0.1204,-0.1339,-0.1479,-0.0246,-0.0,-0.0,-0.0,-0.0,-0.0,-0.0,-0.0,-0.0,-0.0,-0.0,-0.0,-0.0,-0.0,-0.0,-0.0,-0.0,-0.0,-0.0,-0.0,-0.0,-0.0,-0.0,-0.0,-0.0,-0.0,-0.0123,-0.0247,-0.1359,-0.1977,-0.1977,-0.1977,-0.1977,-0.1977,-0.1976,-0.2222,-0.2591,-0.3002,-0.3527,-1.279,-1.2705,-1.2705,-1.2705,-1.2705,0.0,-1.2369,-1.2118,-1.1957,-1.1699,-1.144,-1.117,-1.0727,-1.0641,-1.0554,-1.0038,-0.9607,-0.917,-0.8727,-0.8204,-0.7676,-0.6969,-0.6609,-0.6074,-0.5186,-0.4924,-0.4572,-0.4036,-0.3496,-0.2868,-0.2153,-0.2063,-0.1705,-0.1076,-0.0987,-0.0807,-0.0448,-0.0269,0.009,0.0448,0.045,0.0273,-0.0185,-0.0187,-0.0286,-0.0393,-0.0986,-0.1395,-0.1617,-0.1617,-0.2144,-0.2907,-0.2928,-0.3174,-0.3429,-0.3443,-0.3447,-0.3447,-0.3339,-0.3261,-0.3079,-0.2969,-0.2781,-0.2594,-0.2255,-0.2147,-0.2045,-0.1842,-0.1871,-0.1776,-0.1184,-0.0719,-0.0364,-0.0121,-0.0,-0.0,-0.0,-0.0,-0.0,-0.0,-0.0,-0.0,-0.0,-0.0,-0.0,-0.0,-0.0,-0.0,-0.0,-0.0,-0.0,-0.0,-0.0,-0.0,-0.0,-0.0,-0.0,-0.0,-0.0,-0.0494,-0.1606,-0.1853,-0.1977,-0.1977,-0.1977,-0.1977,-0.1977,-0.2222,-0.259,-0.2961,-0.3218,-0.3742,-1.2826,-1.2705,-1.2705,-1.2705,-1.2705,0.0,0.0,-1.2283,-1.2118,-1.1785,-1.1613,-1.1348,-1.0911,-1.0733,-1.0554,-1.0038,-0.9607,-0.917,-0.8636,-0.8204,-0.7588,-0.67,-0.652,-0.6074,-0.5099,-0.4837,-0.4302,-0.3496,-0.2869,-0.2332,-0.1885,-0.1525,-0.1076,-0.0718,-0.0449,-0.0,0.0718,0.0718,0.0807,0.1076,0.1076,0.0902,0.0638,0.0184,-0.0,-0.0,-0.0682,-0.1185,-0.1596,-0.1611,-0.2031,-0.2663,-0.2687,-0.2922,-0.3371,-0.3401,-0.3413,-0.3413,-0.3413,-0.3325,-0.3241,-0.3133,-0.2934,-0.274,-0.2542,-0.2341,-0.2136,-0.1927,-0.184,-0.1747,-0.1514,-0.0707,-0.0,-0.0,-0.0,-0.0,-0.0,-0.0,-0.0,-0.0,-0.0,-0.0,-0.0,-0.0,-0.0,-0.0,-0.0,-0.0,-0.0,-0.0,-0.0,-0.0,-0.0,-0.0,-0.0,-0.0,-0.0,-0.0,-0.0,-0.0617,-0.1977,-0.1977,-0.1977,-0.1977,-0.1977,-0.1977,-0.1977,-0.2468,-0.2837,-0.2961,-0.3332,-0.3965,-1.3003,-1.2862,-1.2862,-1.2862,-1.2862,-1.2775,0.0,0.0,0.0,-1.2012,-1.1799,-1.1598,-1.1163,-1.085,-1.0554,-1.0125,-0.9607,-0.917,-0.8727,-0.8204,-0.7588,-0.6609,-0.6432,-0.6074,-0.5099,-0.4656,-0.4034,-0.2868,-0.2422,-0.2064,-0.1705,-0.1166,-0.0718,-0.0538,-0.018,0.0359,0.1166,0.1345,0.1436,0.1436,0.1436,0.1436,0.1346,0.0639,0.0184,-0.0,-0.0574,-0.107,-0.1564,-0.159,-0.1898,-0.2401,-0.2455,-0.2786,-0.3309,-0.336,-0.3377,-0.3377,-0.3377,-0.3386,-0.3395,-0.3076,-0.3082,-0.2993,-0.271,-0.2424,-0.2121,-0.1898,-0.1808,-0.1832,-0.1832,-0.1043,-0.0353,-0.0238,-0.012,-0.0,-0.0,-0.0,-0.0,-0.0,-0.0,-0.0,-0.0,-0.0,-0.0,-0.0,-0.0,-0.0,-0.0,-0.0,-0.0,-0.0,-0.0,-0.0,-0.0,-0.0,-0.0,-0.0,-0.0,-0.0494,-0.1729,-0.1977,-0.1977,-0.1977,-0.1977,-0.1977,-0.1977,-0.2716,-0.2961,-0.2961,-0.3455,-0.4071,-1.3519,-1.3423,-1.3423,-1.3423,-1.3423,-1.3423,-1.3423,0.0,-1.3062,-1.27,0.0,-1.1927,-1.14,0.0,0.0,-1.0294,-0.9689,-0.917,-0.8911,-0.8296,-0.7588,-0.6881,-0.6523,-0.6074,-0.5099,-0.421,-0.3408,-0.2603,-0.2334,-0.1974,-0.1436,-0.1345,-0.0897,-0.009,-0.0,0.009,0.0179,0.0987,0.1436,0.1436,0.1436,0.1436,0.1436,0.1259,0.0818,-0.0,-0.0465,-0.1035,-0.1532,-0.1535,-0.1824,-0.2313,-0.2397,-0.2733,-0.3241,-0.3248,-0.3252,-0.3252,-0.3252,-0.3286,-0.3332,-0.3227,-0.3158,-0.2986,-0.2992,-0.2597,-0.2194,-0.2194,-0.1999,-0.18,-0.18,-0.1709,-0.15,-0.0924,-0.0355,-0.0,-0.0,-0.0,-0.0,-0.0,-0.0,-0.0,-0.0,-0.0,-0.0,-0.0,-0.0,-0.0,-0.0,-0.0,-0.0,-0.0,-0.0,-0.0,-0.0,-0.0,-0.0,-0.0,-0.0,-0.037,-0.1111,-0.1729,-0.1977,-0.1977,-0.1977,-0.1977,-0.1977,-0.2716,-0.2961,-0.2961,-0.358,-0.4196,-1.3647,-1.3513,-1.3513,-1.3513,-1.3513,-1.3513,-1.3513,-1.3423,-1.3332,-1.3059,0.0,0.0,0.0,0.0,0.0,0.0,-1.0119,-0.9607,-0.9174,-0.864,-0.7937,-0.6881,-0.6523,-0.5957,-0.484,-0.4,-0.3197,-0.2594,-0.2335,-0.2086,-0.1848,-0.1585,-0.124,-0.0807,-0.0538,-0.0269,-0.0,0.0359,0.0897,0.1436,0.1436,0.1436,0.1436,0.1436,0.0901,-0.0,-0.046,-0.1023,-0.1501,-0.1708,-0.2004,-0.2294,-0.2425,-0.2752,-0.3179,-0.3179,-0.32,-0.323,-0.3332,-0.3349,-0.3268,-0.3268,-0.3206,-0.3149,-0.2939,-0.2763,-0.2586,-0.2478,-0.2182,-0.199,-0.199,-0.1903,-0.1704,-0.1492,-0.1279,-0.0941,-0.0594,-0.0603,-0.0609,-0.0609,-0.0614,-0.0617,-0.0617,-0.0247,-0.0,-0.0,-0.0,-0.0,-0.0,-0.0,-0.0,-0.0,-0.0,-0.0,-0.0,-0.0,-0.0,-0.0,-0.0,-0.0247,-0.0988,-0.1606,-0.1977,-0.1977,-0.1977,-0.1977,-0.1977,-0.2468,-0.2837,-0.2961,-0.358,-0.4196,-1.3878,-1.3731,-1.3731,-1.3731,-1.3731,-1.3731,-1.3731,-1.3731,-1.3638,-1.346,-1.3118,0.0,0.0,0.0,-1.1415,-1.1084,0.0,-0.9934,-0.9354,-0.8903,-0.8197,-0.7143,-0.6489,-0.5638,-0.4606,-0.3914,-0.3278,-0.2776,-0.2523,-0.2287,-0.2152,-0.1808,-0.1565,-0.1511,-0.1245,-0.0802,-0.0359,-0.0267,0.0178,0.0979,0.115,0.1146,0.1058,0.1064,0.0534,-0.0267,-0.0818,-0.1284,-0.1654,-0.1866,-0.2159,-0.2347,-0.2624,-0.2846,-0.3189,-0.3206,-0.3252,-0.3306,-0.3606,-0.3518,-0.343,-0.343,-0.3362,-0.3297,-0.3193,-0.3025,-0.2963,-0.2645,-0.2465,-0.2283,-0.2185,-0.2097,-0.1902,-0.1821,-0.1834,-0.1731,-0.1284,-0.1185,-0.1199,-0.1199,-0.121,-0.1219,-0.1219,-0.0737,-0.0247,-0.0247,-0.0247,-0.0247,-0.0247,-0.0247,-0.0247,-0.0247,-0.0123,-0.0,-0.0,-0.0,-0.0123,-0.0494,-0.0494,-0.0741,-0.1235,-0.1722,-0.1964,-0.1964,-0.1956,-0.1952,-0.1952,-0.2325,-0.2573,-0.282,-0.3449,-0.3948,-1.437,-1.4268,-1.4268,-1.4268,-1.4268,-1.4268,-1.4268,-1.4268,-1.4178,-1.3902,-1.3507,-1.3145,-1.2875,-1.2204,-1.1506,-1.111,-1.0626,0.0,0.0,-0.8903,-0.8281,-0.7577,-0.6141,-0.5031,-0.4513,-0.4,-0.3531,-0.303,-0.2776,-0.2524,-0.2273,-0.2104,-0.1955,-0.1913,-0.1827,-0.167,-0.1345,-0.1054,-0.0522,0.0087,0.0341,0.0422,0.0169,0.0086,-0.0261,-0.0698,-0.1514,-0.1887,-0.1887,-0.2068,-0.2339,-0.2518,-0.2785,-0.3093,-0.3344,-0.341,-0.3477,-0.3537,-0.3828,-0.3971,-0.3932,-0.3932,-0.3836,-0.3639,-0.3539,-0.3277,-0.2908,-0.2908,-0.2735,-0.2463,-0.2286,-0.2189,-0.2089,-0.1901,-0.1819,-0.184,-0.1727,-0.1749,-0.1769,-0.1887,-0.1888,-0.1889,-0.1889,-0.1331,-0.0988,-0.0988,-0.0988,-0.0988,-0.0988,-0.0988,-0.0988,-0.0988,-0.037,-0.0,-0.0,-0.0,-0.0494,-0.1853,-0.1977,-0.1977,-0.1977,-0.1948,-0.1932,-0.1932,-0.1904,-0.1889,-0.1889,-0.2275,-0.2412,-0.2413,-0.3186,-0.3824,-1.4298,-1.4298,-1.434,-1.4527,-1.4576,-1.4576,-1.4576,-1.4472,-1.4229,-1.3966,-1.3471,-1.3121,-1.303,-1.2541,-1.1984,-1.1538,-1.1091,-1.0517,0.0,-0.8895,-0.8109,-0.7577,-0.6315,-0.5344,-0.4927,-0.4244,-0.3676,-0.3376,-0.3054,-0.2915,-0.2877,-0.2714,-0.2576,-0.2636,-0.2296,-0.2134,-0.1978,-0.1621,-0.1276,-0.0852,-0.0423,-0.0253,-0.0421,-0.1019,-0.1373,-0.1479,-0.1928,-0.2215,-0.2334,-0.2601,-0.278,-0.2959,-0.3227,-0.3422,-0.3544,-0.3618,-0.3597,-0.3756,-0.3754,-0.3995,-0.4157,-0.3958,-0.3894,-0.3833,-0.3833,-0.3748,-0.3564,-0.3363,-0.3202,-0.2937,-0.2743,-0.2581,-0.241,-0.2093,-0.2012,-0.2037,-0.181,-0.1834,-0.1855,-0.1855,-0.1872,-0.1886,-0.1886,-0.1784,-0.1557,-0.1557,-0.1557,-0.1557,-0.1557,-0.1557,-0.1563,-0.1701,-0.146,-0.1099,-0.074,-0.0617,-0.0864,-0.1359,-0.1729,-0.1977,-0.1977,-0.1947,-0.1931,-0.1931,-0.1901,-0.1886,-0.1886,-0.2014,-0.2138,-0.2376,-0.2628,-0.313,-1.4443,-1.4515,-1.463,-1.4811,-1.4754,-1.4654,-1.4654,-1.4448,-1.4196,-1.4034,-1.363,-1.3274,-1.3274,-1.2791,-1.2225,-1.1767,-1.1414,-1.0803,0.0,-0.8843,-0.8021,-0.7669,-0.6489,-0.5587,-0.521,-0.4606,-0.4021,-0.3769,-0.3452,-0.3319,-0.3289,-0.3132,-0.3005,-0.3074,-0.2744,-0.2587,-0.2524,-0.2336,-0.2077,-0.1747,-0.1237,-0.1068,-0.1315,-0.1906,-0.2095,-0.2039,-0.2417,-0.2628,-0.2751,-0.3126,-0.3314,-0.3494,-0.3853,-0.4034,-0.3952,-0.3913,-0.4077,-0.4246,-0.4277,-0.4416,-0.4465,-0.4397,-0.4248,-0.4098,-0.4126,-0.4034,-0.3934,-0.3835,-0.3564,-0.3397,-0.3108,-0.2864,-0.2714,-0.2403,-0.2328,-0.2244,-0.202,-0.1924,-0.1938,-0.1824,-0.184,-0.1853,-0.1853,-0.1853,-0.1861,-0.1883,-0.1886,-0.1886,-0.1886,-0.1886,-0.1894,-0.1913,-0.1915,-0.1807,-0.1346,-0.1354,-0.1359,-0.1359,-0.1729,-0.1972,-0.1961,-0.1931,-0.191,-0.1899,-0.1869,-0.1853,-0.1853,-0.1864,-0.1987,-0.2221,-0.2351,-0.2599]},{"header":{"parameterUnit":"m.s-1","parameterCategory":1,"la1":30.6,"la2":29.2853,"lo1":-89.7004,"lo2":-87.6739,"dy":0.0162,"dx":0.0183,"nx":112,"ny":82,"refTime":"2023-07-15T00:00:00:Z","depth":0,"parameterNumber":3,"parameterNumberName":"V-component_of_WINDS"},"data":[0.0,0.0,0.0,0.0,0.0,0.0,0.0,0.0,0.0,0.0,0.0,0.0,0.0,0.0,0.0,0.0,0.0,0.0,0.0,0.0,0.0,0.0,0.0,0.0,0.0,0.0,0.0,0.0,0.0,0.0,0.0,0.0,0.0,0.0,0.0,0.0,0.0,0.0,0.0,0.0,0.0,0.0,0.0,0.0,0.0,0.0,0.0,0.0,0.0,0.0,0.0,0.0,0.0,0.0,0.0,0.0,0.0,0.0,0.0,0.0,0.0,0.0,0.0,0.0,0.0,0.0,0.0,0.0,0.0,0.0,0.0,0.0,0.0,0.0,0.0,0.0,0.0,0.0,0.0,0.0,0.0,0.0,0.0,0.0,0.0,0.0,0.0,0.0,0.0,0.0,-3.2092,-3.3396,-3.3855,-3.4146,-3.4295,-3.4578,-3.4872,-3.5122,0.0,0.0,0.0,0.0,0.0,0.0,0.0,0.0,0.0,0.0,0.0,0.0,0.0,0.0,0.0,0.0,0.0,0.0,0.0,0.0,0.0,0.0,0.0,0.0,0.0,0.0,0.0,0.0,0.0,0.0,0.0,0.0,0.0,0.0,0.0,0.0,0.0,0.0,0.0,0.0,0.0,0.0,0.0,0.0,0.0,0.0,0.0,0.0,0.0,0.0,0.0,0.0,0.0,0.0,0.0,0.0,0.0,0.0,0.0,0.0,0.0,0.0,0.0,0.0,0.0,0.0,0.0,0.0,0.0,0.0,0.0,0.0,0.0,0.0,0.0,0.0,0.0,0.0,0.0,0.0,0.0,0.0,0.0,0.0,0.0,0.0,0.0,0.0,0.0,0.0,0.0,0.0,0.0,0.0,0.0,0.0,0.0,0.0,0.0,0.0,0.0,0.0,0.0,0.0,-3.308,-3.3225,-3.4133,-3.4622,-3.4343,-3.5022,-3.5591,-3.599,0.0,0.0,0.0,0.0,0.0,0.0,0.0,0.0,0.0,0.0,0.0,0.0,0.0,0.0,0.0,0.0,0.0,0.0,0.0,0.0,0.0,0.0,0.0,0.0,0.0,0.0,0.0,0.0,0.0,0.0,0.0,0.0,0.0,0.0,0.0,0.0,0.0,0.0,0.0,0.0,0.0,0.0,0.0,0.0,0.0,0.0,0.0,0.0,0.0,0.0,0.0,0.0,0.0,0.0,0.0,0.0,0.0,0.0,0.0,0.0,0.0,0.0,0.0,0.0,0.0,0.0,0.0,0.0,0.0,0.0,0.0,0.0,0.0,0.0,0.0,0.0,0.0,0.0,0.0,0.0,0.0,0.0,0.0,0.0,0.0,0.0,0.0,0.0,0.0,0.0,0.0,0.0,0.0,0.0,0.0,0.0,0.0,0.0,0.0,0.0,0.0,0.0,0.0,-3.2921,-3.3254,-3.3713,-3.4333,-3.4892,-3.5379,-3.5983,-3.6437,-3.675,-3.6992,0.0,0.0,0.0,0.0,0.0,0.0,0.0,0.0,0.0,0.0,0.0,0.0,0.0,0.0,0.0,0.0,0.0,0.0,0.0,0.0,0.0,0.0,0.0,0.0,0.0,0.0,0.0,0.0,0.0,0.0,0.0,0.0,0.0,0.0,0.0,0.0,0.0,0.0,0.0,0.0,0.0,0.0,0.0,0.0,0.0,0.0,0.0,0.0,0.0,0.0,0.0,0.0,0.0,0.0,0.0,0.0,0.0,0.0,0.0,0.0,0.0,0.0,0.0,0.0,0.0,0.0,0.0,0.0,0.0,0.0,0.0,0.0,0.0,0.0,0.0,0.0,0.0,0.0,0.0,0.0,0.0,0.0,0.0,0.0,0.0,0.0,0.0,0.0,0.0,0.0,0.0,0.0,0.0,0.0,0.0,0.0,0.0,0.0,0.0,0.0,0.0,0.0,-3.316,-3.3429,-3.4232,-3.4574,-3.5189,-3.6327,-3.6851,-3.7343,-3.7621,-3.8272,0.0,0.0,0.0,0.0,0.0,0.0,0.0,0.0,0.0,0.0,0.0,0.0,0.0,0.0,0.0,0.0,0.0,0.0,0.0,0.0,0.0,0.0,0.0,0.0,0.0,0.0,0.0,0.0,0.0,0.0,0.0,0.0,0.0,0.0,0.0,0.0,0.0,0.0,0.0,0.0,0.0,0.0,0.0,0.0,0.0,0.0,0.0,0.0,0.0,0.0,0.0,0.0,0.0,0.0,0.0,0.0,0.0,0.0,0.0,0.0,0.0,0.0,0.0,0.0,0.0,0.0,0.0,0.0,0.0,0.0,0.0,0.0,0.0,0.0,0.0,0.0,0.0,0.0,0.0,0.0,0.0,0.0,0.0,0.0,0.0,0.0,0.0,0.0,0.0,0.0,0.0,0.0,0.0,0.0,0.0,0.0,0.0,0.0,0.0,0.0,0.0,0.0,-3.3768,-3.4049,-3.4631,-3.5163,-3.5784,-3.6358,-3.7396,-3.8206,-3.8668,-3.9279,0.0,0.0,0.0,0.0,0.0,0.0,0.0,0.0,0.0,0.0,0.0,0.0,0.0,0.0,0.0,0.0,0.0,0.0,0.0,0.0,0.0,0.0,0.0,0.0,0.0,0.0,0.0,0.0,0.0,0.0,0.0,0.0,0.0,0.0,0.0,0.0,0.0,0.0,0.0,0.0,0.0,0.0,0.0,0.0,0.0,0.0,0.0,0.0,0.0,0.0,0.0,0.0,0.0,0.0,0.0,0.0,0.0,0.0,0.0,0.0,0.0,0.0,0.0,0.0,0.0,0.0,0.0,0.0,0.0,0.0,0.0,0.0,0.0,0.0,0.0,0.0,0.0,0.0,0.0,0.0,0.0,0.0,0.0,0.0,0.0,0.0,0.0,0.0,0.0,0.0,0.0,0.0,0.0,0.0,0.0,0.0,0.0,0.0,0.0,0.0,0.0,0.0,-3.4019,-3.4595,-3.5407,-3.588,-3.6616,-3.7816,-3.8472,-3.9201,-4.0132,0.0,0.0,0.0,0.0,0.0,0.0,0.0,0.0,0.0,0.0,0.0,0.0,0.0,0.0,0.0,0.0,0.0,0.0,0.0,0.0,0.0,0.0,0.0,0.0,0.0,0.0,0.0,0.0,0.0,0.0,0.0,0.0,0.0,0.0,0.0,0.0,0.0,0.0,0.0,0.0,0.0,0.0,0.0,0.0,0.0,0.0,0.0,0.0,0.0,0.0,0.0,0.0,0.0,0.0,0.0,0.0,0.0,0.0,0.0,0.0,0.0,0.0,0.0,0.0,0.0,0.0,0.0,0.0,0.0,0.0,0.0,0.0,0.0,0.0,0.0,0.0,0.0,0.0,0.0,0.0,0.0,0.0,0.0,0.0,0.0,0.0,0.0,0.0,0.0,0.0,0.0,0.0,0.0,0.0,0.0,0.0,0.0,0.0,0.0,0.0,0.0,0.0,-3.4201,-3.4572,-3.5263,-3.6412,-3.6683,-3.7483,-3.9077,-3.9532,-4.0196,-4.1222,0.0,0.0,0.0,0.0,0.0,0.0,0.0,0.0,0.0,0.0,0.0,0.0,0.0,0.0,0.0,0.0,0.0,0.0,0.0,0.0,0.0,0.0,0.0,0.0,0.0,0.0,0.0,0.0,0.0,0.0,0.0,0.0,0.0,0.0,0.0,0.0,0.0,0.0,0.0,0.0,0.0,0.0,0.0,0.0,0.0,0.0,0.0,0.0,0.0,0.0,0.0,0.0,0.0,0.0,0.0,0.0,0.0,0.0,0.0,0.0,0.0,0.0,0.0,0.0,0.0,0.0,0.0,0.0,0.0,0.0,0.0,0.0,0.0,0.0,0.0,0.0,0.0,0.0,0.0,0.0,0.0,0.0,0.0,0.0,0.0,0.0,0.0,0.0,0.0,0.0,0.0,0.0,0.0,0.0,0.0,0.0,0.0,0.0,0.0,0.0,0.0,0.0,-3.5531,-3.5527,-3.6084,-3.7536,-3.7743,-3.836,-3.9886,-4.0631,-4.1288,0.0,0.0,0.0,0.0,0.0,0.0,0.0,0.0,0.0,0.0,0.0,0.0,0.0,0.0,0.0,0.0,0.0,0.0,0.0,0.0,0.0,0.0,0.0,0.0,0.0,0.0,0.0,0.0,0.0,0.0,0.0,0.0,0.0,0.0,0.0,0.0,0.0,0.0,0.0,0.0,0.0,0.0,0.0,0.0,0.0,0.0,0.0,0.0,0.0,0.0,0.0,0.0,0.0,0.0,0.0,0.0,0.0,0.0,0.0,0.0,0.0,0.0,0.0,0.0,0.0,0.0,0.0,0.0,0.0,0.0,0.0,0.0,0.0,0.0,0.0,0.0,0.0,0.0,0.0,0.0,0.0,0.0,0.0,0.0,0.0,0.0,0.0,0.0,0.0,0.0,0.0,0.0,0.0,0.0,0.0,0.0,0.0,0.0,0.0,0.0,0.0,0.0,0.0,-3.5715,-3.697,-3.8046,-3.8157,-3.8991,-3.9939,-4.1055,-4.1602,-4.2419,-4.3507,0.0,0.0,0.0,0.0,0.0,0.0,0.0,0.0,0.0,0.0,0.0,0.0,0.0,0.0,0.0,0.0,0.0,0.0,0.0,0.0,0.0,0.0,0.0,0.0,0.0,0.0,0.0,0.0,0.0,0.0,0.0,0.0,0.0,0.0,0.0,0.0,0.0,0.0,0.0,0.0,0.0,0.0,0.0,0.0,0.0,0.0,0.0,0.0,0.0,0.0,0.0,0.0,0.0,0.0,0.0,0.0,0.0,0.0,0.0,0.0,0.0,0.0,0.0,0.0,0.0,0.0,0.0,0.0,0.0,0.0,0.0,0.0,0.0,0.0,0.0,0.0,0.0,0.0,0.0,0.0,0.0,0.0,0.0,0.0,0.0,0.0,0.0,0.0,0.0,0.0,0.0,0.0,0.0,0.0,0.0,0.0,0.0,0.0,0.0,0.0,0.0,0.0,-3.7604,-3.8573,-3.9561,-4.0295,-4.1059,-4.2032,-4.3305,-4.3734,-4.4449,-4.5496,0.0,0.0,0.0,0.0,0.0,0.0,0.0,0.0,0.0,0.0,0.0,0.0,0.0,0.0,0.0,0.0,0.0,0.0,0.0,0.0,0.0,0.0,0.0,0.0,0.0,0.0,0.0,0.0,0.0,0.0,0.0,0.0,0.0,0.0,0.0,0.0,0.0,0.0,0.0,0.0,0.0,0.0,0.0,0.0,0.0,0.0,0.0,0.0,0.0,0.0,0.0,0.0,0.0,0.0,0.0,0.0,0.0,0.0,0.0,0.0,0.0,0.0,0.0,0.0,0.0,0.0,0.0,0.0,0.0,0.0,0.0,0.0,0.0,0.0,0.0,0.0,0.0,0.0,0.0,0.0,0.0,0.0,0.0,0.0,0.0,0.0,0.0,0.0,0.0,0.0,0.0,0.0,0.0,0.0,0.0,0.0,0.0,0.0,0.0,0.0,0.0,0.0,-4.0463,-4.0307,-4.0925,-4.328,-4.3635,-4.4401,-4.6118,-4.6522,-4.6937,-4.7619,0.0,0.0,0.0,0.0,0.0,0.0,0.0,0.0,0.0,0.0,0.0,0.0,0.0,0.0,0.0,0.0,0.0,0.0,0.0,0.0,0.0,0.0,0.0,0.0,0.0,0.0,0.0,0.0,0.0,0.0,0.0,0.0,0.0,0.0,0.0,0.0,0.0,0.0,0.0,0.0,0.0,0.0,0.0,0.0,0.0,0.0,0.0,0.0,0.0,0.0,0.0,0.0,0.0,0.0,0.0,0.0,0.0,0.0,0.0,0.0,-3.563,-3.5205,0.0,0.0,0.0,0.0,0.0,0.0,0.0,0.0,0.0,0.0,0.0,0.0,0.0,0.0,0.0,0.0,0.0,0.0,0.0,0.0,0.0,0.0,0.0,0.0,0.0,0.0,0.0,0.0,0.0,0.0,0.0,0.0,0.0,0.0,0.0,0.0,0.0,0.0,0.0,0.0,-4.1898,-4.2911,-4.3758,-4.4232,-4.5261,-4.6337,-4.7436,-4.7835,-4.826,-4.8896,-4.931,0.0,0.0,0.0,0.0,0.0,0.0,0.0,0.0,0.0,0.0,0.0,0.0,0.0,0.0,0.0,0.0,0.0,0.0,0.0,0.0,0.0,0.0,0.0,0.0,0.0,0.0,0.0,0.0,0.0,0.0,0.0,0.0,0.0,0.0,0.0,0.0,0.0,0.0,0.0,0.0,0.0,0.0,0.0,0.0,0.0,0.0,0.0,0.0,0.0,0.0,0.0,0.0,0.0,0.0,0.0,0.0,0.0,0.0,0.0,-3.8269,-3.7434,0.0,0.0,0.0,0.0,0.0,0.0,0.0,0.0,0.0,0.0,0.0,0.0,0.0,0.0,0.0,0.0,0.0,0.0,0.0,0.0,0.0,0.0,0.0,0.0,0.0,0.0,0.0,0.0,0.0,0.0,0.0,0.0,0.0,0.0,0.0,0.0,0.0,0.0,0.0,0.0,-4.4243,-4.5249,-4.6249,-4.7129,-4.7952,-4.8936,-5.011,-5.0466,-5.0811,-5.1329,-5.1688,0.0,0.0,0.0,0.0,0.0,0.0,0.0,0.0,0.0,0.0,0.0,0.0,0.0,0.0,0.0,0.0,0.0,0.0,0.0,0.0,0.0,0.0,0.0,0.0,0.0,0.0,0.0,0.0,0.0,0.0,0.0,0.0,0.0,0.0,0.0,0.0,0.0,0.0,0.0,0.0,0.0,0.0,0.0,0.0,0.0,0.0,0.0,0.0,0.0,0.0,0.0,0.0,0.0,-4.1488,-4.2082,-4.2111,-4.2735,-4.2961,-4.2853,-4.0901,-3.9876,-3.9606,-3.9569,0.0,0.0,0.0,0.0,0.0,0.0,0.0,0.0,0.0,0.0,0.0,0.0,0.0,0.0,0.0,0.0,0.0,0.0,0.0,0.0,0.0,0.0,-4.2271,-4.3686,-4.4026,-4.3716,-4.2573,0.0,0.0,0.0,0.0,0.0,0.0,0.0,0.0,0.0,0.0,0.0,-4.7068,-4.7618,-4.8627,-5.0457,-5.0826,-5.1529,-5.2979,-5.3199,-5.3465,-5.3922,-5.4188,-5.4427,0.0,0.0,0.0,0.0,0.0,0.0,0.0,0.0,0.0,0.0,0.0,0.0,0.0,0.0,0.0,0.0,0.0,0.0,0.0,0.0,0.0,0.0,0.0,0.0,0.0,0.0,0.0,0.0,0.0,0.0,0.0,0.0,-3.2709,-3.2837,0.0,0.0,0.0,0.0,0.0,0.0,0.0,0.0,0.0,0.0,0.0,0.0,0.0,-3.9995,-4.1318,-4.1307,-4.1955,-4.3307,-4.348,-4.3868,-4.4533,-4.4498,-4.451,-4.4492,-4.4067,0.0,-4.1948,-4.1886,0.0,0.0,0.0,0.0,0.0,0.0,0.0,0.0,0.0,0.0,0.0,0.0,0.0,0.0,0.0,0.0,0.0,0.0,0.0,0.0,0.0,0.0,-4.4957,-4.5815,-4.6031,-4.6314,-4.7356,-4.5886,-4.4588,-4.5497,-4.5702,-4.5917,0.0,0.0,0.0,0.0,0.0,0.0,-4.9943,-5.0592,-5.1329,-5.2254,-5.2892,-5.3582,-5.463,-5.4701,-5.4919,-5.5343,-5.5479,-5.5455,-5.5286,-5.5464,0.0,0.0,0.0,0.0,0.0,0.0,0.0,0.0,0.0,0.0,0.0,0.0,0.0,0.0,0.0,0.0,0.0,0.0,0.0,0.0,0.0,0.0,0.0,0.0,0.0,0.0,0.0,0.0,0.0,-3.3077,-3.378,-3.4251,-3.4672,-3.5356,0.0,0.0,0.0,0.0,0.0,0.0,0.0,0.0,0.0,-4.1082,-4.1757,-4.2413,-4.3027,-4.3304,-4.3994,-4.5084,-4.5527,-4.6068,-4.682,-4.716,-4.7311,-4.7311,-4.7265,-4.6855,-4.6132,-4.4321,-4.3393,-4.3072,0.0,0.0,0.0,0.0,-4.2655,-4.2655,-4.2714,-4.2714,-4.2714,-4.2714,0.0,0.0,0.0,0.0,0.0,0.0,0.0,-4.5405,-4.6665,-4.6973,-4.7241,-4.8457,-4.8707,-4.8823,-4.947,-4.91,-4.8544,-4.8341,-4.841,-4.8768,-4.9582,-4.9753,0.0,0.0,0.0,-5.1718,-5.2405,-5.3435,-5.4317,-5.4934,-5.5704,-5.6492,-5.7316,-5.7424,-5.7585,-5.7952,-5.7637,-5.7486,-5.7547,-5.6908,-5.6478,0.0,0.0,0.0,0.0,0.0,0.0,0.0,0.0,0.0,0.0,0.0,0.0,0.0,0.0,0.0,0.0,0.0,0.0,0.0,0.0,0.0,0.0,0.0,0.0,0.0,0.0,0.0,0.0,-3.4203,-3.5021,-3.5815,-3.6589,-3.7337,0.0,0.0,0.0,0.0,0.0,0.0,-4.1107,-4.2271,-4.2864,-4.2796,-4.3987,-4.4678,-4.4736,-4.5504,-4.6209,-4.6892,-4.7519,-4.811,-4.8572,-4.9144,-4.9412,-4.9412,-4.9412,-4.9412,-4.9234,-4.6783,-4.5695,-4.5517,-4.5579,-4.5329,-4.4989,-4.5333,-4.5323,-4.5222,-4.554,-4.5654,-4.5696,-4.5719,-4.5843,-4.5947,-4.6005,0.0,0.0,0.0,0.0,-4.7537,-4.8734,-4.8989,-4.9352,-5.0908,-5.1193,-5.1237,-5.1658,-5.2224,-5.2266,-5.0895,-5.0965,-5.1515,-5.236,-5.2532,0.0,-5.376,-5.431,-5.4775,-5.5148,-5.6146,-5.7035,-5.756,-5.8226,-5.8875,-5.9366,-5.9526,-5.9683,-5.9889,-5.9492,-5.9267,-5.9301,-5.8305,-5.7733,-5.759,0.0,0.0,0.0,0.0,0.0,0.0,0.0,0.0,0.0,0.0,0.0,0.0,0.0,0.0,0.0,0.0,0.0,0.0,0.0,0.0,0.0,0.0,0.0,0.0,0.0,0.0,0.0,0.0,0.0,-3.7484,-3.8175,0.0,0.0,0.0,0.0,-4.1667,-4.2158,-4.2746,-4.3398,-4.3962,-4.4542,-4.5091,-4.5755,-4.6413,-4.7035,-4.7823,-4.8575,-4.9328,-4.9503,-4.9603,-4.9657,-4.9675,-4.9711,-4.9711,-4.9711,-4.9711,-4.9647,-4.9234,-4.8657,-4.8043,-4.8153,-4.7286,-4.6032,-4.696,-4.6805,-4.6266,-4.7168,-4.7482,-4.7524,-4.7697,-4.7882,-4.808,-4.8194,-4.8823,0.0,0.0,-5.0343,-5.0954,-5.1046,-5.1065,-5.1397,-5.2825,-5.3152,-5.3553,-5.5012,-5.5459,-5.5037,-5.3058,-5.328,-5.4109,-5.5048,0.0,-5.554,-5.6436,-5.6646,-5.7143,-5.8542,-5.8816,-5.9115,-5.9789,-5.9899,-5.9935,-5.9939,-5.999,-6.004,-6.0188,-6.0298,-6.0073,-5.9612,-5.9608,-5.9046,-5.7806,-5.6967,0.0,0.0,0.0,0.0,0.0,0.0,0.0,0.0,0.0,0.0,0.0,0.0,0.0,0.0,0.0,0.0,0.0,0.0,0.0,0.0,0.0,0.0,0.0,0.0,0.0,0.0,0.0,0.0,-3.909,-3.9369,0.0,-4.1184,-4.1901,-4.2557,-4.3215,-4.3818,-4.4402,-4.4985,-4.6117,-4.6721,-4.6705,-4.7944,-4.8668,-4.8793,-4.9108,-4.9647,-5.0419,-5.0466,-5.0736,-5.1239,-5.1239,-5.1239,-5.1239,-5.1239,-5.1239,-5.1239,-5.1144,-5.0325,-4.9159,-4.9205,-4.8938,-4.856,-4.8981,-4.9014,-4.8883,-4.9283,-4.9392,-4.9434,-4.9683,-4.9845,-4.9984,-5.0231,-5.0546,-5.0842,-5.1041,-5.1316,-5.1635,-5.2156,-5.266,-5.3256,-5.4275,-5.4825,-5.5262,-5.5812,-5.6343,-5.6498,-5.576,-5.5429,-5.5668,-5.7092,-5.7332,-5.7818,-5.919,-5.9374,-5.955,-6.0075,-6.0609,-6.0985,-6.1135,-6.163,-6.1924,-6.1924,-6.1924,-6.1992,-6.2137,-6.1687,-6.1154,-6.0559,-6.0092,-5.9446,-5.8592,-5.7828,-5.7172,0.0,0.0,0.0,0.0,0.0,0.0,0.0,0.0,0.0,0.0,0.0,0.0,0.0,0.0,0.0,0.0,0.0,0.0,0.0,0.0,0.0,0.0,0.0,0.0,0.0,-3.8002,-3.9013,-4.0363,-4.1127,-4.1917,-4.2888,-4.3811,-4.4461,-4.4822,-4.5423,-4.601,-4.6597,-4.774,-4.8416,-4.8435,-4.972,-5.0362,-5.0244,-5.0543,-5.094,-5.1463,-5.1509,-5.1798,-5.2322,-5.2322,-5.2322,-5.2322,-5.2322,-5.2322,-5.2322,-5.2322,-5.169,-5.0733,-5.0687,-5.057,-5.0488,-5.0867,-5.0926,-5.0854,-5.1237,-5.1412,-5.1454,-5.1654,-5.1814,-5.1913,-5.2141,-5.227,-5.238,-5.2875,-5.2984,-5.3171,-5.3975,-5.452,-5.5119,-5.5902,-5.6383,-5.6769,-5.7029,-5.7427,-5.7844,-5.8122,-5.7611,-5.7531,-5.8659,-5.9084,-5.9756,-6.1152,-6.1577,-6.1855,-6.2068,-6.2808,-6.3279,-6.3136,-6.3567,-6.3769,-6.3474,-6.3456,-6.3394,-6.3231,-6.2743,-6.2058,-6.1056,-6.063,-5.998,-5.91,-5.811,-5.735,-5.6757,0.0,0.0,0.0,0.0,0.0,0.0,0.0,0.0,0.0,0.0,0.0,0.0,0.0,0.0,0.0,0.0,0.0,0.0,0.0,0.0,0.0,0.0,0.0,-3.9052,-3.9642,-4.0496,-4.1307,-4.3364,-4.4731,-4.4787,-4.5996,-4.6725,-4.6601,-4.7091,-4.7684,-4.8263,-4.893,-4.9609,-5.0326,-5.1071,-5.1401,-5.1366,-5.2182,-5.2635,-5.2635,-5.2761,-5.2806,-5.2806,-5.2806,-5.2806,-5.2806,-5.2806,-5.2824,-5.2842,-5.2842,-5.286,-5.2878,-5.2626,-5.2118,-5.1599,-5.2543,-5.2473,-5.2095,-5.3033,-5.3474,-5.3573,-5.3573,-5.3732,-5.3887,-5.3887,-5.4019,-5.437,-5.5301,-5.5525,-5.5713,-5.6499,-5.6724,-5.6949,-5.7622,-5.7846,-5.807,-5.8816,-5.8961,-5.9179,-5.9961,-5.9894,-5.9712,-5.9863,-6.0511,-6.1371,-6.2313,-6.3156,0.0,-6.4577,-6.5364,-6.5834,-6.5737,-6.5688,-6.5355,-6.4524,-6.4432,-6.4081,-6.3305,-6.3373,-6.2705,-6.1187,-6.1217,-6.0662,-5.9214,-5.7855,-5.6814,-5.619,0.0,0.0,0.0,0.0,0.0,0.0,0.0,0.0,0.0,0.0,0.0,0.0,0.0,0.0,0.0,0.0,0.0,0.0,0.0,0.0,0.0,-4.0406,-4.0787,-3.9948,-4.1011,-4.2373,-4.379,-4.4399,-4.5157,-4.6336,-4.7709,-4.8427,-4.824,-4.9398,-5.0119,-5.0086,-5.0835,-5.1242,-5.1231,-5.2101,-5.2565,-5.2539,-5.2834,-5.2969,-5.2969,-5.3011,-5.303,-5.303,-5.303,-5.303,-5.303,-5.303,-5.3378,-5.3946,-5.3946,-5.4338,-5.492,-5.4052,-5.3668,-5.3708,-5.462,-5.4896,-5.4796,-5.5101,-5.5318,-5.5516,-5.5516,-5.5674,-5.5828,-5.5884,-5.5939,-5.6068,-5.6403,-5.6514,-5.6605,-5.6829,-5.7352,-5.7841,-5.8031,-5.8484,-5.8915,-5.9121,-5.9547,-5.9972,-6.0196,-6.1102,-6.1837,-6.1682,-6.1886,-6.2498,-6.3936,-6.4345,-6.4744,-6.558,-6.5914,-6.6044,-6.5997,-6.6007,-6.5989,-6.5747,-6.5281,-6.4897,-6.4674,-6.4078,-6.3059,-6.1479,-6.1569,-6.0979,-5.9512,-5.8642,-5.8078,0.0,0.0,0.0,0.0,0.0,0.0,0.0,0.0,0.0,0.0,0.0,0.0,0.0,0.0,0.0,0.0,0.0,0.0,0.0,0.0,0.0,0.0,-4.2258,-4.2806,-4.2328,-4.3003,-4.3904,-4.4849,-4.5767,-4.6833,-4.807,-4.9177,-4.9884,-5.0014,-5.0803,-5.1361,-5.1464,-5.1882,-5.2206,-5.2394,-5.2913,-5.3235,-5.3258,-5.3263,-5.3511,-5.3902,-5.3902,-5.4086,-5.4437,-5.4437,-5.4437,-5.4437,-5.4437,-5.4714,-5.5217,-5.5217,-5.5512,-5.5923,0.0,0.0,0.0,0.0,-5.6043,-5.6066,-5.6147,-5.6304,-5.6441,-5.6441,-5.6499,-5.665,-5.6668,-5.6742,-5.6872,-5.7317,-5.7446,-5.7557,-5.7984,-5.8452,-5.8792,-5.8792,-5.9098,-5.9419,-5.9347,-5.989,-6.0505,-6.0802,-6.1865,0.0,-6.2997,-6.3028,-6.3456,-6.4759,-6.5243,-6.5765,-6.6602,-6.703,-6.7254,-6.7254,-6.7328,-6.7206,-6.6806,-6.6112,0.0,0.0,0.0,-6.3271,-6.1745,-6.1168,0.0,0.0,0.0,-5.866,-5.8772,-5.812,0.0,0.0,-5.5663,-5.5422,0.0,0.0,0.0,0.0,0.0,0.0,0.0,0.0,0.0,0.0,0.0,0.0,0.0,0.0,0.0,0.0,-4.4494,-4.5478,-4.5388,-4.5489,-4.5518,-4.535,-4.7337,-4.9041,-4.9768,-5.0522,-5.1222,-5.1731,-5.1745,-5.1973,-5.2567,-5.2527,0.0,0.0,0.0,-5.3582,-5.3623,-5.3754,-5.422,-5.506,-5.5153,-5.56,-5.6383,-5.6383,-5.6383,-5.6383,-5.6383,-5.6439,-5.6474,-5.6474,-5.6548,-5.6604,-5.6145,-5.6103,-5.6284,-5.6525,-5.6623,-5.6623,-5.6817,0.0,0.0,-5.6912,-5.693,-5.6967,-5.6967,-5.7078,-5.7355,-5.8138,-5.8326,-5.8549,-5.9408,-5.9616,-5.9616,-5.9616,-5.9616,-5.9581,-5.9529,-6.0153,-6.0942,-6.1559,-6.2339,-6.3117,-6.3827,-6.3915,-6.4214,-6.5055,-6.5877,-6.6698,-6.7502,-6.8361,-6.8902,-6.8902,-6.8948,0.0,-6.7715,-6.6955,-6.6132,-6.5328,-6.4383,-6.3268,-6.1977,-6.0448,-5.9719,-5.9918,-5.9159,-5.8924,-5.915,-5.8453,-5.8137,-5.82,-5.7982,-5.7905,0.0,0.0,0.0,0.0,0.0,0.0,0.0,0.0,0.0,0.0,0.0,0.0,0.0,0.0,0.0,-4.5782,-4.6677,-4.728,-4.7209,-4.8305,-4.884,-4.8067,-4.8916,-4.9901,-5.0667,-5.1989,-5.2855,-5.2973,-5.3406,-5.3697,-5.3757,-5.3647,-5.3646,-5.3717,-5.3813,-5.3833,-5.3814,-5.4708,-5.5229,-5.5416,-5.6179,0.0,-5.6797,-5.6797,-5.6797,-5.6797,-5.6797,-5.7172,-5.7735,-5.7735,-5.811,-5.8596,-5.7654,-5.7723,-5.8399,-5.8439,-5.8478,-5.8478,-5.8517,-5.8632,-5.8689,-5.8689,-5.8728,-5.8784,-5.8784,-5.8876,0.0,-5.921,-5.93,-5.9408,-5.9685,-5.9757,-5.9757,-5.9757,-5.9757,-5.9723,-5.9616,-6.075,-6.1825,-6.1976,-6.3106,-6.4138,-6.4405,-6.4125,-6.4214,-6.5055,-6.5877,-6.6698,-6.7502,-6.8361,-6.8929,-6.8964,-6.9072,-6.8803,-6.8044,-6.7379,-6.661,-6.5762,-6.3653,-6.2371,-6.214,-6.0657,-5.9885,-5.9963,-5.9954,-5.9987,-6.0065,-5.9988,-5.9993,-5.9955,-5.8544,-5.7905,0.0,0.0,0.0,0.0,0.0,0.0,0.0,0.0,0.0,0.0,0.0,-4.5492,-4.6254,0.0,-4.6987,-4.73,-4.8391,-4.9171,-4.9064,-5.0469,-5.0969,-4.9556,-5.0472,-5.1527,-5.2305,-5.3118,-5.369,-5.4031,-5.4261,-5.4368,-5.4284,-5.4179,-5.4127,-5.4091,-5.4127,-5.4385,-5.4832,-5.5369,-5.6077,-5.6939,-5.7422,-5.7871,-5.8232,-5.8232,-5.8232,-5.8232,-5.8232,-5.8476,-5.8853,-5.8853,-5.9079,-5.9399,-5.884,-5.8822,-5.9081,-5.9081,-5.9081,-5.9081,-5.9158,-5.9196,-5.9253,-5.9253,-5.9328,-5.9401,-5.9401,-5.9474,-5.9545,-5.9618,-5.9669,-5.9704,-5.9805,-5.9857,-5.9857,-5.9857,-5.9857,-5.9805,-5.9704,-6.0988,-6.2159,-6.2087,-6.3408,-6.4501,-6.4596,-6.4385,-6.4528,-6.5373,-6.5843,-6.6406,-6.7251,-6.8095,-6.8602,-6.865,-6.8692,-6.8625,-6.8232,-6.7181,-6.6012,-6.4765,-6.3192,-6.2144,-6.1828,-6.0627,-6.0045,-6.0156,-6.0235,-6.0323,-6.0408,-6.0472,-6.0525,-6.0533,-5.9664,-5.9228,0.0,0.0,0.0,0.0,0.0,0.0,0.0,-4.4994,-4.5784,-4.6469,-4.7096,-4.7726,-4.8542,-4.8716,-4.8781,-4.8853,-5.0125,-5.1084,-5.096,-5.2238,-5.2633,-5.1108,-5.2088,-5.3141,-5.381,-5.3992,-5.4297,-5.4833,-5.4742,-5.4661,-5.4584,-5.4538,-5.4491,-5.4491,-5.4491,-5.4919,-5.5847,-5.6036,-5.6932,-5.849,-5.8642,-5.9057,-5.97,-5.97,-5.97,-5.97,-5.97,-5.97,-5.97,-5.97,-5.97,-5.97,-5.9666,-5.9526,-5.9365,-5.929,-5.9253,-5.929,-5.9346,-5.9383,-5.9383,-5.9383,-5.9438,-5.9529,-5.9529,-5.9599,-5.965,-5.9791,-5.9824,-5.9857,-5.9918,-5.995,-5.995,-5.995,-5.995,-5.9918,-5.989,-6.1012,-6.2091,-6.2192,-6.3404,-6.45,-6.467,-6.4708,-6.4898,-6.5483,-6.5709,-6.6068,-6.6766,-6.7558,-6.8107,-6.8107,-6.8146,-6.8071,-6.794,-6.6654,-6.5213,-6.3748,-6.2924,-6.2186,-6.1431,-6.0574,-6.0197,-6.0313,-6.0294,-6.038,-6.0499,-6.0525,-6.0552,-6.0629,-6.0629,-6.0604,-4.3669,-4.3691,-4.3867,-4.4648,-4.5426,-4.6195,0.0,-4.7736,-4.8371,-4.8484,-4.853,-4.8749,-4.9512,-5.0216,-5.0874,-5.1466,-5.2356,-5.2955,-5.2895,-5.3659,-5.4134,-5.3942,-5.3915,-5.397,-5.404,-5.4657,-5.5061,-5.513,-5.5038,-5.4971,-5.4941,-5.4882,-5.4841,-5.4841,-5.4841,-5.525,-5.6046,-5.6884,-5.7787,-5.8767,-5.9532,-5.9962,-6.0038,-6.0038,-6.0038,-6.0038,-6.0038,-6.0038,-6.0038,-6.0038,-6.0038,-6.0038,-5.9994,-5.9931,-5.9899,-5.9631,-5.9545,-5.9581,-5.9562,-5.9581,-5.9581,-5.9581,-5.9581,-5.9581,-5.9581,-5.9669,-5.9791,-5.9872,-5.9918,-5.9994,-6.0057,-6.0087,-6.0087,-6.0087,-6.0087,-6.0087,-6.0087,-6.0829,-6.1692,-6.2414,-6.3223,-6.4063,-6.4981,-6.5008,-6.4888,-6.4766,-6.5351,-6.586,-6.5954,-6.6749,-6.7354,-6.7505,-6.7559,-6.7328,-6.6692,-6.5779,-6.4881,-6.393,-6.3055,-6.2218,-6.1431,-6.0673,-6.0264,-6.0313,-6.0352,-6.0417,-6.0499,-6.0552,-6.0629,-6.0685,-6.0753,-6.0704,-4.5148,-4.5138,-4.525,-4.5613,-4.6358,-4.7089,-4.7421,-4.8568,-4.9563,-4.9551,-4.9912,-5.0451,-5.124,-5.1655,-5.211,-5.2825,-5.3665,-5.4177,-5.4091,-5.4767,-5.5267,-5.5265,-5.5203,-5.5097,-5.4939,-5.5197,-5.5358,-5.5333,-5.5255,-5.5203,-5.5176,-5.5168,-5.5121,-5.5121,-5.5121,-5.575,-5.7092,-5.7501,-5.833,-5.9634,-5.9987,-6.0129,-6.0099,-6.0099,-6.0099,-6.0099,-6.0099,-6.0099,-6.0099,-6.0099,-6.0099,-6.0099,-6.0087,-6.0057,-6.0026,-5.9767,-5.9666,-5.9666,-5.9597,-5.9616,-5.9616,-5.9616,-5.965,-5.9723,-5.9723,-5.9805,-5.9918,-5.995,-5.9994,-6.0038,-6.0099,-6.0099,-6.0099,-6.0099,-6.0099,-6.0099,-6.0099,-6.0784,-6.1507,-6.185,-6.2541,-6.3174,-6.3619,-6.3644,-6.3579,-6.3426,-6.4582,-6.5435,-6.5435,-6.6191,-6.6758,-6.6793,-6.6828,-6.6539,-6.577,-6.4946,-6.414,-6.3302,-6.2487,-6.1648,-6.0857,-6.0523,-6.0352,-6.0352,-6.0417,-6.0499,-6.0552,-6.0629,-6.0685,-6.0777,-6.08,-6.0777,-4.6169,-4.6177,-4.6169,-4.6209,-4.7045,-4.7865,-4.7852,-4.9218,-5.0464,-5.0461,-5.091,-5.1503,-5.2083,-5.2366,-5.2699,-5.3217,-5.4206,-5.4881,-5.4768,-5.5453,-5.5959,-5.5923,-5.5904,-5.5807,-5.5638,-5.5596,-5.5551,-5.5504,-5.548,-5.5432,-5.5383,-5.5358,-5.5358,-5.5358,-5.5358,-5.6046,-5.7519,-5.7519,-5.8238,-5.9616,-5.9616,-5.9607,-5.955,-5.955,-5.955,-5.955,-5.955,-5.9665,-5.9874,-5.9874,-6.0008,-6.0237,-6.0237,-6.0237,-6.0207,-6.0007,-5.988,-5.9815,-5.9748,-5.9734,-5.9734,-5.9734,-5.9786,-5.9872,-5.9872,-5.995,-6.0026,-6.0076,-6.0106,-6.0167,-6.0178,-6.0178,-6.0178,-6.0178,-6.0178,-6.0178,-6.0178,-6.0673,-6.1187,-6.1416,-6.193,-6.2407,-6.2635,-6.2692,-6.2692,-6.2692,-6.3759,-6.4635,-6.4799,-6.556,-6.6107,-6.6121,-6.6121,-6.5797,-6.4978,-6.4393,-6.3604,-6.2536,-6.1927,-6.123,-6.0427,-6.0389,-6.0417,-6.0417,-6.0472,-6.0552,-6.0629,-6.068,-6.0734,-6.08,-6.0823,-6.0823,-4.6085,-4.6095,-4.613,-4.6169,-4.7483,-4.8761,-4.8755,-5.0103,-5.1363,-5.1367,-5.1377,-5.1394,-5.1429,-5.2071,-5.2589,-5.2553,-5.3919,-5.4977,-5.4899,-5.5602,-5.6082,-5.6012,-5.594,-5.5885,-5.5885,-5.5826,-5.5787,-5.5787,-5.5682,-5.5596,-5.5596,-5.5527,-5.5504,-5.5504,-5.5504,-5.5926,-5.6803,-5.6822,-5.7263,-5.8169,-5.8169,-5.8169,-5.8144,-5.8144,-5.8144,-5.8144,-5.8144,-5.8585,-5.9313,-5.9313,-5.9811,-6.0578,-6.0578,-6.0578,-6.0578,-6.0499,-6.0294,-6.0068,-6.0087,-6.0068,-6.0068,-6.0068,-6.0087,-6.0068,-6.0068,-6.0099,-6.0118,-6.0264,-6.0294,-6.0294,-6.0361,-6.0389,-6.0389,-6.0389,-6.0389,-6.0389,-6.0389,-6.0408,-6.0656,-6.144,-6.1612,-6.1917,-6.2758,-6.2911,-6.2911,-6.2911,-6.2949,-6.3214,-6.3848,-6.475,-6.5359,-6.5402,-6.5433,-6.5108,-6.4305,-6.421,-6.3465,-6.1745,-6.1612,-6.123,-6.0427,-6.0389,-6.0417,-6.0499,-6.0499,-6.0559,-6.0685,-6.0685,-6.0734,-6.08,-6.0869,-6.0911,-4.5953,-4.5997,-4.6056,-4.6123,-4.703,-4.7938,-4.7947,-4.9282,-5.0529,-5.0545,-5.0994,-5.1584,-5.2159,-5.2459,-5.2785,-5.3349,-5.3857,-5.4175,-5.4103,-5.4349,-5.4483,-5.4425,-5.4394,-5.4359,-5.431,-5.5248,-5.5885,-5.5885,-5.5826,-5.5806,-5.5806,-5.5724,-5.5703,-5.5703,-5.566,-5.6041,-5.6906,-5.6925,-5.7344,-5.8184,-5.8117,-5.8092,-5.8092,-5.8092,-5.8092,-5.8092,-5.8092,-5.8246,-5.8552,-5.9089,-5.9466,-5.9799,-6.0374,-6.0604,-6.0604,-6.0578,-6.0506,-6.0425,-6.0217,-6.0129,-6.0099,-6.0099,-6.0099,-6.0099,-6.0099,-6.0167,-6.0245,-6.0313,-6.0323,-6.0361,-6.0389,-6.0389,-6.0389,-6.0389,-6.0389,-6.0417,-6.0444,-6.0472,-6.0548,-6.0889,-6.0928,-6.1023,-6.131,-6.1368,-6.1559,-6.2076,-6.2623,-6.3255,-6.4057,-6.4479,-6.492,-6.5466,-6.5044,-6.4623,-6.4355,-6.3264,-6.2344,-6.177,-6.1234,-6.0813,-6.0525,-6.0525,-6.0552,-6.0578,-6.0629,-6.0635,-6.0685,-6.0734,-6.08,-6.0869,-6.0891,-6.0933,-4.579,-4.5898,-4.5986,-4.6085,-4.6783,-4.7474,-4.7482,-4.8616,-4.9634,-4.966,-5.0117,-5.0769,-5.1613,-5.1747,-5.1999,-5.2863,-5.3202,-5.3361,-5.3319,-5.3557,-5.3696,-5.3643,-5.3649,-5.3601,-5.3538,-5.4448,-5.517,-5.5479,-5.5769,-5.5943,-5.5943,-5.5866,-5.5826,-5.5787,-5.5766,-5.5994,-5.653,-5.653,-5.6777,-5.7309,-5.7267,-5.7243,-5.7243,-5.7243,-5.7243,-5.7243,-5.7243,-5.7416,-5.7785,-5.8304,-5.8688,-5.9057,-5.9941,-6.0268,-6.0306,-6.0638,-6.0704,-6.0635,-6.0406,-6.0294,-6.0237,-6.0237,-6.0237,-6.0207,-6.0207,-6.0275,-6.0323,-6.0323,-6.038,-6.0417,-6.0417,-6.0444,-6.0444,-6.0472,-6.0472,-6.0472,-6.0525,-6.0525,-6.0552,-6.0604,-6.0604,-6.0604,-6.0604,-6.0604,-6.0776,-6.1294,-6.1824,-6.2705,-6.4172,-6.4372,-6.4707,-6.5512,-6.4879,-6.4266,-6.3959,-6.2617,-6.1677,-6.139,-6.0891,-6.0604,-6.0604,-6.0604,-6.0604,-6.0629,-6.068,-6.071,-6.0753,-6.08,-6.0846,-6.0891,-6.0916,-6.0959,-4.5496,-4.5815,-4.5929,-4.6056,-4.6717,-4.7345,-4.7423,-4.8117,-4.8757,-4.8816,-4.8867,-4.9131,-4.9895,-5.0039,-5.0299,-5.1121,-5.1947,-5.2461,-5.2474,-5.3165,-5.3647,-5.3572,-5.3566,-5.3546,-5.3466,-5.3456,-5.3797,-5.4617,-5.5436,-5.5864,-5.5864,-5.5847,-5.5808,-5.5749,-5.5767,-5.5766,-5.5703,-5.5703,-5.5703,-5.5703,-5.5703,-5.5703,-5.5703,-5.5703,-5.5703,-5.5703,-5.5684,-5.6227,-5.7039,-5.7097,-5.758,-5.8432,-5.93,-5.9628,-5.9743,-6.0573,-6.0798,-6.0666,-6.052,-6.0501,-6.0499,-6.0499,-6.0472,-6.0417,-6.0417,-6.0417,-6.0417,-6.0417,-6.0417,-6.0417,-6.0499,-6.0499,-6.0525,-6.0578,-6.0604,-6.0604,-6.0604,-6.0604,-6.0604,-6.0604,-6.0604,-6.0604,-6.0604,-6.0604,-6.0604,-6.0604,-6.068,-6.1607,-6.4044,-6.4323,-6.463,-6.5454,-6.4822,-6.3978,-6.3115,-6.2233,-6.1409,-6.0661,-6.0604,-6.0604,-6.0604,-6.0604,-6.0655,-6.071,-6.0729,-6.0753,-6.08,-6.0869,-6.0891,-6.0891,-6.0981,-6.1002,-4.4771,-4.5357,-4.5929,-4.5997,-4.6231,-4.6454,-4.6527,-4.724,-4.7908,-4.7927,-4.8456,-4.8955,-4.9173,-4.9181,-4.9206,-4.9424,-5.0186,-5.0723,-5.0672,-5.1356,-5.1871,-5.1839,-5.1836,-5.1819,-5.1742,-5.2311,-5.2762,-5.2913,-5.3685,-5.4138,-5.4138,-5.4685,-5.4997,-5.4977,-5.5499,-5.5787,-5.5766,-5.5724,-5.5703,-5.5703,-5.5703,-5.5703,-5.5703,-5.5703,-5.5703,-5.5703,-5.5745,-5.5921,-5.6191,-5.6887,-5.7312,-5.7602,-5.8412,-5.874,-5.876,-5.8991,-5.9048,-5.9006,-5.8965,-5.9677,-6.0578,-6.0578,-6.0525,-6.0472,-6.0472,-6.0472,-6.0472,-6.0472,-6.0499,-6.0552,-6.0578,-6.0578,-6.0578,-6.0604,-6.0604,-6.0604,-6.066,-6.066,-6.0704,-6.0753,-6.0753,-6.0753,-6.0753,-6.0753,-6.0777,-6.0823,-6.0846,-6.1493,-6.3297,-6.3553,-6.3924,-6.477,-6.4097,-6.3251,-6.2425,-6.156,-6.0964,-6.0753,-6.0753,-6.0753,-6.0753,-6.0753,-6.0753,-6.0757,-6.0757,-6.08,-6.0869,-6.0891,-6.0935,-6.0962,-6.0982,-6.1022,-4.382,-4.4363,-4.4824,-4.4898,-4.5239,-4.5597,-4.5663,-4.6382,-4.703,-4.703,-4.7418,-4.7874,-4.8255,-4.8302,-4.8391,-4.8742,-4.9217,-4.9517,-4.9481,-4.9837,-5.0238,-5.0626,-5.0653,-5.0767,-5.1101,-5.1574,-5.18,-5.1787,-5.286,-5.3511,-5.3511,-5.3926,-5.4162,-5.4125,-5.4534,-5.4902,-5.5228,-5.5532,-5.5703,-5.5703,-5.5703,-5.5703,-5.5703,-5.5703,-5.5724,-5.5745,-5.5787,-5.5846,-5.5943,-5.6464,-5.6695,-5.6809,-5.764,-5.7968,-5.7987,-5.8355,-5.8491,-5.8491,-5.8452,-5.8986,-5.9677,-6.0013,-6.0054,-6.0054,-6.0437,-6.0552,-6.0552,-6.0552,-6.0578,-6.0604,-6.0655,-6.0635,-6.0655,-6.0729,-6.0729,-6.0753,-6.0823,-6.0823,-6.0846,-6.0869,-6.0888,-6.0888,-6.0888,-6.0888,-6.0911,-6.0933,-6.0955,-6.1373,-6.2594,-6.2791,-6.3141,-6.4008,-6.3334,-6.2621,-6.2182,-6.135,-6.0888,-6.0888,-6.0888,-6.0888,-6.0888,-6.0888,-6.0888,-6.0888,-6.0888,-6.0911,-6.0955,-6.0938,-6.096,-6.1002,-6.1022,-6.106,-4.284,-4.3208,-4.3427,-4.347,-4.4111,-4.474,-4.4799,-4.5406,-4.5941,-4.5955,-4.595,-4.6222,-4.71,-4.7256,-4.7522,-4.8318,-4.8547,-4.8632,-4.8638,-4.8666,-4.898,-4.9732,-4.9771,-5.007,-5.0942,-5.0965,-5.0991,-5.1108,-5.2399,-5.3174,-5.3174,-5.3278,-5.3365,-5.3411,-5.3411,-5.3743,-5.4476,-5.5186,-5.5588,-5.5703,-5.5703,-5.5703,-5.5703,-5.5703,-5.5745,-5.5787,-5.5826,-5.5866,-5.5999,-5.5999,-5.6033,-5.6175,-5.693,-5.7218,-5.7327,-5.8012,-5.8288,-5.8255,-5.8201,-5.8143,-5.8218,-5.9075,-5.9326,-5.9479,-6.0201,-6.0508,-6.0629,-6.0629,-6.0629,-6.0655,-6.071,-6.0734,-6.0777,-6.0888,-6.0891,-6.0933,-6.0976,-6.0997,-6.0997,-6.0997,-6.0997,-6.0997,-6.0997,-6.0997,-6.0997,-6.0997,-6.0997,-6.1248,-6.1964,-6.2135,-6.2502,-6.3254,-6.2656,-6.2174,-6.2058,-6.1402,-6.0997,-6.0997,-6.0997,-6.0997,-6.0997,-6.0997,-6.0997,-6.0997,-6.0997,-6.0997,-6.0997,-6.1001,-6.1002,-6.1022,-6.108,-6.1099,-4.2174,-4.2789,-4.3427,-4.347,-4.3661,-4.3845,-4.3914,-4.4048,-4.415,-4.4157,-4.4156,-4.4426,-4.5285,-4.546,-4.5707,-4.6523,-4.7259,-4.7735,-4.7723,-4.8296,-4.8766,-4.8903,-4.8866,-4.9167,-5.0031,-5.0106,-5.0406,-5.1132,-5.1386,-5.1502,-5.1431,-5.2128,-5.2779,-5.3372,-5.3411,-5.3743,-5.4476,-5.4649,-5.5033,-5.5703,-5.5703,-5.5703,-5.5703,-5.5703,-5.5745,-5.5787,-5.5846,-5.5924,-5.5999,-5.5996,-5.6048,-5.6117,-5.6272,-5.6362,-5.6432,-5.6552,-5.6595,-5.6527,-5.6527,-5.6459,-5.6657,-5.8062,-5.8938,-5.9484,-5.959,-6.0104,-6.0685,-6.0753,-6.08,-6.0846,-6.0933,-6.0955,-6.0955,-6.0976,-6.0976,-6.0995,-6.1017,-6.0997,-6.0997,-6.0997,-6.0997,-6.0997,-6.0997,-6.0997,-6.1018,-6.1001,-6.1001,-6.106,-6.1273,-6.1811,-6.2271,-6.2425,-6.229,-6.1943,-6.1267,-6.1094,-6.0997,-6.0997,-6.0997,-6.0997,-6.0997,-6.0997,-6.0997,-6.0997,-6.0997,-6.0999,-6.1001,-6.1002,-6.1022,-6.108,-6.1099,-6.1099,-4.1318,-4.1686,-4.2059,-4.214,-4.2536,-4.2942,-4.3007,-4.3368,-4.37,-4.371,-4.369,-4.3839,-4.4254,-4.4328,-4.4458,-4.4836,-4.5255,-4.5669,-4.6092,-4.6488,-4.705,-4.7918,-4.799,-4.8302,-4.9148,-4.9215,-4.9593,-5.0464,-5.0491,-5.0642,-5.1037,-5.1421,-5.1769,-5.2092,-5.252,-5.2893,-5.3263,-5.3668,-5.4283,-5.5068,-5.5068,-5.528,-5.5703,-5.5703,-5.5745,-5.5787,-5.5885,-5.5943,-5.5999,-5.6014,-5.6029,-5.6098,-5.6133,-5.618,-5.6209,-5.6214,-5.6184,-5.6149,-5.6082,-5.6031,-5.6114,-5.685,-5.7658,-5.8464,-5.9287,-5.9845,-6.0269,-6.0776,-6.0933,-6.0955,-6.0976,-6.0997,-6.0997,-6.1,-6.1021,-6.106,-6.106,-6.106,-6.106,-6.106,-6.106,-6.106,-6.106,-6.108,-6.1099,-6.1099,-6.1117,-6.1173,-6.1191,-6.1503,-6.1737,-6.1679,-6.1698,-6.1582,-6.1176,-6.1157,-6.1137,-6.1119,-6.1099,-6.108,-6.1041,-6.106,-6.106,-6.106,-6.106,-6.106,-6.1041,-6.1041,-6.108,-6.1099,-6.1099,-6.1099,-4.0713,-4.0757,-4.0826,-4.0877,-4.1468,-4.2032,-4.2086,-4.2639,-4.3147,-4.3144,-4.3144,-4.3202,-4.3386,-4.3414,-4.3486,-4.3673,-4.3704,-4.3924,-4.4526,-4.4787,-4.5397,-4.6719,-4.7022,-4.7454,-4.8254,-4.8331,-4.869,-4.9562,-4.9796,-5.0258,-5.1063,-5.1048,-5.0971,-5.0906,-5.1512,-5.1925,-5.2104,-5.2742,-5.3436,-5.4222,-5.4414,-5.4818,-5.5453,-5.5607,-5.5745,-5.5787,-5.5865,-5.5905,-5.5981,-5.5996,-5.6029,-5.6082,-5.6149,-5.6194,-5.6204,-5.6194,-5.6199,-5.6164,-5.6065,-5.6012,-5.5995,-5.5998,-5.6541,-5.7429,-5.876,-5.9415,-5.9859,-6.0555,-6.0864,-6.1039,-6.1059,-6.1059,-6.106,-6.1061,-6.1099,-6.1155,-6.1155,-6.1155,-6.1155,-6.1155,-6.1155,-6.1155,-6.1155,-6.1192,-6.1227,-6.1227,-6.1281,-6.1297,-6.1297,-6.1314,-6.1278,-6.1245,-6.1261,-6.1297,-6.1297,-6.1297,-6.1281,-6.1227,-6.1227,-6.121,-6.1155,-6.1137,-6.1117,-6.1117,-6.1099,-6.1099,-6.1099,-6.1099,-6.1099,-6.1099,-6.1099,-6.1099,-4.079,-4.0796,-4.0812,-4.0886,-4.1003,-4.1128,-4.1124,-4.1237,-4.1348,-4.1341,-4.1347,-4.1582,-4.2363,-4.2511,-4.2789,-4.3567,-4.3697,-4.37,-4.3727,-4.4403,-4.4962,-4.5105,-4.5831,-4.6633,-4.7423,-4.7515,-4.7845,-4.8662,-4.9457,-5.0246,-5.1062,-5.1053,-5.0971,-5.0906,-5.0967,-5.136,-5.2104,-5.2163,-5.2589,-5.3337,-5.4126,-5.453,-5.4645,-5.5376,-5.5745,-5.5787,-5.5826,-5.5846,-5.5905,-5.5961,-5.5996,-5.6012,-5.6082,-5.6149,-5.6199,-5.6199,-5.6149,-5.6098,-5.6098,-5.6046,-5.6012,-5.5995,-5.6539,-5.7216,-5.7313,-5.8451,-5.9745,-5.9882,-6.048,-6.1118,-6.1227,-6.1281,-6.1281,-6.1261,-6.1281,-6.1281,-6.1281,-6.1281,-6.1281,-6.1281,-6.1281,-6.1281,-6.1281,-6.1297,-6.1297,-6.1297,-6.1297,-6.1297,-6.1297,-6.1291,-6.1287,-6.1287,-6.1294,-6.1297,-6.1297,-6.1297,-6.1297,-6.1297,-6.1297,-6.1297,-6.1281,-6.1227,-6.1192,-6.1192,-6.1137,-6.1099,-6.1099,-6.1099,-6.1099,-6.1099,-6.1099,-6.1099,-4.0029,-4.0409,-4.0812,-4.0837,-4.0888,-4.0952,-4.0986,-4.1056,-4.1094,-4.1094,-4.109,-4.1211,-4.1543,-4.162,-4.1732,0.0,0.0,-4.2307,-4.2807,-4.3187,-4.3565,-4.4052,-4.4883,-4.5538,-4.5854,-4.6336,-4.6941,-4.7766,-4.8608,-4.9232,-4.953,-5.0505,-5.1005,-5.0906,-5.0893,-5.1035,-5.1313,-5.1277,-5.1645,-5.2433,-5.2779,-5.3222,-5.3722,-5.4049,-5.4512,-5.5014,-5.5035,-5.5325,-5.5846,-5.5905,-5.5943,-5.5942,-5.6012,-5.6065,-5.6082,-5.6114,-5.6114,-5.6098,-5.6046,-5.6029,-5.6012,-5.6012,-5.6227,-5.6576,-5.708,-5.8103,-5.9203,-5.9723,-6.0532,-6.1227,-6.1297,-6.1297,-6.1297,-6.1297,-6.1297,-6.1297,-6.1297,-6.1297,-6.1297,-6.1297,-6.1297,-6.1297,-6.1297,-6.1294,-6.1291,-6.1291,-6.1341,-6.1356,-6.1356,-6.1366,-6.1356,-6.1356,-6.1352,-6.1356,-6.1356,-6.1356,-6.1341,-6.1306,-6.1291,-6.131,-6.1297,-6.1261,-6.1245,-6.1245,-6.1227,-6.1227,-6.1227,-6.1227,-6.1227,-6.1227,-6.1227,-6.1227,-3.9131,-3.9557,-4.0033,-4.0059,-4.0286,-4.0528,-4.0595,-4.0851,-4.1086,-4.1097,-4.1101,-4.1092,-4.1094,-4.1094,-4.1093,0.0,0.0,-4.1316,-4.1939,-4.2237,-4.2596,-4.3156,-4.3987,-4.4526,-4.4518,-4.5246,-4.6047,-4.684,-4.7711,-4.8179,-4.8089,-4.9503,-5.0371,-5.0523,-5.0494,-5.0576,-5.0775,-5.072,-5.0972,-5.1548,-5.1798,-5.2201,-5.2797,-5.3047,-5.3488,-5.4064,-5.4337,-5.4801,-5.5399,-5.573,-5.5846,-5.5885,-5.5941,-5.5959,-5.5996,-5.6031,-5.6031,-5.6031,-5.5996,-5.5959,-5.5959,-5.5977,-5.6014,-5.6111,-5.6729,-5.7749,-5.8809,-5.9387,-6.0406,-6.133,-6.133,-6.133,-6.133,-6.133,-6.133,-6.133,-6.133,-6.133,-6.133,-6.133,-6.133,-6.133,-6.133,-6.1341,-6.1337,-6.1337,-6.1386,-6.14,-6.1394,-6.1402,-6.1396,-6.1428,-6.1421,-6.1428,-6.1428,-6.1428,-6.1414,-6.1361,-6.1347,-6.1332,-6.1341,-6.131,-6.1294,-6.1294,-6.1314,-6.1297,-6.1297,-6.1297,-6.1297,-6.1297,-6.1297,-6.1297,-3.8214,-3.821,-3.8249,-3.8315,-3.8966,-3.9626,-3.9696,-4.0383,-4.1025,-4.1081,-4.1101,-4.1099,-4.1093,-4.1094,-4.1093,-4.1108,-4.1099,-4.1101,-4.1115,-4.1857,-4.2373,-4.2318,-4.3084,-4.3615,-4.3615,-4.4334,-4.5143,-4.5944,-4.6826,-4.7275,-4.7129,-4.7947,-4.8783,-4.9586,-4.9553,-4.9907,-5.0682,-5.0701,-5.0702,-5.0721,-5.1529,-5.1854,-5.1832,-5.2696,-5.3078,-5.305,-5.3913,-5.4342,-5.4485,-5.5335,-5.5745,-5.5826,-5.5866,-5.5905,-5.5905,-5.5905,-5.5905,-5.5905,-5.5905,-5.5905,-5.5905,-5.5981,-5.5999,-5.5999,-5.6014,-5.7265,-5.8709,-5.8703,-6.0022,-6.14,-6.14,-6.14,-6.14,-6.14,-6.14,-6.14,-6.14,-6.14,-6.14,-6.14,-6.14,-6.14,-6.14,-6.14,-6.14,-6.14,-6.14,-6.1394,-6.1396,-6.1396,-6.1428,-6.1503,-6.1503,-6.1503,-6.1503,-6.1503,-6.1503,-6.1503,-6.1428,-6.1396,-6.1396,-6.1347,-6.1302,-6.1302,-6.1294,-6.1297,-6.1297,-6.1297,-6.1297,-6.1297,-6.1297,-6.1297,-3.7385,-3.782,-3.8266,-3.8287,-3.8511,-3.8733,-3.8801,-3.9059,-3.9466,-4.0082,-4.0258,-4.045,-4.0991,-4.1093,-4.1103,-4.1107,-4.1094,-4.109,-4.1096,-4.134,-4.1479,-4.1429,-4.2186,-4.2922,-4.348,-4.4297,-4.4879,-4.5095,-4.5822,-4.6267,-4.6206,-4.6391,-4.7169,-4.8665,-4.8654,-4.8987,-4.9798,-4.976,-5.0028,-5.0582,-5.0832,-5.0926,-5.0905,-5.1193,-5.1634,-5.2187,-5.2456,-5.3245,-5.4361,-5.4633,-5.5097,-5.5662,-5.5745,-5.5787,-5.5846,-5.5885,-5.5905,-5.5905,-5.5905,-5.5905,-5.5905,-5.5924,-5.5962,-5.5999,-5.5998,-5.7265,-5.8971,-6.0196,-6.0944,-6.14,-6.14,-6.14,-6.14,-6.14,-6.14,-6.14,-6.14,-6.14,-6.14,-6.14,-6.14,-6.14,-6.14,-6.14,-6.14,-6.14,-6.1394,-6.1402,-6.1396,-6.1433,-6.1487,-6.1498,-6.1528,-6.1548,-6.1503,-6.1503,-6.1503,-6.1503,-6.1472,-6.146,-6.1396,-6.1369,-6.1375,-6.1386,-6.1371,-6.1356,-6.1356,-6.1356,-6.1356,-6.1356,-6.1356,-6.1356,0.0,-3.6939,-3.7347,-3.7355,-3.7597,-3.7866,-3.7929,0.0,0.0,0.0,0.0,0.0,-4.0054,-4.0153,-4.0154,-4.012,-4.0129,-4.0227,-4.0554,-4.0602,-4.0701,-4.0926,-4.1438,-4.2082,-4.2897,-4.374,-4.4327,-4.4596,-4.5336,-4.5742,-4.5731,-4.5618,-4.6067,-4.716,-4.7489,-4.8029,-4.8856,-4.9123,-4.9525,-5.0002,-5.0327,-5.05,-5.0457,-5.0457,-5.0744,-5.1239,-5.1564,-5.2334,0.0,-5.4005,-5.4584,-5.5151,-5.5481,-5.5682,-5.5724,-5.5766,-5.5806,-5.5826,-5.5826,-5.5826,-5.5826,-5.5846,-5.6136,-5.6521,-5.6885,-5.7804,-5.9064,-6.0852,-6.1386,-6.14,-6.14,-6.14,-6.14,-6.14,-6.14,-6.14,-6.14,-6.14,-6.14,-6.14,-6.14,-6.14,-6.14,-6.14,-6.14,-6.1394,-6.1402,-6.1408,-6.1433,-6.1468,-6.1519,-6.1549,-6.1578,-6.1578,-6.1537,-6.1537,-6.1537,-6.1537,-6.1507,-6.1476,-6.1433,-6.144,-6.1434,-6.1394,-6.1394,-6.1394,-6.14,-6.14,-6.14,-6.14,-6.14,-6.14,0.0,-3.5811,-3.5807,-3.5818,-3.6421,-3.7031,-3.7085,0.0,0.0,0.0,0.0,0.0,-3.8592,-3.8607,-3.8587,-3.8592,-3.8592,-3.8892,-3.9766,-3.9877,-4.0135,-4.082,-4.0898,-4.1186,-4.1923,-4.2782,-4.3589,-4.4332,-4.5194,-4.5651,-4.5586,-4.5513,-4.5457,-4.5381,-4.6167,-4.701,-4.7893,-4.8698,-4.9139,-4.9196,-5.0078,-5.0457,-5.039,-5.039,-5.0348,-5.0359,-5.1162,-5.1567,-5.1829,-5.3436,-5.4192,-5.4373,-5.5178,-5.5527,-5.5596,-5.5596,-5.566,-5.5684,-5.5684,-5.5703,-5.5724,-5.5766,-5.6445,-5.7389,-5.8368,-5.8745,-5.9126,-6.0821,-6.1352,-6.1386,-6.14,-6.14,-6.14,-6.14,-6.14,-6.14,-6.14,-6.14,-6.14,-6.14,-6.14,-6.14,-6.14,-6.14,-6.1394,-6.1396,-6.1396,-6.1433,-6.1489,-6.1489,-6.1519,-6.1588,-6.1607,-6.1607,-6.1607,-6.1607,-6.1607,-6.1607,-6.1549,-6.1489,-6.1489,-6.1507,-6.1472,-6.1396,-6.1396,-6.1402,-6.14,-6.14,-6.14,-6.14,-6.14,-6.14,-3.596,0.0,-3.5885,-3.5872,-3.6035,-3.6184,0.0,0.0,0.0,0.0,0.0,0.0,0.0,0.0,-3.8748,-3.9399,-3.9491,-3.9786,-4.0602,-4.0624,-4.0626,-4.0789,-4.0784,-4.0803,-4.0951,-4.229,-4.3192,-4.3327,-4.4684,-4.5457,-4.5438,-4.5341,-4.5258,-4.5256,-4.5404,-4.5944,-4.6931,-4.7792,-4.8518,-4.9124,-4.9966,-5.0325,-5.0325,-5.0325,-5.0302,-5.0302,-5.0531,-5.099,-5.1701,-5.2714,-5.3566,-5.4302,-5.5107,-5.5456,-5.5527,-5.5527,-5.5573,-5.5618,-5.5618,-5.566,-5.5724,-5.5766,-5.6444,-5.7371,-5.8259,-5.9047,-5.985,-6.0977,-6.1302,-6.1337,-6.1386,-6.14,-6.14,-6.14,-6.14,-6.14,-6.14,-6.14,-6.14,-6.14,-6.14,-6.14,-6.14,-6.1408,-6.1402,-6.1396,-6.1445,-6.1479,-6.1489,-6.1549,-6.1578,-6.1607,-6.1607,-6.1607,-6.1607,-6.1607,-6.1607,-6.1607,-6.1588,-6.1549,-6.1489,-6.1509,-6.1487,-6.1472,-6.1428,-6.1402,-6.14,-6.1408,-6.1402,-6.1402,-6.1447,-6.1479,-3.595,-3.5954,-3.5958,-3.5958,-3.5955,-3.5951,0.0,0.0,0.0,0.0,0.0,0.0,0.0,0.0,-3.8013,-3.8481,-3.8896,-3.9439,-4.0198,-4.0544,-4.0706,-4.0706,-4.0642,-4.0574,-4.0519,-4.2008,-4.2975,-4.2868,-4.4384,-4.532,-4.532,-4.5194,-4.5148,-4.5148,-4.5125,-4.5357,-4.5903,-4.7125,-4.7983,-4.8438,-4.9616,-5.0207,-5.0207,-5.0255,-5.0236,-5.0255,-5.0278,-5.0569,-5.1104,-5.2308,-5.3097,-5.3675,-5.4918,-5.5427,-5.5456,-5.5456,-5.5527,-5.5596,-5.5596,-5.564,-5.5724,-5.5826,-5.6714,-5.7853,-5.8375,-5.9435,-6.0573,-6.1139,-6.1306,-6.1322,-6.1386,-6.14,-6.14,-6.14,-6.14,-6.14,-6.14,-6.14,-6.14,-6.14,-6.14,-6.14,-6.1394,-6.1402,-6.1408,-6.1433,-6.1468,-6.1519,-6.1549,-6.1578,-6.1607,-6.1607,-6.1607,-6.1607,-6.1607,-6.1607,-6.1607,-6.1607,-6.1607,-6.1578,-6.1549,-6.1549,-6.1539,-6.1507,-6.1452,-6.1447,-6.1441,-6.1447,-6.146,-6.146,-6.1472,-6.1503,-3.5919,-3.594,-3.5976,-3.5975,-3.5994,-3.5995,-3.5996,0.0,0.0,0.0,0.0,0.0,0.0,-3.6637,-3.7164,-3.7432,-3.8177,-3.8947,-3.9572,-4.0179,-4.0579,-4.0564,-4.0504,-4.0482,-4.0515,-4.1933,-4.2852,-4.2849,-4.4274,-4.5148,-4.5148,-4.508,-4.5114,-4.5247,-4.5247,-4.5304,-4.5437,-4.6868,-4.7672,-4.7824,-4.9365,-5.0108,-5.0108,-5.0158,-5.0188,-5.0188,-5.0255,-5.0302,-5.0436,-5.2098,-5.2805,-5.2957,-5.4715,-5.539,-5.5402,-5.5408,-5.548,-5.5596,-5.5596,-5.564,-5.5724,-5.5846,-5.7043,-5.8413,-5.8548,-5.9764,-6.1137,-6.1245,-6.1275,-6.1302,-6.1371,-6.1386,-6.14,-6.14,-6.14,-6.14,-6.14,-6.14,-6.14,-6.1414,-6.1414,-6.1428,-6.1415,-6.1428,-6.1433,-6.1489,-6.1519,-6.1549,-6.1588,-6.1607,-6.1607,-6.1607,-6.1607,-6.1607,-6.1607,-6.1607,-6.1607,-6.1607,-6.1607,-6.1607,-6.1607,-6.1607,-6.1578,-6.1489,-6.1507,-6.1503,-6.1503,-6.1503,-6.1515,-6.1515,-6.1515,-6.1515,-3.6021,-3.5813,-3.5846,-3.5903,-3.5951,-3.5989,-3.5923,0.0,0.0,0.0,0.0,0.0,0.0,-3.6977,-3.7471,-3.8889,-3.977,-4.0268,-4.0352,-4.0396,-4.0411,-4.0341,-4.0288,-4.0501,-4.109,-4.2062,-4.2876,-4.3407,-4.4345,-4.4846,-4.4846,-4.4815,-4.5085,-4.5847,-4.5918,-4.6284,-4.6959,-4.7384,-4.7976,-4.8718,-4.9651,-5.0108,-5.0108,-5.0108,-5.0158,-5.0188,-5.0212,-5.0255,-5.0436,-5.2098,-5.2805,-5.2957,-5.4715,-5.5403,-5.5409,-5.5402,-5.5456,-5.5527,-5.566,-5.5703,-5.5724,-5.5787,-5.6983,-5.8413,-5.8491,-5.9727,-6.1137,-6.1191,-6.1245,-6.1294,-6.1322,-6.1352,-6.14,-6.14,-6.14,-6.14,-6.1402,-6.1402,-6.1415,-6.146,-6.1491,-6.1491,-6.1472,-6.1476,-6.1479,-6.1489,-6.1549,-6.1588,-6.1607,-6.1607,-6.1607,-6.1607,-6.1607,-6.1607,-6.1607,-6.1607,-6.1607,-6.1607,-6.1607,-6.1607,-6.1607,-6.1607,-6.1578,-6.1489,-6.1509,-6.1487,-6.1503,-6.1487,-6.1509,-6.1509,-6.1568,-6.1578,-3.6619,-3.6386,-3.6295,-3.5898,-3.583,-3.5875,-3.5846,0.0,0.0,0.0,0.0,0.0,0.0,-3.7684,-3.8632,-3.9791,-4.028,-4.0457,-4.0392,-4.0307,-4.0387,-4.0788,-4.0746,-4.0986,-4.1772,-4.2606,-4.3204,-4.3529,-4.4291,-4.4952,-4.5425,-4.5436,-4.5787,-4.6617,-4.6709,-4.7159,-4.801,-4.8124,-4.8409,-4.8808,-4.9625,-5.0005,-5.0005,-5.0031,-5.0082,-5.0158,-5.0188,-5.0255,-5.0397,-5.1639,-5.2403,-5.2919,-5.4199,-5.4989,-5.5396,-5.548,-5.5527,-5.5573,-5.5682,-5.5724,-5.5766,-5.5826,-5.7023,-5.8472,-5.8528,-5.9746,-6.1099,-6.1173,-6.1245,-6.1294,-6.1287,-6.1352,-6.14,-6.14,-6.14,-6.14,-6.1402,-6.1396,-6.1428,-6.1491,-6.1503,-6.1503,-6.1507,-6.1498,-6.1519,-6.1549,-6.1578,-6.1607,-6.1607,-6.1607,-6.1607,-6.1607,-6.1607,-6.1607,-6.1607,-6.1607,-6.1607,-6.1607,-6.1607,-6.1607,-6.1607,-6.1607,-6.1588,-6.1549,-6.1549,-6.1549,-6.1548,-6.1559,-6.1549,-6.1549,-6.1595,-6.1603,-3.7397,-3.7158,-3.6969,-3.6137,0.0,-3.5772,-3.5791,-3.5776,0.0,0.0,0.0,0.0,-3.7398,-3.8614,-3.9734,-4.026,-4.0342,-4.0289,-4.0234,-4.027,-4.0547,-4.1174,-4.1313,-4.1657,-4.2435,-4.3077,-4.3573,-4.3947,-4.4557,-4.5273,-4.6139,-4.6223,-4.66,-4.741,-4.7513,-4.7983,-4.8852,-4.8962,-4.8969,-4.8988,-4.9595,-4.9898,-4.9879,-4.9933,-5.0031,-5.0108,-5.0139,-5.0212,-5.0378,-5.1448,-5.2251,-5.29,-5.3995,-5.4828,-5.5456,-5.5551,-5.5596,-5.5618,-5.5703,-5.5766,-5.5807,-5.5905,-5.7082,-5.851,-5.8566,-5.9782,-6.1117,-6.1192,-6.1245,-6.1294,-6.1287,-6.1352,-6.14,-6.14,-6.14,-6.1414,-6.1415,-6.1428,-6.144,-6.1515,-6.1526,-6.1507,-6.1519,-6.1519,-6.1549,-6.1588,-6.1607,-6.1607,-6.1607,-6.1607,-6.1588,-6.1597,-6.1597,-6.1597,-6.1606,-6.1606,-6.1606,-6.1606,-6.1597,-6.1607,-6.1607,-6.1597,-6.1597,-6.1597,-6.1606,-6.1606,-6.1606,-6.1603,-6.1592,-6.1592,-6.1607,-6.1595,-3.8157,-3.7911,-3.77,-3.6848,-3.6153,0.0,-3.5708,-3.5698,0.0,-3.6674,0.0,-3.7289,-3.8832,-3.9777,-4.0302,-4.0234,-4.0157,-4.0077,-3.9954,-4.0549,-4.1028,-4.1019,-4.1674,-4.2398,-4.3077,-4.319,-4.383,-4.526,-4.5488,-4.5892,-4.6716,-4.6869,-4.7293,-4.8112,-4.8229,-4.873,-4.9598,-4.9768,-4.9803,-4.9803,-4.986,-4.9898,-4.9898,-4.9906,-4.9978,-5.0108,-5.0108,-5.0182,-5.0436,-5.204,-5.2747,-5.2957,-5.4656,-5.5423,-5.5573,-5.5596,-5.564,-5.5703,-5.5766,-5.5806,-5.5826,-5.5943,-5.7139,-5.851,-5.8566,-5.982,-6.1173,-6.121,-6.1259,-6.1302,-6.1302,-6.1352,-6.14,-6.14,-6.14,-6.1414,-6.1479,-6.1503,-6.1515,-6.1568,-6.1578,-6.1588,-6.1588,-6.1588,-6.1588,-6.1607,-6.1607,-6.1607,-6.1607,-6.1607,-6.1597,-6.1595,-6.1595,-6.1612,-6.1588,-6.1595,-6.1595,-6.1595,-6.1595,-6.1607,-6.1607,-6.1606,-6.1595,-6.1595,-6.16,-6.1595,-6.1595,-6.1595,-6.1595,-6.1595,-6.1595,-6.1595,-3.893,-3.8681,-3.8489,-3.7663,-3.7262,0.0,0.0,-3.5939,-3.6395,-3.6716,-3.7579,-3.8612,-3.9665,-4.0059,-4.0177,-4.0036,-3.9954,-4.0079,-4.0518,-4.0764,-4.1274,-4.2246,-4.2581,-4.3025,-4.3793,-4.4335,-4.4897,-4.5533,-4.6038,-4.6735,-4.7609,-4.7714,-4.8138,-4.8983,-4.9133,-4.9372,-4.9692,-4.9843,-4.9898,-4.9898,-4.9898,-4.9898,-4.9898,-4.9898,-4.9978,-5.0108,-5.0108,-5.0182,-5.0397,-5.1563,-5.237,-5.303,-5.4829,-5.5551,-5.5596,-5.566,-5.5684,-5.5766,-5.5787,-5.5846,-5.5924,-5.5981,-5.7175,-5.8621,-5.8639,-5.9891,-6.1261,-6.1259,-6.1271,-6.1302,-6.1302,-6.1352,-6.14,-6.14,-6.1394,-6.1421,-6.1491,-6.1495,-6.1528,-6.1578,-6.1607,-6.1607,-6.1607,-6.1607,-6.1607,-6.1607,-6.1597,-6.1606,-6.1606,-6.1603,-6.1592,-6.16,-6.1607,-6.1607,-6.1595,-6.1595,-6.1595,-6.1595,-6.16,-6.1592,-6.1592,-6.16,-6.1607,-6.1607,-6.1595,-6.1595,-6.1595,-6.1648,-6.1381,-6.0854,-6.084,-6.0553,-3.9635,-3.9446,-3.9235,-3.8395,0.0,0.0,-3.6412,-3.6607,-3.7141,-3.7379,-3.8536,-3.9637,-4.0024,-4.0058,-3.9994,-3.9826,-3.9758,-3.9991,-4.0785,-4.1022,-4.1619,-4.2968,-4.3296,-4.365,-4.4199,-4.5002,-4.5611,-4.5884,-4.67,-4.7585,-4.8502,-4.8607,-4.8901,-4.9502,-4.9653,-4.9721,-4.9721,-4.9843,-4.9898,-4.9898,-4.9898,-4.9898,-4.9898,-4.9906,-5.0005,-5.0108,-5.0133,-5.0359,-5.0779,-5.1644,-5.2709,-5.3871,-5.5132,-5.5618,-5.5682,-5.5724,-5.5766,-5.5826,-5.5846,-5.5924,-5.5999,-5.6016,-5.7054,-5.8344,-5.8612,-5.973,-6.098,-6.1229,-6.1322,-6.1318,-6.1332,-6.1366,-6.14,-6.1394,-6.1402,-6.1428,-6.1495,-6.1498,-6.1519,-6.1588,-6.1607,-6.1607,-6.1607,-6.1597,-6.1597,-6.1597,-6.1595,-6.1592,-6.1592,-6.1607,-6.1621,-6.1621,-6.1628,-6.1634,-6.1634,-6.1634,-6.1634,-6.1634,-6.1634,-6.1628,-6.1595,-6.1621,-6.1621,-6.1621,-6.1628,-6.1634,-6.1634,-6.1679,-6.1256,-6.0397,-6.0408,-5.9924,-4.0234,-4.0196,-3.9967,0.0,0.0,0.0,-3.7814,-3.7769,-3.8118,-3.8872,-3.9642,-4.0137,-3.9933,-3.9889,-3.9826,-3.9623,-3.9551,-3.9777,-4.06,-4.1324,-4.21,-4.2922,-4.3762,-4.4255,-4.4214,-4.4929,-4.573,-4.6549,-4.7466,-4.8383,-4.927,-4.944,-4.9521,-4.9593,-4.9682,-4.9721,-4.9807,-4.9871,-4.9898,-4.9898,-4.9898,-4.9898,-4.9879,-4.9978,-5.0031,-5.0108,-5.0182,-5.0751,-5.1677,-5.2552,-5.3989,-5.5596,-5.5596,-5.5662,-5.5787,-5.5787,-5.5846,-5.5905,-5.5981,-5.5999,-5.6017,-5.6084,-5.6698,-5.755,-5.8432,-5.9371,-6.0274,-6.107,-6.1352,-6.14,-6.1402,-6.1408,-6.14,-6.1402,-6.1396,-6.1421,-6.1498,-6.1489,-6.1519,-6.1588,-6.1607,-6.1607,-6.1607,-6.1606,-6.1603,-6.1603,-6.16,-6.1595,-6.1595,-6.1595,-6.1621,-6.1699,-6.1691,-6.1701,-6.1701,-6.1701,-6.1701,-6.1701,-6.1701,-6.1666,-6.1595,-6.1654,-6.1699,-6.1699,-6.1691,-6.1701,-6.1701,-6.1701,-6.1252,-6.0388,-6.0388,-5.9924,-4.0157,-4.0137,0.0,-3.9793,0.0,0.0,0.0,-3.8937,0.0,-3.9605,-3.9887,-3.9954,-3.9911,-3.9758,-3.9599,-3.9551,-3.9471,-3.9892,-4.1287,-4.1642,-4.2257,-4.3674,-4.3998,-4.4067,-4.4055,-4.4861,-4.5743,-4.6607,-4.7529,-4.8465,-4.9402,-4.9532,-4.9593,-4.9593,-4.9721,-4.9778,-4.9807,-4.9871,-4.9906,-4.9978,-4.9978,-4.9978,-4.9978,-5.0005,-5.0038,-5.0201,-5.0836,-5.1329,-5.1786,-5.3318,-5.4594,-5.5596,-5.5684,-5.5766,-5.5806,-5.5846,-5.5905,-5.5981,-5.5981,-5.6016,-5.6065,-5.6082,-5.6726,-5.7625,-5.8513,-5.9396,-6.0279,-6.1122,-6.1369,-6.1402,-6.146,-6.146,-6.1479,-6.1472,-6.1464,-6.1468,-6.1509,-6.1549,-6.1578,-6.1607,-6.1607,-6.1597,-6.1606,-6.1595,-6.1603,-6.1607,-6.1641,-6.1673,-6.1666,-6.1666,-6.1691,-6.1691,-6.1696,-6.1701,-6.1701,-6.1701,-6.1701,-6.1701,-6.1701,-6.1696,-6.1671,-6.1691,-6.1696,-6.1696,-6.1696,-6.1701,-6.1701,-6.1701,-6.0934,-5.949,-5.9488,-5.8713,-4.0077,-4.0057,0.0,-4.0036,-4.0015,-3.9975,-3.9933,-3.9597,-3.9429,-3.9922,-3.9933,-3.9845,-3.9819,-3.9642,-3.9502,-3.9446,-3.9362,-3.9879,-4.1493,-4.1678,-4.2262,-4.393,-4.4055,-4.4005,-4.4085,-4.4879,-4.5643,-4.6233,-4.7086,-4.799,-4.8957,-4.9055,-4.9265,-4.9663,-4.975,-4.9807,-4.9843,-4.9898,-4.9978,-5.0005,-5.0031,-5.0038,-5.0063,-5.0063,-5.0114,-5.0264,-5.1539,-5.2341,-5.2877,-5.4287,-5.5198,-5.5703,-5.5766,-5.5846,-5.5866,-5.5924,-5.598,-5.6033,-5.6033,-5.6084,-5.6149,-5.6145,-5.6539,-5.7255,-5.8473,-5.9199,-5.9866,-6.1097,-6.144,-6.144,-6.1495,-6.1507,-6.1507,-6.1507,-6.1498,-6.1519,-6.1529,-6.1578,-6.1588,-6.1597,-6.1606,-6.1606,-6.1592,-6.1619,-6.1634,-6.1641,-6.1679,-6.1691,-6.1696,-6.1701,-6.1701,-6.1701,-6.1701,-6.1701,-6.1701,-6.1701,-6.1701,-6.1701,-6.1709,-6.1694,-6.1694,-6.1705,-6.1705,-6.1694,-6.1694,-6.1694,-6.1694,-6.1694,-6.0987,-5.9607,-5.9292,-5.8407,-3.9996,-3.9975,-3.9975,-3.9911,-3.9826,-3.9781,-3.9712,-3.9826,-3.9954,-3.9889,-3.9826,-3.9777,-3.9717,-3.9607,-3.9471,-3.9399,-3.9301,-3.9714,-4.1256,-4.1553,-4.2166,-4.3708,-4.3968,-4.4036,-4.4184,-4.4854,-4.5394,-4.5581,-4.6274,-4.7151,-4.8144,-4.8276,-4.8758,-4.9674,-4.9769,-4.9843,-4.9925,-4.9978,-5.0005,-5.0031,-5.0082,-5.0158,-5.0231,-5.0212,-5.0269,-5.0446,-5.2073,-5.3357,-5.435,-5.5176,-5.5588,-5.5711,-5.5788,-5.5885,-5.5999,-5.5999,-5.6051,-5.6098,-5.6098,-5.6149,-5.6194,-5.6218,-5.6246,-5.6615,-5.8285,-5.8834,-5.9246,-6.0919,-6.1445,-6.1495,-6.1509,-6.1519,-6.1519,-6.1519,-6.1519,-6.1519,-6.1588,-6.1588,-6.1597,-6.1603,-6.1603,-6.1592,-6.1615,-6.1648,-6.1699,-6.1699,-6.1691,-6.1701,-6.1701,-6.1701,-6.1701,-6.1701,-6.1701,-6.1701,-6.1701,-6.1701,-6.1701,-6.1701,-6.1697,-6.1707,-6.1709,-6.1694,-6.1709,-6.1707,-6.1709,-6.1692,-6.1692,-6.1692,-6.1255,-6.0378,-5.9577,-5.8736,-3.9933,-3.987,0.0,-3.9826,-3.9758,-3.9712,-3.9689,-3.9735,-3.9758,-3.9754,-3.9727,-3.9717,-3.9693,-3.9552,-3.9425,-3.9399,-3.9229,-3.9482,-4.0494,-4.12,-4.1962,-4.2946,-4.3615,-4.4036,-4.4184,-4.4393,-4.4838,-4.5563,-4.5866,-4.6422,-4.7316,-4.8126,-4.8644,-4.8861,-4.9522,-4.9925,-4.9978,-5.0005,-5.0038,-5.0163,-5.0163,-5.0255,-5.0367,-5.0302,-5.0669,-5.1392,-5.1845,-5.2581,-5.3509,-5.4398,-5.4785,-5.4921,-5.5673,-5.596,-5.6014,-5.6048,-5.6117,-5.6184,-5.6184,-5.6194,-5.6218,-5.6246,-5.6285,-5.6496,-5.755,-5.8359,-5.9129,-6.0241,-6.1011,-6.1509,-6.1559,-6.1578,-6.1588,-6.1586,-6.1578,-6.1588,-6.1586,-6.1595,-6.1603,-6.1607,-6.1607,-6.1615,-6.1673,-6.1699,-6.1705,-6.1696,-6.1696,-6.1701,-6.1701,-6.1701,-6.1701,-6.1701,-6.1701,-6.1701,-6.1701,-6.1701,-6.1701,-6.1701,-6.1705,-6.1694,-6.1709,-6.1694,-6.1701,-6.1705,-6.1694,-6.1698,-6.1698,-6.1698,-6.1249,-6.0388,-5.9568,-5.873,-3.9848,0.0,0.0,-3.9731,0.0,-3.9679,-3.9656,-3.9656,-3.9656,-3.9656,-3.9674,-3.9693,-3.9669,-3.9502,-3.9391,-3.9391,-3.9229,-3.9398,-4.0271,-4.0754,-4.1489,-4.2709,-4.3211,-4.37,-4.4248,-4.4344,-4.457,-4.5068,-4.519,-4.563,-4.6579,-4.7106,-4.7602,-4.8079,-4.8503,-4.8972,-4.9467,-4.9512,-4.9777,-5.0255,-5.0278,-5.0367,-5.0478,-5.0435,-5.0897,-5.1751,-5.1834,-5.2374,-5.3282,-5.3745,-5.3975,-5.4108,-5.4607,-5.5084,-5.5478,-5.5513,-5.5796,-5.619,-5.6243,-5.6246,-5.6253,-5.6329,-5.6345,-5.6503,-5.737,-5.7975,-5.8608,-5.9922,-6.0604,-6.1023,-6.148,-6.1595,-6.1603,-6.16,-6.1603,-6.1595,-6.1592,-6.16,-6.1607,-6.1641,-6.1648,-6.1654,-6.1685,-6.171,-6.1691,-6.1696,-6.1701,-6.1701,-6.1701,-6.1701,-6.1701,-6.1701,-6.1701,-6.1701,-6.1701,-6.1701,-6.1709,-6.1707,-6.1694,-6.1694,-6.1695,-6.1692,-6.1707,-6.1707,-6.1698,-6.1699,-6.1699,-6.1699,-6.1465,-6.0996,-6.0156,-5.9316,-3.9781,0.0,-3.9684,-3.9669,-3.9669,-3.9669,-3.9596,-3.9577,-3.9602,-3.9602,-3.9645,-3.9669,-3.962,-3.9495,-3.9418,-3.9418,-3.9229,-3.937,-4.0095,-4.0318,-4.0942,-4.235,-4.276,-4.3266,-4.4149,-4.4336,-4.4468,-4.4605,-4.4632,-4.5014,-4.5861,-4.6057,-4.6506,-4.7295,-4.7466,-4.7914,-4.8705,-4.8777,-4.9167,-4.9905,-5.0106,-5.0347,-5.0623,-5.0584,-5.0949,-5.1603,-5.1683,-5.2165,-5.2897,-5.305,-5.3179,-5.3304,-5.3475,-5.4007,-5.4706,-5.4856,-5.537,-5.6032,-5.6246,-5.6329,-5.6333,-5.6386,-5.6388,-5.6544,-5.7274,-5.7604,-5.8011,-5.9453,-6.0094,-6.0481,-6.1214,-6.1502,-6.1595,-6.1602,-6.1627,-6.1619,-6.1615,-6.1621,-6.1628,-6.1699,-6.1705,-6.1705,-6.1696,-6.1701,-6.1701,-6.1701,-6.1701,-6.1701,-6.1701,-6.1701,-6.1701,-6.1701,-6.1701,-6.1701,-6.1701,-6.1701,-6.1697,-6.1699,-6.1707,-6.1629,-6.1484,-6.1484,-6.1406,-6.1269,-6.1543,-6.1699,-6.1699,-6.1699,-6.1699,-6.168,-6.0801,-5.9961,-3.9735,0.0,-3.9669,0.0,-3.9571,-3.9596,-3.952,-3.9571,-3.9602,-3.9602,-3.962,-3.962,-3.9602,-3.9546,-3.9469,-3.9418,-3.9275,-3.9221,-3.9332,-4.0002,-4.0589,-4.0858,-4.2128,-4.31,-4.3417,-4.4074,-4.4524,-4.4685,-4.4796,-4.4927,-4.5041,-4.5884,-4.643,-4.6549,-4.7281,-4.7766,-4.7968,-4.8012,-4.8135,-4.8311,-4.9143,-4.9933,-5.0702,-5.0739,-5.0797,-5.0856,-5.093,-5.1061,-5.1269,-5.2034,-5.2392,-5.2539,-5.3301,-5.3712,-5.3948,-5.4712,-5.5048,-5.5279,-5.6092,-5.6395,-5.6386,-5.6398,-5.6407,-5.6437,-5.6608,-5.719,-5.7841,-5.807,-5.9228,-6.0418,-6.0535,-6.1088,-6.1602,-6.1673,-6.1693,-6.1693,-6.1693,-6.1693,-6.1679,-6.1696,-6.1696,-6.1696,-6.1701,-6.1701,-6.1701,-6.1701,-6.1701,-6.1701,-6.1701,-6.1701,-6.1701,-6.1701,-6.1701,-6.1701,-6.1701,-6.1701,-6.1697,-6.1699,-6.1699,-6.1366,-6.0605,-6.0566,-6.0254,-5.9551,-6.0957,-6.1699,-6.1699,-6.1699,-6.1699,-6.168,-6.0801,-5.9961,-3.9607,-3.9577,-3.9571,0.0,-3.9469,-3.9495,-3.9495,-3.952,-3.9571,-3.9577,-3.9602,-3.9602,-3.9602,-3.9546,-3.9495,-3.9469,-3.9373,-3.9301,-3.9301,-3.9637,-4.0101,-4.0656,-4.133,-4.2002,-4.2603,-4.3465,-4.4033,-4.4134,-4.4649,-4.4991,-4.5061,-4.5487,-4.5764,-4.5848,-4.6214,-4.6677,-4.7219,-4.7259,-4.7549,-4.8106,-4.8565,-4.8983,-4.9365,-4.9415,-4.992,-5.0775,-5.0844,-5.0877,-5.0932,-5.1397,-5.1596,-5.1676,-5.2058,-5.2544,-5.3125,-5.4024,-5.4649,-5.5189,-5.6096,-5.6398,-5.6417,-5.6435,-5.6464,-5.6453,-5.6484,-5.6764,-5.7173,-5.7668,-5.8344,-5.9053,-5.9541,-5.9937,-6.0222,-6.0246,-6.0246,-6.0246,-6.0246,-6.1007,-6.1691,-6.1696,-6.1701,-6.1701,-6.1701,-6.1701,-6.1701,-6.1701,-6.1701,-6.1701,-6.1701,-6.1701,-6.1701,-6.1701,-6.1701,-6.1701,-6.1701,-6.1701,-6.1481,-6.0996,-6.0976,-6.0605,-5.9765,-5.9726,-5.9551,-5.9219,-5.9922,-6.0293,-6.0293,-6.0293,-6.0527,-6.0957,-6.0581,-6.0203,-3.9546,0.0,-3.9444,-3.9373,-3.9373,-3.9418,-3.9469,-3.9327,-3.9202,-3.9258,-3.9258,-3.9258,-3.9258,-3.9421,-3.952,-3.9495,-3.9451,-3.9451,-3.9451,-3.9432,-3.9708,-4.0453,-4.0741,-4.1167,-4.1893,-4.2796,-4.3455,-4.3734,-4.4372,-4.49,-4.5237,-4.5277,-4.5319,-4.5438,-4.5458,-4.5802,-4.651,-4.6528,-4.7024,-4.7957,-4.8009,-4.8137,-4.8342,-4.8406,-4.9088,-5.0223,-5.05,-5.0762,-5.0956,-5.1067,-5.1102,-5.1088,-5.112,-5.1544,-5.2288,-5.3174,-5.4041,-5.4908,-5.5784,-5.6251,-5.6435,-5.648,-5.6496,-5.6503,-5.6504,-5.6511,-5.6647,-5.731,-5.7635,-5.7958,-5.8602,-5.8919,-5.9104,-5.9104,-5.9104,-5.9104,-5.9104,-6.0119,-6.1037,-6.1037,-6.1213,-6.1369,-6.1369,-6.1544,-6.1701,-6.1701,-6.1701,-6.1701,-6.1701,-6.1705,-6.1705,-6.1701,-6.1701,-6.1705,-6.1697,-6.15,-6.1094,-6.0449,-6.0215,-5.9726,-5.8906,-5.8867,-5.8769,-5.8535,-5.8535,-5.8769,-5.9199,-5.9199,-5.9511,-6.0095,-6.0308,-6.0271,-3.9495,-3.9444,0.0,-3.9256,-3.9301,-3.9391,-3.9418,-3.8808,-3.8284,-3.8351,-3.8375,-3.8375,-3.8375,-3.9032,-3.9552,-3.9495,-3.9489,-3.9502,-3.9502,-3.9551,-3.9642,-3.9838,-4.0575,-4.1131,-4.1247,-4.2088,-4.299,-4.3817,-4.4055,-4.4498,-4.5342,-4.5457,-4.5532,-4.5605,-4.5582,-4.5651,-4.5758,-4.5815,-4.6317,-4.7254,-4.7254,-4.7688,-4.849,-4.849,-4.8548,-4.8664,-4.9497,-5.0344,-5.1101,-5.1102,-5.1088,-5.1105,-5.1178,-5.1219,-5.1386,-5.2329,-5.3175,-5.3993,-5.4935,-5.579,-5.6488,-5.6496,-5.6503,-5.6504,-5.6503,-5.6509,-5.6528,-5.6641,-5.7211,-5.7816,-5.7855,-5.848,-5.9104,-5.9104,-5.9104,-5.9104,-5.9104,-5.9163,-5.9241,-5.9236,-5.99,-6.0466,-6.0466,-6.1154,-6.1701,-6.1701,-6.1701,-6.1701,-6.1701,-6.1697,-6.1701,-6.1701,-6.1701,-6.1697,-6.1698,-6.0937,-6.0449,-6.039,-5.9687,-5.8867,-5.8008,-5.7969,-5.7578,-5.6758,-5.6738,-5.7558,-5.9199,-5.9199,-5.9215,-5.9285,-6.0041,-5.9959,-3.9354,-3.9283,-3.9256,-3.9156,-3.9156,-3.9248,-3.9373,-3.9175,-3.9002,-3.9102,-3.9126,-3.9126,-3.9126,-3.937,-3.962,-3.962,-3.9626,-3.9637,-3.9689,-3.9693,-3.9781,-3.9892,-4.0239,-4.0492,-4.0556,-4.1399,-4.2087,-4.2393,-4.3023,-4.3784,-4.4716,-4.479,-4.4823,-4.4901,-4.4897,-4.4675,-4.4241,-4.4788,-4.5262,-4.5603,-4.6166,-4.6624,-4.6968,-4.6968,-4.7259,-4.7805,-4.8116,-4.9046,-5.0343,-5.039,-5.0703,-5.1161,-5.119,-5.123,-5.1375,-5.228,-5.2775,-5.3241,-5.4699,-5.5397,-5.5755,-5.6329,-5.6491,-5.6503,-5.6558,-5.6558,-5.6563,-5.6586,-5.6801,-5.7035,-5.7035,-5.727,-5.7504,-5.7504,-5.7493,-5.75,-5.7508,-5.8332,-5.9104,-5.9101,-5.9355,-5.9573,-5.9573,-5.9826,-6.0022,-6.0022,-6.0022,-6.0054,-6.01,-6.0553,-6.0877,-6.0874,-6.1362,-6.1697,-6.1699,-6.0898,-6.0176,-5.9668,-5.8828,-5.7969,-5.7109,-5.707,-5.6914,-5.6601,-5.6601,-5.6914,-5.7539,-5.7532,-5.7812,-5.8363,-5.8616,-5.9163,-3.9256,-3.9183,-3.9156,-3.9101,-3.9101,-3.9129,-3.9346,-3.9167,-3.9013,-3.9139,-3.9145,-3.9169,-3.9194,-3.9438,-3.9645,-3.9693,-3.9741,-3.9773,-3.9845,-3.9892,-3.9975,-4.0058,-4.0157,-4.0215,-4.0252,-4.0875,-4.1385,-4.1671,-4.2294,-4.3065,-4.4003,-4.4076,-4.4103,-4.415,-4.4156,-4.3939,-4.3441,-4.4035,-4.4335,-4.4335,-4.521,-4.5647,-4.5704,-4.5996,-4.6452,-4.6986,-4.6995,-4.7942,-4.9526,-4.9848,-5.0315,-5.0831,-5.1123,-5.1258,-5.1382,-5.1946,-5.2336,-5.2762,-5.3935,-5.4515,-5.4853,-5.5463,-5.5865,-5.6109,-5.6153,-5.6372,-5.6606,-5.6606,-5.6606,-5.6606,-5.6606,-5.6606,-5.6606,-5.6606,-5.6598,-5.6602,-5.661,-5.7477,-5.8267,-5.8257,-5.8491,-5.8706,-5.8706,-5.894,-5.9135,-5.9135,-5.9135,-5.9153,-5.9182,-5.967,-6.001,-6.0,-6.0527,-6.0859,-6.0859,-6.0058,-5.9336,-5.8808,-5.7949,-5.7207,-5.6621,-5.6601,-5.6601,-5.6601,-5.6601,-5.6601,-5.6598,-5.6598,-5.6899,-5.7465,-5.7699,-5.8734,0.0,0.0,0.0,-3.9101,-3.9101,-3.9129,-3.9346,-3.8756,-3.8184,-3.8314,-3.8338,-3.8362,-3.8432,-3.9129,-3.9693,-3.9693,-3.9819,-3.9889,-3.9911,-4.0077,-4.0196,-4.0196,-4.0325,-4.0411,-4.0406,-4.0523,-4.0949,-4.1803,-4.1928,-4.2376,-4.3315,-4.3366,-4.3408,-4.3461,-4.3432,-4.3419,-4.3419,-4.3525,-4.3565,-4.3585,-4.4462,-4.489,-4.4929,-4.5787,-4.6183,-4.6203,-4.6196,-4.7131,-4.8681,-4.9576,-4.9964,-5.0079,-5.0917,-5.1284,-5.13,-5.13,-5.1846,-5.2567,-5.259,-5.3156,-5.3877,-5.3967,-5.4567,-5.5259,-5.5259,-5.5845,-5.6528,-5.6547,-5.6567,-5.6567,-5.6586,-5.6606,-5.6606,-5.6606,-5.6606,-5.6606,-5.6606,-5.6606,-5.6598,-5.6601,-5.7285,-5.7851,-5.7851,-5.8555,-5.9121,-5.9121,-5.9121,-5.9121,-5.9121,-5.914,-5.916,-5.916,-5.918,-5.9199,-5.9199,-5.8398,-5.789,-5.789,-5.707,-5.6601,-5.6601,-5.6601,-5.6601,-5.6601,-5.6601,-5.6597,-5.6606,-5.6606,-5.6606,-5.6626,-5.7426,-5.8729,-3.9129,0.0,0.0,0.0,0.0,0.0,-3.9346,-3.9205,-3.9088,-3.9196,-3.9239,-3.9263,-3.9336,-3.9529,-3.9708,-3.9754,-3.9845,-3.9933,-4.0036,-4.0138,-4.0234,-4.0325,-4.0427,-4.0489,-4.053,-4.0615,-4.0784,-4.1081,-4.1168,-4.1593,-4.248,-4.2587,-4.2602,-4.2634,-4.2071,-4.1766,-4.1753,-4.2403,-4.2733,-4.2744,-4.3621,-4.4356,-4.498,-4.522,-4.5655,-4.6201,-4.6201,-4.6468,-4.6957,-4.782,-4.8904,-5.0026,-5.0279,-5.0747,-5.13,-5.13,-5.1456,-5.1749,-5.2375,-5.2786,-5.3136,-5.3791,-5.4157,-5.4361,-5.4361,-5.4537,-5.4849,-5.5474,-5.5669,-5.5806,-5.645,-5.6606,-5.6606,-5.6606,-5.6606,-5.6595,-5.6597,-5.6599,-5.6599,-5.6601,-5.6797,-5.6953,-5.6953,-5.7168,-5.7324,-5.7324,-5.7324,-5.7324,-5.7324,-5.7871,-5.8262,-5.8262,-5.8828,-5.9199,-5.9199,-5.8398,-5.789,-5.789,-5.707,-5.6601,-5.6601,-5.6601,-5.6601,-5.6601,-5.6593,-5.6598,-5.6606,-5.6602,-5.6602,-5.6626,-5.7436,-5.8376,-3.9101,-3.9101,-3.9101,-3.9101,0.0,0.0,-3.9346,-3.9391,-3.9444,-3.9552,-3.9602,-3.9626,-3.9698,-3.9684,-3.9735,-3.9848,-3.9933,-4.0015,-4.0137,-4.0215,-4.0325,-4.0427,-4.0504,-4.0579,-4.0629,-4.07,-4.0781,-4.0826,-4.0888,-4.1121,-4.166,-4.1765,-4.1792,-4.1805,-4.1329,-4.11,-4.1109,-4.1593,-4.1862,-4.1866,-4.2744,-4.3427,-4.3931,-4.4676,-4.5258,-4.5718,-4.6089,-4.6245,-4.6279,-4.6796,-4.7768,-4.9035,-4.9756,-5.0334,-5.0794,-5.1164,-5.13,-5.1359,-5.1869,-5.2077,-5.2188,-5.2737,-5.3157,-5.3459,-5.3463,-5.3717,-5.4108,-5.4615,-5.5025,-5.5419,-5.5934,-5.6337,-5.6591,-5.6605,-5.661,-5.6593,-5.6601,-5.6601,-5.6601,-5.6601,-5.6601,-5.6601,-5.6601,-5.6601,-5.6601,-5.6601,-5.6601,-5.6601,-5.6601,-5.7031,-5.7363,-5.7363,-5.7812,-5.8125,-5.8125,-5.7656,-5.7363,-5.7363,-5.6875,-5.6601,-5.6601,-5.6599,-5.6595,-5.6595,-5.6598,-5.6606,-5.6606,-5.6598,-5.6595,-5.6577,-5.7401,-5.8038,-3.9101,-3.9101,-3.9101,-3.9101,-3.9101,0.0,-3.9346,-3.9391,-3.9444,-3.9552,-3.9577,-3.9626,-3.9689,-3.9689,-3.9758,-3.9954,-4.0057,-4.0118,-4.0196,-4.0327,-4.043,-4.0508,-4.0564,-4.0629,-4.0706,-4.0769,-4.0846,-4.0907,-4.0917,-4.0941,-4.1013,-4.1075,-4.1106,-4.1091,-4.11,-4.1105,-4.1105,-4.1099,-4.1108,-4.111,-4.1891,-4.2301,-4.2456,-4.3999,-4.4813,-4.5034,-4.5815,-4.6202,-4.63,-4.6292,-4.6777,-4.7645,-4.9205,-4.9834,-4.9956,-5.0735,-5.1028,-5.1008,-5.1011,-5.1096,-5.118,-5.1249,-5.1845,-5.2567,-5.2561,-5.3093,-5.3737,-5.3834,-5.4478,-5.5166,-5.5163,-5.5804,-5.6465,-5.6464,-5.6523,-5.6601,-5.6601,-5.6601,-5.6601,-5.6601,-5.6601,-5.6601,-5.6601,-5.6601,-5.6601,-5.6601,-5.6601,-5.6601,-5.6601,-5.6601,-5.6601,-5.6601,-5.6601,-5.6601,-5.6601,-5.6601,-5.6601,-5.6601,-5.6601,-5.6601,-5.6601,-5.6605,-5.6606,-5.6606,-5.6606,-5.6606,-5.6606,-5.6586,-5.6558,-5.6523,-5.7285,-5.7666,-3.9073,-3.9101,-3.9101,-3.9101,-3.9101,0.0,-3.9229,-3.9328,-3.9418,-3.9495,-3.9571,-3.9607,-3.9689,-3.9712,-3.9735,-3.9889,-4.0015,-4.0118,-4.0196,-4.0326,-4.043,-4.0558,-4.0579,-4.0642,-4.0765,-4.0837,-4.0917,-4.0974,-4.0984,-4.1013,-4.1076,-4.1081,-4.1097,-4.1099,-4.1101,-4.1105,-4.1091,-4.1093,-4.1094,-4.1091,-4.1267,-4.1718,-4.2402,-4.2753,-4.3671,-4.5018,-4.5184,-4.5643,-4.63,-4.63,-4.6767,-4.7528,-4.7879,-4.8431,-4.904,-4.9235,-4.9294,-4.9294,-4.9301,-4.9756,-5.0336,-5.0342,-5.094,-5.1654,-5.165,-5.1772,-5.205,-5.2761,-5.358,-5.4248,-5.4245,-5.4898,-5.5546,-5.5547,-5.6094,-5.6601,-5.6601,-5.6601,-5.6601,-5.6601,-5.6601,-5.6601,-5.6601,-5.6601,-5.6601,-5.6601,-5.6601,-5.6601,-5.6601,-5.6601,-5.6601,-5.6601,-5.6601,-5.6601,-5.6601,-5.6601,-5.6601,-5.6601,-5.6601,-5.6599,-5.6598,-5.6591,-5.6606,-5.6606,-5.6606,-5.6606,-5.6606,-5.6558,-5.6503,-5.6504,-5.6666,-5.7084,-3.9185,-3.9101,-3.9101,-3.9101,-3.9101,0.0,0.0,-3.9256,-3.9328,-3.9469,-3.952,-3.9577,-3.9679,-3.9708,-3.9735,-3.9889,-4.0015,-4.0118,-4.0196,-4.0326,-4.0447,-4.0583,-4.0593,-4.0642,-4.0796,-4.0867,-4.0927,-4.0984,-4.1033,-4.1067,-4.1109,-4.1104,-4.1099,-4.1107,-4.113,-4.1133,-4.1107,-4.1107,-4.1105,-4.1099,-4.1099,-4.1338,-4.1772,-4.2207,-4.2871,-4.375,-4.4624,-4.5258,-4.5695,-4.6124,-4.6518,-4.6897,-4.7326,-4.7782,-4.8202,-4.8631,-4.8806,-4.8806,-4.8806,-4.9087,-4.9445,-4.9452,-4.9757,-5.0179,-5.062,-5.106,-5.1499,-5.1937,-5.2683,-5.335,-5.3357,-5.3999,-5.4765,-5.5195,-5.5625,-5.6074,-5.6504,-5.6601,-5.6601,-5.6601,-5.6601,-5.6601,-5.6601,-5.6601,-5.6601,-5.6601,-5.6601,-5.6601,-5.6601,-5.6601,-5.6601,-5.6601,-5.6601,-5.6601,-5.6601,-5.6601,-5.6601,-5.6601,-5.6601,-5.6598,-5.6606,-5.6606,-5.6606,-5.6606,-5.6606,-5.6606,-5.6606,-5.6528,-5.6491,-5.6504,-5.6503,-5.6697,-3.9723,-3.9584,-3.9584,-3.9584,-3.9584,-3.9612,0.0,0.0,0.0,-3.9911,-3.9832,-3.9789,-3.9914,-3.9797,-3.9735,-3.9867,-4.0015,-4.0118,-4.0196,-4.0326,-4.0447,-4.0579,-4.0607,-4.0642,-4.0796,-4.0868,-4.0954,-4.1013,-4.1061,-4.11,-4.1097,-4.1097,-4.1107,-4.111,-4.1152,-4.1151,-4.1097,-4.1091,-4.1108,-4.1108,-4.1108,-4.1108,-4.113,-4.1831,-4.2246,-4.248,-4.3883,-4.4596,-4.4797,-4.5519,-4.5761,-4.5816,-4.685,-4.7242,-4.7326,-4.8047,-4.83,-4.83,-4.83,-4.8417,-4.8553,-4.8555,-4.8652,-4.8932,-4.9633,-5.0469,-5.1147,-5.1156,-5.1785,-5.2448,-5.2448,-5.3095,-5.3925,-5.4628,-5.5058,-5.5488,-5.6191,-5.6484,-5.6601,-5.6601,-5.6601,-5.6601,-5.6601,-5.6601,-5.6601,-5.6601,-5.6601,-5.6601,-5.6601,-5.6601,-5.6601,-5.6601,-5.6601,-5.6601,-5.6601,-5.6601,-5.6601,-5.6601,-5.6601,-5.6599,-5.6595,-5.6606,-5.6606,-5.6606,-5.6606,-5.6606,-5.6606,-5.6536,-5.6504,-5.6504,-5.6496,-5.6455,-4.1301,-4.1311,-4.1311,-4.1311,-4.1311,-4.1311,-4.1311,0.0,-4.1427,-4.1539,0.0,-4.0589,-4.076,0.0,0.0,-3.9804,-3.9975,-4.0118,-4.0196,-4.0327,-4.0447,-4.0573,-4.0612,-4.0642,-4.0796,-4.0917,-4.1011,-4.1089,-4.1106,-4.1105,-4.1108,-4.1091,-4.1103,-4.1094,-4.1113,-4.1113,-4.1093,-4.1101,-4.1108,-4.1108,-4.1108,-4.1108,-4.1108,-4.1192,-4.1672,-4.2402,-4.2615,-4.3132,-4.386,-4.3957,-4.3986,-4.4139,-4.5738,-4.6345,-4.6352,-4.6449,-4.6507,-4.6507,-4.6507,-4.6995,-4.7657,-4.7645,-4.8178,-4.8815,-4.8912,-4.9561,-5.0245,-5.0245,-5.0879,-5.155,-5.155,-5.2198,-5.2869,-5.2961,-5.4178,-5.5332,-5.543,-5.6055,-5.6601,-5.6601,-5.6601,-5.6601,-5.6601,-5.6601,-5.6601,-5.6601,-5.6601,-5.6601,-5.6601,-5.6601,-5.6601,-5.6601,-5.6601,-5.6601,-5.6601,-5.6601,-5.6601,-5.6601,-5.6601,-5.66,-5.6591,-5.6595,-5.6606,-5.6606,-5.6606,-5.6606,-5.6606,-5.6536,-5.6504,-5.6504,-5.6508,-5.6465,-4.169,-4.159,-4.159,-4.159,-4.159,-4.159,-4.159,-4.1619,-4.1649,-4.1735,0.0,0.0,0.0,0.0,0.0,0.0,-4.0211,-4.0015,-4.0137,-4.0215,-4.036,-4.0573,-4.0612,-4.0462,-4.0139,-3.9721,-3.9519,-3.9583,-3.9599,-3.9809,-4.0309,-4.034,-4.0586,-4.1086,-4.111,-4.1093,-4.1094,-4.1092,-4.1103,-4.1108,-4.1108,-4.1108,-4.1108,-4.1108,-4.1299,-4.168,-4.2185,-4.2605,-4.2982,-4.3482,-4.3704,-4.3768,-4.4426,-4.4994,-4.5455,-4.5455,-4.5767,-4.6196,-4.6208,-4.6442,-4.6741,-4.6741,-4.7333,-4.8041,-4.8055,-4.8652,-4.9346,-4.9352,-4.9972,-5.0644,-5.0644,-5.1293,-5.2062,-5.2576,-5.3266,-5.3937,-5.443,-5.5231,-5.5856,-5.5856,-5.6247,-5.6598,-5.6598,-5.6601,-5.6601,-5.6601,-5.6601,-5.6601,-5.6601,-5.6601,-5.6601,-5.6601,-5.6601,-5.6601,-5.6601,-5.6601,-5.6601,-5.6601,-5.6601,-5.6601,-5.6593,-5.6598,-5.6606,-5.6606,-5.6606,-5.6606,-5.6606,-5.6528,-5.6491,-5.6504,-5.6508,-5.6465,-4.2396,-4.2259,-4.2259,-4.2259,-4.2259,-4.2259,-4.2259,-4.2259,-4.2289,-4.2366,-4.2248,0.0,0.0,0.0,-4.1161,-4.1009,0.0,-4.0217,-4.0115,-4.0158,-4.0288,-4.0508,-4.04,-4.0113,-3.9655,-3.8866,-3.8435,-3.8494,-3.8492,-3.878,-3.9414,-3.9431,-3.9832,-4.0714,-4.0743,-4.0851,-4.1092,-4.0858,-4.0742,-4.0769,-4.053,-4.0413,-4.0416,-4.065,-4.0778,-4.0819,-4.1672,-4.2031,-4.2096,-4.2733,-4.2993,-4.2983,-4.2908,-4.3422,-4.4221,-4.4455,-4.5098,-4.5838,-4.5815,-4.5979,-4.6162,-4.6162,-4.6617,-4.715,-4.7138,-4.7756,-4.8445,-4.8443,-4.9079,-4.9791,-5.005,-5.0562,-5.1254,-5.2136,-5.2526,-5.2862,-5.35,-5.4323,-5.4948,-5.4948,-5.5455,-5.5885,-5.5885,-5.6284,-5.6601,-5.6601,-5.6601,-5.6601,-5.6601,-5.6601,-5.6601,-5.6601,-5.6601,-5.6601,-5.6601,-5.6601,-5.6601,-5.6599,-5.6599,-5.6597,-5.6607,-5.636,-5.6235,-5.6235,-5.6001,-5.5884,-5.5884,-5.6065,-5.6132,-5.616,-5.6398,-5.6464,-4.3899,-4.3912,-4.3912,-4.3912,-4.3912,-4.3912,-4.3912,-4.3912,-4.3962,-4.4091,-4.3498,-4.2996,-4.3119,-4.2562,-4.1845,-4.1103,-4.1089,0.0,0.0,-4.0158,-4.0251,-4.0389,-3.9901,-3.9544,-3.9607,-3.8877,-3.8432,-3.8494,-3.8494,-3.8511,-3.8546,-3.8536,-3.8935,-3.9817,-3.9841,-4.0258,-4.1091,-4.026,-3.9879,-3.9922,-3.908,-3.8689,-3.871,-3.9551,-3.994,-3.9974,-4.0792,-4.1148,-4.1148,-4.1178,-4.1184,-4.1173,-4.1117,-4.1623,-4.2486,-4.3323,-4.418,-4.4939,-4.4876,-4.5393,-4.6102,-4.6102,-4.6169,-4.6244,-4.6251,-4.6858,-4.7548,-4.7548,-4.8164,-4.904,-4.9869,-5.0128,-5.0367,-5.1234,-5.2097,-5.2702,-5.2745,-5.3428,-5.4033,-5.4029,-5.4068,-5.4088,-5.4088,-5.5472,-5.6593,-5.6593,-5.6593,-5.6593,-5.6593,-5.6593,-5.6593,-5.6593,-5.66,-5.6601,-5.6601,-5.6601,-5.6599,-5.6591,-5.6606,-5.6606,-5.6606,-5.5786,-5.5337,-5.5337,-5.4517,-5.4088,-5.4088,-5.4855,-5.524,-5.526,-5.6101,-5.6453,-4.4005,-4.4005,-4.4135,-4.4711,-4.4859,-4.4859,-4.4859,-4.4872,-4.4786,-4.4296,-4.4061,-4.3942,-4.3989,-4.338,-4.2848,-4.2687,-4.1755,-4.1037,0.0,-4.054,-4.0306,-4.0389,-3.9874,-3.9267,-3.8731,-3.7986,-3.7319,-3.674,-3.6748,-3.7034,-3.7605,-3.7637,-3.8038,-3.8915,-3.8936,-3.9082,-3.9384,-3.9087,-3.8963,-3.9034,-3.8748,-3.8593,-3.8611,-3.8912,-3.9331,-3.9855,-4.0129,-4.0564,-4.1106,-4.105,-4.1039,-4.1026,-4.1006,-4.1186,-4.1548,-4.2424,-4.3288,-4.4039,-4.402,-4.4548,-4.5239,-4.5237,-4.5654,-4.613,-4.613,-4.6333,-4.6583,-4.6637,-4.7274,-4.8016,-4.8301,-4.9249,-5.0176,-5.0464,-5.121,-5.1835,-5.1843,-5.2526,-5.3132,-5.3132,-5.362,-5.401,-5.401,-5.4482,-5.488,-5.488,-5.488,-5.488,-5.488,-5.488,-5.5095,-5.5677,-5.5742,-5.5966,-5.6558,-5.6598,-5.6595,-5.6605,-5.6595,-5.6606,-5.6606,-5.5767,-5.5298,-5.5298,-5.4439,-5.401,-5.401,-5.4279,-5.4411,-5.4421,-5.4702,-5.5126,-4.4451,-4.4674,-4.5026,-4.5584,-4.5746,-4.5778,-4.5778,-4.5823,-4.5718,-4.5195,-4.4931,-4.4813,-4.4813,-4.4243,-4.3713,-4.3535,-4.2599,-4.177,0.0,-4.0731,-4.0323,-4.0392,-3.9846,-3.9134,-3.828,-3.7511,-3.6714,-3.5857,-3.585,-3.6117,-3.6669,-3.6722,-3.7144,-3.8001,-3.8046,-3.8194,-3.8511,-3.819,-3.8049,-3.8104,-3.7792,-3.7641,-3.7653,-3.796,-3.838,-3.8911,-3.9516,-4.009,-4.061,-4.0857,-4.096,-4.0964,-4.0952,-4.0954,-4.1041,-4.1594,-4.2343,-4.3112,-4.3423,-4.386,-4.4346,-4.4647,-4.5152,-4.5695,-4.6007,-4.6113,-4.6122,-4.6149,-4.6583,-4.7104,-4.7418,-4.8568,-4.9711,-5.002,-5.0767,-5.1396,-5.1406,-5.1839,-5.223,-5.2234,-5.2683,-5.3073,-5.3073,-5.3073,-5.3288,-5.3912,-5.401,-5.401,-5.401,-5.401,-5.4225,-5.4791,-5.4849,-5.5185,-5.6058,-5.6429,-5.6605,-5.6605,-5.6595,-5.6469,-5.6157,-5.5298,-5.4693,-5.4381,-5.3522,-5.3073,-5.3073,-5.3385,-5.3537,-5.3548,-5.3855,-5.4117]}]]